<?xml version="1.0" encoding="UTF-8" standalone="no" ?>
<gpx xmlns="http://www.topografix.com/GPX/1/1" xmlns:xsi="http://www.w3.org/2001/XMLSchema-instance" xsi:schemaLocation="http://www.topografix.com/GPX/1/1 http://www.topografix.com/GPX/1/1/gpx.xsd" version="1.1" creator="VisuGPX - https://www.visugpx.com">
  <metadata>
    <name>Pierrefontaine-Pierrefontaine</name>
  </metadata>
  <trk>
    <name><![CDATA[2021-04-04 18:20:18]]></name>
    <trkseg>
      <trkpt lat="47.37554" lon="6.83891">
        <ele>576.93</ele>
        <time>2021-04-04T11:49:49Z</time>
      </trkpt>
      <trkpt lat="47.37552" lon="6.83886">
        <ele>576.45</ele>
        <time>2021-04-04T11:50:16Z</time>
      </trkpt>
      <trkpt lat="47.37551" lon="6.83895">
        <ele>576.45</ele>
        <time>2021-04-04T11:50:34Z</time>
      </trkpt>
      <trkpt lat="47.3755" lon="6.83904">
        <ele>575.97</ele>
        <time>2021-04-04T11:50:51Z</time>
      </trkpt>
      <trkpt lat="47.37573" lon="6.83923">
        <ele>576.45</ele>
        <time>2021-04-04T11:51:12Z</time>
      </trkpt>
      <trkpt lat="47.37554" lon="6.83929">
        <ele>575.97</ele>
        <time>2021-04-04T11:51:33Z</time>
      </trkpt>
      <trkpt lat="47.37555" lon="6.83929">
        <ele>575.97</ele>
        <time>2021-04-04T11:51:56Z</time>
      </trkpt>
      <trkpt lat="47.37556" lon="6.8393">
        <ele>575.97</ele>
        <time>2021-04-04T11:52:20Z</time>
      </trkpt>
      <trkpt lat="47.37561" lon="6.83929">
        <ele>575.97</ele>
        <time>2021-04-04T11:52:48Z</time>
      </trkpt>
      <trkpt lat="47.37547" lon="6.83928">
        <ele>575.97</ele>
        <time>2021-04-04T11:53:14Z</time>
      </trkpt>
      <trkpt lat="47.37546" lon="6.83926">
        <ele>575.97</ele>
        <time>2021-04-04T11:53:40Z</time>
      </trkpt>
      <trkpt lat="47.37541" lon="6.83928">
        <ele>575.97</ele>
        <time>2021-04-04T11:54:05Z</time>
      </trkpt>
      <trkpt lat="47.37537" lon="6.83934">
        <ele>575.49</ele>
        <time>2021-04-04T11:54:34Z</time>
      </trkpt>
      <trkpt lat="47.3755" lon="6.83931">
        <ele>575.49</ele>
        <time>2021-04-04T11:54:55Z</time>
      </trkpt>
      <trkpt lat="47.37551" lon="6.83931">
        <ele>575.49</ele>
        <time>2021-04-04T11:54:56Z</time>
      </trkpt>
      <trkpt lat="47.37566" lon="6.83911">
        <ele>575.97</ele>
        <time>2021-04-04T11:55:24Z</time>
      </trkpt>
      <trkpt lat="47.37555" lon="6.83914">
        <ele>575.97</ele>
        <time>2021-04-04T11:55:57Z</time>
      </trkpt>
      <trkpt lat="47.37548" lon="6.83919">
        <ele>575.97</ele>
        <time>2021-04-04T11:56:25Z</time>
      </trkpt>
      <trkpt lat="47.37545" lon="6.83923">
        <ele>575.97</ele>
        <time>2021-04-04T11:56:49Z</time>
      </trkpt>
      <trkpt lat="47.37542" lon="6.83919">
        <ele>575.97</ele>
        <time>2021-04-04T11:57:10Z</time>
      </trkpt>
      <trkpt lat="47.37541" lon="6.83919">
        <ele>575.97</ele>
        <time>2021-04-04T11:57:11Z</time>
      </trkpt>
      <trkpt lat="47.37535" lon="6.83916">
        <ele>575.97</ele>
        <time>2021-04-04T11:57:15Z</time>
      </trkpt>
      <trkpt lat="47.37533" lon="6.83921">
        <ele>576.45</ele>
        <time>2021-04-04T11:57:16Z</time>
      </trkpt>
      <trkpt lat="47.37533" lon="6.83927">
        <ele>575.97</ele>
        <time>2021-04-04T11:57:17Z</time>
      </trkpt>
      <trkpt lat="47.37533" lon="6.83932">
        <ele>575.97</ele>
        <time>2021-04-04T11:57:18Z</time>
      </trkpt>
      <trkpt lat="47.37533" lon="6.83938">
        <ele>575.97</ele>
        <time>2021-04-04T11:57:19Z</time>
      </trkpt>
      <trkpt lat="47.37533" lon="6.83944">
        <ele>575.49</ele>
        <time>2021-04-04T11:57:20Z</time>
      </trkpt>
      <trkpt lat="47.37532" lon="6.83996">
        <ele>573.56</ele>
        <time>2021-04-04T11:57:27Z</time>
      </trkpt>
      <trkpt lat="47.37533" lon="6.84002">
        <ele>573.08</ele>
        <time>2021-04-04T11:57:28Z</time>
      </trkpt>
      <trkpt lat="47.37535" lon="6.84004">
        <ele>572.6</ele>
        <time>2021-04-04T11:57:29Z</time>
      </trkpt>
      <trkpt lat="47.37539" lon="6.84002">
        <ele>572.6</ele>
        <time>2021-04-04T11:57:30Z</time>
      </trkpt>
      <trkpt lat="47.37544" lon="6.83997">
        <ele>573.08</ele>
        <time>2021-04-04T11:57:31Z</time>
      </trkpt>
      <trkpt lat="47.37557" lon="6.83983">
        <ele>573.56</ele>
        <time>2021-04-04T11:57:34Z</time>
      </trkpt>
      <trkpt lat="47.37581" lon="6.83952">
        <ele>575.97</ele>
        <time>2021-04-04T11:57:40Z</time>
      </trkpt>
      <trkpt lat="47.37585" lon="6.83949">
        <ele>575.49</ele>
        <time>2021-04-04T11:57:41Z</time>
      </trkpt>
      <trkpt lat="47.37589" lon="6.83945">
        <ele>575.97</ele>
        <time>2021-04-04T11:57:42Z</time>
      </trkpt>
      <trkpt lat="47.37656" lon="6.83904">
        <ele>575.01</ele>
        <time>2021-04-04T11:57:55Z</time>
      </trkpt>
      <trkpt lat="47.37669" lon="6.83886">
        <ele>574.04</ele>
        <time>2021-04-04T11:57:58Z</time>
      </trkpt>
      <trkpt lat="47.37718" lon="6.83798">
        <ele>570.68</ele>
        <time>2021-04-04T11:58:07Z</time>
      </trkpt>
      <trkpt lat="47.37734" lon="6.83745">
        <ele>568.76</ele>
        <time>2021-04-04T11:58:11Z</time>
      </trkpt>
      <trkpt lat="47.37771" lon="6.83594">
        <ele>565.39</ele>
        <time>2021-04-04T11:58:22Z</time>
      </trkpt>
      <trkpt lat="47.37794" lon="6.8348">
        <ele>568.28</ele>
        <time>2021-04-04T11:58:33Z</time>
      </trkpt>
      <trkpt lat="47.37801" lon="6.83455">
        <ele>569.72</ele>
        <time>2021-04-04T11:58:36Z</time>
      </trkpt>
      <trkpt lat="47.3782" lon="6.83386">
        <ele>572.6</ele>
        <time>2021-04-04T11:58:45Z</time>
      </trkpt>
      <trkpt lat="47.37822" lon="6.83378">
        <ele>573.08</ele>
        <time>2021-04-04T11:58:46Z</time>
      </trkpt>
      <trkpt lat="47.37842" lon="6.83293">
        <ele>575.97</ele>
        <time>2021-04-04T11:58:57Z</time>
      </trkpt>
      <trkpt lat="47.37866" lon="6.83143">
        <ele>575.01</ele>
        <time>2021-04-04T11:59:14Z</time>
      </trkpt>
      <trkpt lat="47.37867" lon="6.83132">
        <ele>575.01</ele>
        <time>2021-04-04T11:59:15Z</time>
      </trkpt>
      <trkpt lat="47.37873" lon="6.82974">
        <ele>571.16</ele>
        <time>2021-04-04T11:59:27Z</time>
      </trkpt>
      <trkpt lat="47.37873" lon="6.82959">
        <ele>571.16</ele>
        <time>2021-04-04T11:59:28Z</time>
      </trkpt>
      <trkpt lat="47.3788" lon="6.82846">
        <ele>567.32</ele>
        <time>2021-04-04T11:59:35Z</time>
      </trkpt>
      <trkpt lat="47.37881" lon="6.82829">
        <ele>566.83</ele>
        <time>2021-04-04T11:59:36Z</time>
      </trkpt>
      <trkpt lat="47.37885" lon="6.82796">
        <ele>564.43</ele>
        <time>2021-04-04T11:59:38Z</time>
      </trkpt>
      <trkpt lat="47.37889" lon="6.82781">
        <ele>564.43</ele>
        <time>2021-04-04T11:59:39Z</time>
      </trkpt>
      <trkpt lat="47.37897" lon="6.82768">
        <ele>563.95</ele>
        <time>2021-04-04T11:59:40Z</time>
      </trkpt>
      <trkpt lat="47.37906" lon="6.82757">
        <ele>563.47</ele>
        <time>2021-04-04T11:59:41Z</time>
      </trkpt>
      <trkpt lat="47.37917" lon="6.82751">
        <ele>563.47</ele>
        <time>2021-04-04T11:59:42Z</time>
      </trkpt>
      <trkpt lat="47.37928" lon="6.82747">
        <ele>562.99</ele>
        <time>2021-04-04T11:59:43Z</time>
      </trkpt>
      <trkpt lat="47.3794" lon="6.82745">
        <ele>562.99</ele>
        <time>2021-04-04T11:59:44Z</time>
      </trkpt>
      <trkpt lat="47.38011" lon="6.82732">
        <ele>560.11</ele>
        <time>2021-04-04T11:59:50Z</time>
      </trkpt>
      <trkpt lat="47.38055" lon="6.82716">
        <ele>556.74</ele>
        <time>2021-04-04T11:59:54Z</time>
      </trkpt>
      <trkpt lat="47.38109" lon="6.8268">
        <ele>552.9</ele>
        <time>2021-04-04T11:59:59Z</time>
      </trkpt>
      <trkpt lat="47.38176" lon="6.82641">
        <ele>549.05</ele>
        <time>2021-04-04T12:00:05Z</time>
      </trkpt>
      <trkpt lat="47.382" lon="6.82634">
        <ele>548.09</ele>
        <time>2021-04-04T12:00:07Z</time>
      </trkpt>
      <trkpt lat="47.38247" lon="6.82627">
        <ele>545.2</ele>
        <time>2021-04-04T12:00:11Z</time>
      </trkpt>
      <trkpt lat="47.38295" lon="6.82615">
        <ele>541.84</ele>
        <time>2021-04-04T12:00:15Z</time>
      </trkpt>
      <trkpt lat="47.38354" lon="6.82593">
        <ele>538.48</ele>
        <time>2021-04-04T12:00:20Z</time>
      </trkpt>
      <trkpt lat="47.38378" lon="6.82585">
        <ele>537.03</ele>
        <time>2021-04-04T12:00:22Z</time>
      </trkpt>
      <trkpt lat="47.38391" lon="6.82584">
        <ele>536.55</ele>
        <time>2021-04-04T12:00:23Z</time>
      </trkpt>
      <trkpt lat="47.38403" lon="6.82584">
        <ele>536.55</ele>
        <time>2021-04-04T12:00:24Z</time>
      </trkpt>
      <trkpt lat="47.38415" lon="6.82586">
        <ele>535.59</ele>
        <time>2021-04-04T12:00:25Z</time>
      </trkpt>
      <trkpt lat="47.38427" lon="6.82591">
        <ele>534.63</ele>
        <time>2021-04-04T12:00:26Z</time>
      </trkpt>
      <trkpt lat="47.38438" lon="6.82599">
        <ele>534.63</ele>
        <time>2021-04-04T12:00:27Z</time>
      </trkpt>
      <trkpt lat="47.38449" lon="6.82609">
        <ele>533.67</ele>
        <time>2021-04-04T12:00:28Z</time>
      </trkpt>
      <trkpt lat="47.38459" lon="6.82619">
        <ele>533.19</ele>
        <time>2021-04-04T12:00:29Z</time>
      </trkpt>
      <trkpt lat="47.38469" lon="6.82629">
        <ele>532.23</ele>
        <time>2021-04-04T12:00:30Z</time>
      </trkpt>
      <trkpt lat="47.38477" lon="6.82642">
        <ele>531.75</ele>
        <time>2021-04-04T12:00:31Z</time>
      </trkpt>
      <trkpt lat="47.38485" lon="6.82656">
        <ele>531.27</ele>
        <time>2021-04-04T12:00:32Z</time>
      </trkpt>
      <trkpt lat="47.38491" lon="6.8267">
        <ele>530.3</ele>
        <time>2021-04-04T12:00:33Z</time>
      </trkpt>
      <trkpt lat="47.38497" lon="6.82683">
        <ele>529.82</ele>
        <time>2021-04-04T12:00:34Z</time>
      </trkpt>
      <trkpt lat="47.3852" lon="6.82725">
        <ele>527.42</ele>
        <time>2021-04-04T12:00:38Z</time>
      </trkpt>
      <trkpt lat="47.38527" lon="6.82732">
        <ele>526.94</ele>
        <time>2021-04-04T12:00:39Z</time>
      </trkpt>
      <trkpt lat="47.38534" lon="6.82735">
        <ele>526.46</ele>
        <time>2021-04-04T12:00:40Z</time>
      </trkpt>
      <trkpt lat="47.38543" lon="6.82732">
        <ele>526.46</ele>
        <time>2021-04-04T12:00:41Z</time>
      </trkpt>
      <trkpt lat="47.3855" lon="6.8273">
        <ele>525.98</ele>
        <time>2021-04-04T12:00:42Z</time>
      </trkpt>
      <trkpt lat="47.38555" lon="6.82726">
        <ele>525.5</ele>
        <time>2021-04-04T12:00:43Z</time>
      </trkpt>
      <trkpt lat="47.38561" lon="6.82719">
        <ele>525.5</ele>
        <time>2021-04-04T12:00:44Z</time>
      </trkpt>
      <trkpt lat="47.38567" lon="6.82711">
        <ele>525.5</ele>
        <time>2021-04-04T12:00:45Z</time>
      </trkpt>
      <trkpt lat="47.38573" lon="6.82698">
        <ele>525.02</ele>
        <time>2021-04-04T12:00:46Z</time>
      </trkpt>
      <trkpt lat="47.38578" lon="6.82682">
        <ele>524.06</ele>
        <time>2021-04-04T12:00:47Z</time>
      </trkpt>
      <trkpt lat="47.38586" lon="6.82604">
        <ele>520.69</ele>
        <time>2021-04-04T12:00:52Z</time>
      </trkpt>
      <trkpt lat="47.38493" lon="6.82546">
        <ele>519.73</ele>
        <time>2021-04-04T12:00:54Z</time>
      </trkpt>
      <trkpt lat="47.38488" lon="6.82527">
        <ele>519.25</ele>
        <time>2021-04-04T12:00:55Z</time>
      </trkpt>
      <trkpt lat="47.3846" lon="6.82459">
        <ele>516.85</ele>
        <time>2021-04-04T12:01:00Z</time>
      </trkpt>
      <trkpt lat="47.38413" lon="6.82409">
        <ele>513</ele>
        <time>2021-04-04T12:01:05Z</time>
      </trkpt>
      <trkpt lat="47.38365" lon="6.82353">
        <ele>509.64</ele>
        <time>2021-04-04T12:01:10Z</time>
      </trkpt>
      <trkpt lat="47.38359" lon="6.82337">
        <ele>508.67</ele>
        <time>2021-04-04T12:01:11Z</time>
      </trkpt>
      <trkpt lat="47.38354" lon="6.8232">
        <ele>508.19</ele>
        <time>2021-04-04T12:01:12Z</time>
      </trkpt>
      <trkpt lat="47.38351" lon="6.82303">
        <ele>507.71</ele>
        <time>2021-04-04T12:01:13Z</time>
      </trkpt>
      <trkpt lat="47.38349" lon="6.82285">
        <ele>507.23</ele>
        <time>2021-04-04T12:01:14Z</time>
      </trkpt>
      <trkpt lat="47.3835" lon="6.82267">
        <ele>506.27</ele>
        <time>2021-04-04T12:01:15Z</time>
      </trkpt>
      <trkpt lat="47.38351" lon="6.82249">
        <ele>506.27</ele>
        <time>2021-04-04T12:01:16Z</time>
      </trkpt>
      <trkpt lat="47.38353" lon="6.82214">
        <ele>504.83</ele>
        <time>2021-04-04T12:01:18Z</time>
      </trkpt>
      <trkpt lat="47.38357" lon="6.82179">
        <ele>504.35</ele>
        <time>2021-04-04T12:01:20Z</time>
      </trkpt>
      <trkpt lat="47.38373" lon="6.82093">
        <ele>500.02</ele>
        <time>2021-04-04T12:01:25Z</time>
      </trkpt>
      <trkpt lat="47.38378" lon="6.82062">
        <ele>499.06</ele>
        <time>2021-04-04T12:01:27Z</time>
      </trkpt>
      <trkpt lat="47.38384" lon="6.8203">
        <ele>498.1</ele>
        <time>2021-04-04T12:01:29Z</time>
      </trkpt>
      <trkpt lat="47.384" lon="6.8195">
        <ele>495.7</ele>
        <time>2021-04-04T12:01:34Z</time>
      </trkpt>
      <trkpt lat="47.38414" lon="6.81852">
        <ele>492.33</ele>
        <time>2021-04-04T12:01:40Z</time>
      </trkpt>
      <trkpt lat="47.38414" lon="6.81763">
        <ele>489.45</ele>
        <time>2021-04-04T12:01:45Z</time>
      </trkpt>
      <trkpt lat="47.38414" lon="6.81672">
        <ele>485.6</ele>
        <time>2021-04-04T12:01:50Z</time>
      </trkpt>
      <trkpt lat="47.38415" lon="6.81582">
        <ele>482.24</ele>
        <time>2021-04-04T12:01:55Z</time>
      </trkpt>
      <trkpt lat="47.38425" lon="6.81492">
        <ele>478.87</ele>
        <time>2021-04-04T12:02:00Z</time>
      </trkpt>
      <trkpt lat="47.38443" lon="6.81424">
        <ele>475.99</ele>
        <time>2021-04-04T12:02:04Z</time>
      </trkpt>
      <trkpt lat="47.38451" lon="6.81406">
        <ele>475.03</ele>
        <time>2021-04-04T12:02:05Z</time>
      </trkpt>
      <trkpt lat="47.38459" lon="6.8139">
        <ele>474.55</ele>
        <time>2021-04-04T12:02:06Z</time>
      </trkpt>
      <trkpt lat="47.38469" lon="6.81377">
        <ele>473.59</ele>
        <time>2021-04-04T12:02:07Z</time>
      </trkpt>
      <trkpt lat="47.38478" lon="6.81368">
        <ele>473.11</ele>
        <time>2021-04-04T12:02:08Z</time>
      </trkpt>
      <trkpt lat="47.38489" lon="6.8136">
        <ele>473.11</ele>
        <time>2021-04-04T12:02:09Z</time>
      </trkpt>
      <trkpt lat="47.38501" lon="6.81355">
        <ele>471.66</ele>
        <time>2021-04-04T12:02:10Z</time>
      </trkpt>
      <trkpt lat="47.38512" lon="6.81353">
        <ele>471.66</ele>
        <time>2021-04-04T12:02:11Z</time>
      </trkpt>
      <trkpt lat="47.38524" lon="6.81355">
        <ele>470.7</ele>
        <time>2021-04-04T12:02:12Z</time>
      </trkpt>
      <trkpt lat="47.38536" lon="6.81362">
        <ele>470.22</ele>
        <time>2021-04-04T12:02:13Z</time>
      </trkpt>
      <trkpt lat="47.38547" lon="6.81371">
        <ele>469.26</ele>
        <time>2021-04-04T12:02:14Z</time>
      </trkpt>
      <trkpt lat="47.38558" lon="6.81381">
        <ele>468.78</ele>
        <time>2021-04-04T12:02:15Z</time>
      </trkpt>
      <trkpt lat="47.38567" lon="6.81392">
        <ele>467.34</ele>
        <time>2021-04-04T12:02:16Z</time>
      </trkpt>
      <trkpt lat="47.38611" lon="6.81448">
        <ele>464.93</ele>
        <time>2021-04-04T12:02:21Z</time>
      </trkpt>
      <trkpt lat="47.3865" lon="6.81509">
        <ele>461.09</ele>
        <time>2021-04-04T12:02:26Z</time>
      </trkpt>
      <trkpt lat="47.38657" lon="6.81523">
        <ele>461.09</ele>
        <time>2021-04-04T12:02:27Z</time>
      </trkpt>
      <trkpt lat="47.38672" lon="6.81549">
        <ele>459.17</ele>
        <time>2021-04-04T12:02:29Z</time>
      </trkpt>
      <trkpt lat="47.3868" lon="6.81561">
        <ele>459.17</ele>
        <time>2021-04-04T12:02:30Z</time>
      </trkpt>
      <trkpt lat="47.38716" lon="6.81624">
        <ele>455.8</ele>
        <time>2021-04-04T12:02:35Z</time>
      </trkpt>
      <trkpt lat="47.38724" lon="6.81637">
        <ele>455.32</ele>
        <time>2021-04-04T12:02:36Z</time>
      </trkpt>
      <trkpt lat="47.38745" lon="6.81676">
        <ele>452.92</ele>
        <time>2021-04-04T12:02:39Z</time>
      </trkpt>
      <trkpt lat="47.38779" lon="6.8174">
        <ele>449.55</ele>
        <time>2021-04-04T12:02:44Z</time>
      </trkpt>
      <trkpt lat="47.38793" lon="6.81764">
        <ele>448.59</ele>
        <time>2021-04-04T12:02:46Z</time>
      </trkpt>
      <trkpt lat="47.38813" lon="6.818">
        <ele>446.19</ele>
        <time>2021-04-04T12:02:49Z</time>
      </trkpt>
      <trkpt lat="47.38821" lon="6.8181">
        <ele>446.19</ele>
        <time>2021-04-04T12:02:50Z</time>
      </trkpt>
      <trkpt lat="47.38829" lon="6.81818">
        <ele>445.71</ele>
        <time>2021-04-04T12:02:51Z</time>
      </trkpt>
      <trkpt lat="47.38838" lon="6.81825">
        <ele>445.23</ele>
        <time>2021-04-04T12:02:52Z</time>
      </trkpt>
      <trkpt lat="47.38846" lon="6.81829">
        <ele>444.75</ele>
        <time>2021-04-04T12:02:53Z</time>
      </trkpt>
      <trkpt lat="47.38857" lon="6.81836">
        <ele>444.27</ele>
        <time>2021-04-04T12:02:55Z</time>
      </trkpt>
      <trkpt lat="47.38858" lon="6.81839">
        <ele>444.75</ele>
        <time>2021-04-04T12:02:57Z</time>
      </trkpt>
      <trkpt lat="47.38854" lon="6.81838">
        <ele>443.79</ele>
        <time>2021-04-04T12:02:58Z</time>
      </trkpt>
      <trkpt lat="47.38841" lon="6.8183">
        <ele>443.79</ele>
        <time>2021-04-04T12:03:00Z</time>
      </trkpt>
      <trkpt lat="47.38834" lon="6.81821">
        <ele>443.31</ele>
        <time>2021-04-04T12:03:01Z</time>
      </trkpt>
      <trkpt lat="47.38818" lon="6.81799">
        <ele>442.34</ele>
        <time>2021-04-04T12:03:03Z</time>
      </trkpt>
      <trkpt lat="47.38812" lon="6.81784">
        <ele>441.38</ele>
        <time>2021-04-04T12:03:04Z</time>
      </trkpt>
      <trkpt lat="47.38799" lon="6.81754">
        <ele>439.94</ele>
        <time>2021-04-04T12:03:06Z</time>
      </trkpt>
      <trkpt lat="47.38794" lon="6.81596">
        <ele>437.06</ele>
        <time>2021-04-04T12:03:11Z</time>
      </trkpt>
      <trkpt lat="47.38774" lon="6.81508">
        <ele>433.69</ele>
        <time>2021-04-04T12:03:16Z</time>
      </trkpt>
      <trkpt lat="47.38753" lon="6.81424">
        <ele>430.81</ele>
        <time>2021-04-04T12:03:21Z</time>
      </trkpt>
      <trkpt lat="47.38744" lon="6.81391">
        <ele>429.37</ele>
        <time>2021-04-04T12:03:23Z</time>
      </trkpt>
      <trkpt lat="47.38724" lon="6.81346">
        <ele>427.44</ele>
        <time>2021-04-04T12:03:26Z</time>
      </trkpt>
      <trkpt lat="47.38717" lon="6.81332">
        <ele>426.96</ele>
        <time>2021-04-04T12:03:27Z</time>
      </trkpt>
      <trkpt lat="47.38709" lon="6.8132">
        <ele>426.48</ele>
        <time>2021-04-04T12:03:28Z</time>
      </trkpt>
      <trkpt lat="47.387" lon="6.81308">
        <ele>425.52</ele>
        <time>2021-04-04T12:03:29Z</time>
      </trkpt>
      <trkpt lat="47.38664" lon="6.81259">
        <ele>423.12</ele>
        <time>2021-04-04T12:03:33Z</time>
      </trkpt>
      <trkpt lat="47.38637" lon="6.81223">
        <ele>421.19</ele>
        <time>2021-04-04T12:03:36Z</time>
      </trkpt>
      <trkpt lat="47.38609" lon="6.81188">
        <ele>419.75</ele>
        <time>2021-04-04T12:03:39Z</time>
      </trkpt>
      <trkpt lat="47.38592" lon="6.81167">
        <ele>418.79</ele>
        <time>2021-04-04T12:03:41Z</time>
      </trkpt>
      <trkpt lat="47.38532" lon="6.81089">
        <ele>415.43</ele>
        <time>2021-04-04T12:03:48Z</time>
      </trkpt>
      <trkpt lat="47.38519" lon="6.81063">
        <ele>415.43</ele>
        <time>2021-04-04T12:03:50Z</time>
      </trkpt>
      <trkpt lat="47.38514" lon="6.81047">
        <ele>414.47</ele>
        <time>2021-04-04T12:03:51Z</time>
      </trkpt>
      <trkpt lat="47.3851" lon="6.8103">
        <ele>413.5</ele>
        <time>2021-04-04T12:03:52Z</time>
      </trkpt>
      <trkpt lat="47.38508" lon="6.81013">
        <ele>414.47</ele>
        <time>2021-04-04T12:03:53Z</time>
      </trkpt>
      <trkpt lat="47.38507" lon="6.80994">
        <ele>414.47</ele>
        <time>2021-04-04T12:03:54Z</time>
      </trkpt>
      <trkpt lat="47.38493" lon="6.80825">
        <ele>411.1</ele>
        <time>2021-04-04T12:04:04Z</time>
      </trkpt>
      <trkpt lat="47.38492" lon="6.80794">
        <ele>410.62</ele>
        <time>2021-04-04T12:04:06Z</time>
      </trkpt>
      <trkpt lat="47.38494" lon="6.80778">
        <ele>410.14</ele>
        <time>2021-04-04T12:04:07Z</time>
      </trkpt>
      <trkpt lat="47.38531" lon="6.80635">
        <ele>411.58</ele>
        <time>2021-04-04T12:04:17Z</time>
      </trkpt>
      <trkpt lat="47.38582" lon="6.80501">
        <ele>408.22</ele>
        <time>2021-04-04T12:04:27Z</time>
      </trkpt>
      <trkpt lat="47.38587" lon="6.80471">
        <ele>407.26</ele>
        <time>2021-04-04T12:04:29Z</time>
      </trkpt>
      <trkpt lat="47.38593" lon="6.80383">
        <ele>406.29</ele>
        <time>2021-04-04T12:04:35Z</time>
      </trkpt>
      <trkpt lat="47.38573" lon="6.80197">
        <ele>403.41</ele>
        <time>2021-04-04T12:04:47Z</time>
      </trkpt>
      <trkpt lat="47.38551" lon="6.80043">
        <ele>400.53</ele>
        <time>2021-04-04T12:04:57Z</time>
      </trkpt>
      <trkpt lat="47.38573" lon="6.79891">
        <ele>399.57</ele>
        <time>2021-04-04T12:05:07Z</time>
      </trkpt>
      <trkpt lat="47.38587" lon="6.79833">
        <ele>398.6</ele>
        <time>2021-04-04T12:05:11Z</time>
      </trkpt>
      <trkpt lat="47.38611" lon="6.79745">
        <ele>395.24</ele>
        <time>2021-04-04T12:05:17Z</time>
      </trkpt>
      <trkpt lat="47.38637" lon="6.79674">
        <ele>393.8</ele>
        <time>2021-04-04T12:05:22Z</time>
      </trkpt>
      <trkpt lat="47.3865" lon="6.7963">
        <ele>392.84</ele>
        <time>2021-04-04T12:05:25Z</time>
      </trkpt>
      <trkpt lat="47.38661" lon="6.79585">
        <ele>390.91</ele>
        <time>2021-04-04T12:05:28Z</time>
      </trkpt>
      <trkpt lat="47.38683" lon="6.7952">
        <ele>391.39</ele>
        <time>2021-04-04T12:05:33Z</time>
      </trkpt>
      <trkpt lat="47.38689" lon="6.79493">
        <ele>390.91</ele>
        <time>2021-04-04T12:05:35Z</time>
      </trkpt>
      <trkpt lat="47.38687" lon="6.79478">
        <ele>389.95</ele>
        <time>2021-04-04T12:05:36Z</time>
      </trkpt>
      <trkpt lat="47.38684" lon="6.79464">
        <ele>389.47</ele>
        <time>2021-04-04T12:05:37Z</time>
      </trkpt>
      <trkpt lat="47.38663" lon="6.79356">
        <ele>388.99</ele>
        <time>2021-04-04T12:05:45Z</time>
      </trkpt>
      <trkpt lat="47.38635" lon="6.79127">
        <ele>389.95</ele>
        <time>2021-04-04T12:06:02Z</time>
      </trkpt>
      <trkpt lat="47.3863" lon="6.78922">
        <ele>388.51</ele>
        <time>2021-04-04T12:06:18Z</time>
      </trkpt>
      <trkpt lat="47.3864" lon="6.78745">
        <ele>387.55</ele>
        <time>2021-04-04T12:06:33Z</time>
      </trkpt>
      <trkpt lat="47.38644" lon="6.78684">
        <ele>385.63</ele>
        <time>2021-04-04T12:06:38Z</time>
      </trkpt>
      <trkpt lat="47.38658" lon="6.78563">
        <ele>383.7</ele>
        <time>2021-04-04T12:06:47Z</time>
      </trkpt>
      <trkpt lat="47.38664" lon="6.78506">
        <ele>380.34</ele>
        <time>2021-04-04T12:06:51Z</time>
      </trkpt>
      <trkpt lat="47.38668" lon="6.78476">
        <ele>378.9</ele>
        <time>2021-04-04T12:06:53Z</time>
      </trkpt>
      <trkpt lat="47.38681" lon="6.78413">
        <ele>377.94</ele>
        <time>2021-04-04T12:06:57Z</time>
      </trkpt>
      <trkpt lat="47.38738" lon="6.7821">
        <ele>376.01</ele>
        <time>2021-04-04T12:07:11Z</time>
      </trkpt>
      <trkpt lat="47.38799" lon="6.78043">
        <ele>373.13</ele>
        <time>2021-04-04T12:07:24Z</time>
      </trkpt>
      <trkpt lat="47.38826" lon="6.7797">
        <ele>372.17</ele>
        <time>2021-04-04T12:07:30Z</time>
      </trkpt>
      <trkpt lat="47.38828" lon="6.77957">
        <ele>372.17</ele>
        <time>2021-04-04T12:07:31Z</time>
      </trkpt>
      <trkpt lat="47.38827" lon="6.77943">
        <ele>372.17</ele>
        <time>2021-04-04T12:07:32Z</time>
      </trkpt>
      <trkpt lat="47.38823" lon="6.77931">
        <ele>372.17</ele>
        <time>2021-04-04T12:07:33Z</time>
      </trkpt>
      <trkpt lat="47.38817" lon="6.77919">
        <ele>371.69</ele>
        <time>2021-04-04T12:07:34Z</time>
      </trkpt>
      <trkpt lat="47.38778" lon="6.77777">
        <ele>371.21</ele>
        <time>2021-04-04T12:07:46Z</time>
      </trkpt>
      <trkpt lat="47.38725" lon="6.77618">
        <ele>369.76</ele>
        <time>2021-04-04T12:08:01Z</time>
      </trkpt>
      <trkpt lat="47.38656" lon="6.77465">
        <ele>367.84</ele>
        <time>2021-04-04T12:08:15Z</time>
      </trkpt>
      <trkpt lat="47.38631" lon="6.7741">
        <ele>366.88</ele>
        <time>2021-04-04T12:08:20Z</time>
      </trkpt>
      <trkpt lat="47.38625" lon="6.77402">
        <ele>366.88</ele>
        <time>2021-04-04T12:08:21Z</time>
      </trkpt>
      <trkpt lat="47.38618" lon="6.77395">
        <ele>366.88</ele>
        <time>2021-04-04T12:08:22Z</time>
      </trkpt>
      <trkpt lat="47.3861" lon="6.77391">
        <ele>366.88</ele>
        <time>2021-04-04T12:08:23Z</time>
      </trkpt>
      <trkpt lat="47.38602" lon="6.77389">
        <ele>366.88</ele>
        <time>2021-04-04T12:08:24Z</time>
      </trkpt>
      <trkpt lat="47.38594" lon="6.77387">
        <ele>366.88</ele>
        <time>2021-04-04T12:08:25Z</time>
      </trkpt>
      <trkpt lat="47.38468" lon="6.77359">
        <ele>366.4</ele>
        <time>2021-04-04T12:08:41Z</time>
      </trkpt>
      <trkpt lat="47.38352" lon="6.77336">
        <ele>364</ele>
        <time>2021-04-04T12:08:55Z</time>
      </trkpt>
      <trkpt lat="47.38234" lon="6.77316">
        <ele>363.04</ele>
        <time>2021-04-04T12:09:09Z</time>
      </trkpt>
      <trkpt lat="47.38226" lon="6.77314">
        <ele>363.52</ele>
        <time>2021-04-04T12:09:10Z</time>
      </trkpt>
      <trkpt lat="47.3822" lon="6.77309">
        <ele>363.52</ele>
        <time>2021-04-04T12:09:11Z</time>
      </trkpt>
      <trkpt lat="47.38215" lon="6.77302">
        <ele>364</ele>
        <time>2021-04-04T12:09:12Z</time>
      </trkpt>
      <trkpt lat="47.38212" lon="6.77294">
        <ele>364.48</ele>
        <time>2021-04-04T12:09:13Z</time>
      </trkpt>
      <trkpt lat="47.3821" lon="6.77284">
        <ele>364.48</ele>
        <time>2021-04-04T12:09:14Z</time>
      </trkpt>
      <trkpt lat="47.38209" lon="6.77275">
        <ele>364.96</ele>
        <time>2021-04-04T12:09:15Z</time>
      </trkpt>
      <trkpt lat="47.38209" lon="6.77265">
        <ele>365.44</ele>
        <time>2021-04-04T12:09:16Z</time>
      </trkpt>
      <trkpt lat="47.3821" lon="6.77254">
        <ele>364.96</ele>
        <time>2021-04-04T12:09:17Z</time>
      </trkpt>
      <trkpt lat="47.38212" lon="6.77242">
        <ele>365.44</ele>
        <time>2021-04-04T12:09:18Z</time>
      </trkpt>
      <trkpt lat="47.38208" lon="6.77089">
        <ele>364.96</ele>
        <time>2021-04-04T12:09:32Z</time>
      </trkpt>
      <trkpt lat="47.38206" lon="6.77068">
        <ele>365.44</ele>
        <time>2021-04-04T12:09:35Z</time>
      </trkpt>
      <trkpt lat="47.382" lon="6.7706">
        <ele>365.44</ele>
        <time>2021-04-04T12:09:37Z</time>
      </trkpt>
      <trkpt lat="47.38192" lon="6.77047">
        <ele>365.92</ele>
        <time>2021-04-04T12:09:40Z</time>
      </trkpt>
      <trkpt lat="47.3819" lon="6.77043">
        <ele>366.4</ele>
        <time>2021-04-04T12:09:41Z</time>
      </trkpt>
      <trkpt lat="47.3818" lon="6.77021">
        <ele>366.88</ele>
        <time>2021-04-04T12:09:45Z</time>
      </trkpt>
      <trkpt lat="47.38174" lon="6.77011">
        <ele>367.84</ele>
        <time>2021-04-04T12:09:47Z</time>
      </trkpt>
      <trkpt lat="47.3817" lon="6.77008">
        <ele>367.84</ele>
        <time>2021-04-04T12:09:48Z</time>
      </trkpt>
      <trkpt lat="47.38165" lon="6.77006">
        <ele>367.84</ele>
        <time>2021-04-04T12:09:49Z</time>
      </trkpt>
      <trkpt lat="47.3816" lon="6.77007">
        <ele>368.32</ele>
        <time>2021-04-04T12:09:50Z</time>
      </trkpt>
      <trkpt lat="47.38156" lon="6.77008">
        <ele>368.8</ele>
        <time>2021-04-04T12:09:51Z</time>
      </trkpt>
      <trkpt lat="47.38113" lon="6.77018">
        <ele>369.28</ele>
        <time>2021-04-04T12:10:03Z</time>
      </trkpt>
      <trkpt lat="47.38081" lon="6.77019">
        <ele>369.76</ele>
        <time>2021-04-04T12:10:10Z</time>
      </trkpt>
      <trkpt lat="47.38076" lon="6.77017">
        <ele>369.76</ele>
        <time>2021-04-04T12:10:11Z</time>
      </trkpt>
      <trkpt lat="47.38066" lon="6.77011">
        <ele>370.24</ele>
        <time>2021-04-04T12:10:13Z</time>
      </trkpt>
      <trkpt lat="47.38061" lon="6.77006">
        <ele>370.24</ele>
        <time>2021-04-04T12:10:14Z</time>
      </trkpt>
      <trkpt lat="47.38056" lon="6.77">
        <ele>370.24</ele>
        <time>2021-04-04T12:10:15Z</time>
      </trkpt>
      <trkpt lat="47.38052" lon="6.76993">
        <ele>370.24</ele>
        <time>2021-04-04T12:10:16Z</time>
      </trkpt>
      <trkpt lat="47.38047" lon="6.76985">
        <ele>371.21</ele>
        <time>2021-04-04T12:10:17Z</time>
      </trkpt>
      <trkpt lat="47.38044" lon="6.76978">
        <ele>371.69</ele>
        <time>2021-04-04T12:10:18Z</time>
      </trkpt>
      <trkpt lat="47.38042" lon="6.7697">
        <ele>371.69</ele>
        <time>2021-04-04T12:10:19Z</time>
      </trkpt>
      <trkpt lat="47.3804" lon="6.76962">
        <ele>371.69</ele>
        <time>2021-04-04T12:10:20Z</time>
      </trkpt>
      <trkpt lat="47.38038" lon="6.76955">
        <ele>371.69</ele>
        <time>2021-04-04T12:10:21Z</time>
      </trkpt>
      <trkpt lat="47.3803" lon="6.7692">
        <ele>372.65</ele>
        <time>2021-04-04T12:10:26Z</time>
      </trkpt>
      <trkpt lat="47.38011" lon="6.76849">
        <ele>374.09</ele>
        <time>2021-04-04T12:10:37Z</time>
      </trkpt>
      <trkpt lat="47.38008" lon="6.76844">
        <ele>374.57</ele>
        <time>2021-04-04T12:10:38Z</time>
      </trkpt>
      <trkpt lat="47.38004" lon="6.76839">
        <ele>374.57</ele>
        <time>2021-04-04T12:10:39Z</time>
      </trkpt>
      <trkpt lat="47.38" lon="6.76835">
        <ele>374.57</ele>
        <time>2021-04-04T12:10:40Z</time>
      </trkpt>
      <trkpt lat="47.37995" lon="6.76831">
        <ele>374.57</ele>
        <time>2021-04-04T12:10:41Z</time>
      </trkpt>
      <trkpt lat="47.37953" lon="6.76799">
        <ele>376.01</ele>
        <time>2021-04-04T12:10:50Z</time>
      </trkpt>
      <trkpt lat="47.37938" lon="6.7678">
        <ele>377.45</ele>
        <time>2021-04-04T12:10:54Z</time>
      </trkpt>
      <trkpt lat="47.37908" lon="6.76744">
        <ele>379.86</ele>
        <time>2021-04-04T12:11:02Z</time>
      </trkpt>
      <trkpt lat="47.37879" lon="6.76711">
        <ele>383.22</ele>
        <time>2021-04-04T12:11:10Z</time>
      </trkpt>
      <trkpt lat="47.37868" lon="6.76698">
        <ele>384.18</ele>
        <time>2021-04-04T12:11:13Z</time>
      </trkpt>
      <trkpt lat="47.37836" lon="6.76656">
        <ele>388.03</ele>
        <time>2021-04-04T12:11:22Z</time>
      </trkpt>
      <trkpt lat="47.37833" lon="6.76652">
        <ele>388.03</ele>
        <time>2021-04-04T12:11:23Z</time>
      </trkpt>
      <trkpt lat="47.3781" lon="6.76611">
        <ele>391.39</ele>
        <time>2021-04-04T12:11:31Z</time>
      </trkpt>
      <trkpt lat="47.37807" lon="6.76606">
        <ele>391.39</ele>
        <time>2021-04-04T12:11:32Z</time>
      </trkpt>
      <trkpt lat="47.37804" lon="6.76601">
        <ele>391.39</ele>
        <time>2021-04-04T12:11:33Z</time>
      </trkpt>
      <trkpt lat="47.37802" lon="6.76595">
        <ele>391.87</ele>
        <time>2021-04-04T12:11:34Z</time>
      </trkpt>
      <trkpt lat="47.378" lon="6.76588">
        <ele>392.36</ele>
        <time>2021-04-04T12:11:35Z</time>
      </trkpt>
      <trkpt lat="47.37799" lon="6.76582">
        <ele>392.36</ele>
        <time>2021-04-04T12:11:36Z</time>
      </trkpt>
      <trkpt lat="47.378" lon="6.76575">
        <ele>392.84</ele>
        <time>2021-04-04T12:11:37Z</time>
      </trkpt>
      <trkpt lat="47.37802" lon="6.76569">
        <ele>393.32</ele>
        <time>2021-04-04T12:11:38Z</time>
      </trkpt>
      <trkpt lat="47.37804" lon="6.76564">
        <ele>393.32</ele>
        <time>2021-04-04T12:11:39Z</time>
      </trkpt>
      <trkpt lat="47.37807" lon="6.76561">
        <ele>393.8</ele>
        <time>2021-04-04T12:11:40Z</time>
      </trkpt>
      <trkpt lat="47.3781" lon="6.76558">
        <ele>393.8</ele>
        <time>2021-04-04T12:11:41Z</time>
      </trkpt>
      <trkpt lat="47.37814" lon="6.76557">
        <ele>393.8</ele>
        <time>2021-04-04T12:11:42Z</time>
      </trkpt>
      <trkpt lat="47.37817" lon="6.76555">
        <ele>393.8</ele>
        <time>2021-04-04T12:11:43Z</time>
      </trkpt>
      <trkpt lat="47.3782" lon="6.76552">
        <ele>393.8</ele>
        <time>2021-04-04T12:11:44Z</time>
      </trkpt>
      <trkpt lat="47.37822" lon="6.76547">
        <ele>393.8</ele>
        <time>2021-04-04T12:11:45Z</time>
      </trkpt>
      <trkpt lat="47.37825" lon="6.76539">
        <ele>393.32</ele>
        <time>2021-04-04T12:11:46Z</time>
      </trkpt>
      <trkpt lat="47.37826" lon="6.7653">
        <ele>392.36</ele>
        <time>2021-04-04T12:11:47Z</time>
      </trkpt>
      <trkpt lat="47.37828" lon="6.76519">
        <ele>391.87</ele>
        <time>2021-04-04T12:11:48Z</time>
      </trkpt>
      <trkpt lat="47.37832" lon="6.76494">
        <ele>389.95</ele>
        <time>2021-04-04T12:11:50Z</time>
      </trkpt>
      <trkpt lat="47.37832" lon="6.7648">
        <ele>388.99</ele>
        <time>2021-04-04T12:11:51Z</time>
      </trkpt>
      <trkpt lat="47.3783" lon="6.76466">
        <ele>388.03</ele>
        <time>2021-04-04T12:11:52Z</time>
      </trkpt>
      <trkpt lat="47.37819" lon="6.76421">
        <ele>385.63</ele>
        <time>2021-04-04T12:11:55Z</time>
      </trkpt>
      <trkpt lat="47.37797" lon="6.76353">
        <ele>381.3</ele>
        <time>2021-04-04T12:12:00Z</time>
      </trkpt>
      <trkpt lat="47.37768" lon="6.76298">
        <ele>377.45</ele>
        <time>2021-04-04T12:12:05Z</time>
      </trkpt>
      <trkpt lat="47.37729" lon="6.7625">
        <ele>375.53</ele>
        <time>2021-04-04T12:12:10Z</time>
      </trkpt>
      <trkpt lat="47.37723" lon="6.76239">
        <ele>375.53</ele>
        <time>2021-04-04T12:12:11Z</time>
      </trkpt>
      <trkpt lat="47.37664" lon="6.76109">
        <ele>374.57</ele>
        <time>2021-04-04T12:12:24Z</time>
      </trkpt>
      <trkpt lat="47.37604" lon="6.76027">
        <ele>371.69</ele>
        <time>2021-04-04T12:12:34Z</time>
      </trkpt>
      <trkpt lat="47.37597" lon="6.76017">
        <ele>371.21</ele>
        <time>2021-04-04T12:12:35Z</time>
      </trkpt>
      <trkpt lat="47.37473" lon="6.75957">
        <ele>371.69</ele>
        <time>2021-04-04T12:12:50Z</time>
      </trkpt>
      <trkpt lat="47.37443" lon="6.75942">
        <ele>371.21</ele>
        <time>2021-04-04T12:12:54Z</time>
      </trkpt>
      <trkpt lat="47.37435" lon="6.75939">
        <ele>371.69</ele>
        <time>2021-04-04T12:12:55Z</time>
      </trkpt>
      <trkpt lat="47.37427" lon="6.75938">
        <ele>371.21</ele>
        <time>2021-04-04T12:12:56Z</time>
      </trkpt>
      <trkpt lat="47.3732" lon="6.75941">
        <ele>369.28</ele>
        <time>2021-04-04T12:13:09Z</time>
      </trkpt>
      <trkpt lat="47.37245" lon="6.75933">
        <ele>367.84</ele>
        <time>2021-04-04T12:13:19Z</time>
      </trkpt>
      <trkpt lat="47.37222" lon="6.75927">
        <ele>366.88</ele>
        <time>2021-04-04T12:13:24Z</time>
      </trkpt>
      <trkpt lat="47.37196" lon="6.7592">
        <ele>367.84</ele>
        <time>2021-04-04T12:13:28Z</time>
      </trkpt>
      <trkpt lat="47.37189" lon="6.75917">
        <ele>367.84</ele>
        <time>2021-04-04T12:13:29Z</time>
      </trkpt>
      <trkpt lat="47.37181" lon="6.75912">
        <ele>368.32</ele>
        <time>2021-04-04T12:13:30Z</time>
      </trkpt>
      <trkpt lat="47.37085" lon="6.75839">
        <ele>366.88</ele>
        <time>2021-04-04T12:13:42Z</time>
      </trkpt>
      <trkpt lat="47.36977" lon="6.75726">
        <ele>368.32</ele>
        <time>2021-04-04T12:13:57Z</time>
      </trkpt>
      <trkpt lat="47.36883" lon="6.75612">
        <ele>369.76</ele>
        <time>2021-04-04T12:14:12Z</time>
      </trkpt>
      <trkpt lat="47.36767" lon="6.75529">
        <ele>369.28</ele>
        <time>2021-04-04T12:14:28Z</time>
      </trkpt>
      <trkpt lat="47.36733" lon="6.75515">
        <ele>370.24</ele>
        <time>2021-04-04T12:14:33Z</time>
      </trkpt>
      <trkpt lat="47.36707" lon="6.75508">
        <ele>369.76</ele>
        <time>2021-04-04T12:14:37Z</time>
      </trkpt>
      <trkpt lat="47.36699" lon="6.75508">
        <ele>369.76</ele>
        <time>2021-04-04T12:14:38Z</time>
      </trkpt>
      <trkpt lat="47.36648" lon="6.75513">
        <ele>367.36</ele>
        <time>2021-04-04T12:14:44Z</time>
      </trkpt>
      <trkpt lat="47.3664" lon="6.75511">
        <ele>367.36</ele>
        <time>2021-04-04T12:14:45Z</time>
      </trkpt>
      <trkpt lat="47.36632" lon="6.75509">
        <ele>367.84</ele>
        <time>2021-04-04T12:14:46Z</time>
      </trkpt>
      <trkpt lat="47.36624" lon="6.75505">
        <ele>367.84</ele>
        <time>2021-04-04T12:14:47Z</time>
      </trkpt>
      <trkpt lat="47.36616" lon="6.75501">
        <ele>367.36</ele>
        <time>2021-04-04T12:14:48Z</time>
      </trkpt>
      <trkpt lat="47.36524" lon="6.75467">
        <ele>369.28</ele>
        <time>2021-04-04T12:15:01Z</time>
      </trkpt>
      <trkpt lat="47.36431" lon="6.7548">
        <ele>371.21</ele>
        <time>2021-04-04T12:15:15Z</time>
      </trkpt>
      <trkpt lat="47.36318" lon="6.75486">
        <ele>372.65</ele>
        <time>2021-04-04T12:15:32Z</time>
      </trkpt>
      <trkpt lat="47.36209" lon="6.75494">
        <ele>371.69</ele>
        <time>2021-04-04T12:15:48Z</time>
      </trkpt>
      <trkpt lat="47.36202" lon="6.75496">
        <ele>371.69</ele>
        <time>2021-04-04T12:15:49Z</time>
      </trkpt>
      <trkpt lat="47.36196" lon="6.755">
        <ele>371.69</ele>
        <time>2021-04-04T12:15:50Z</time>
      </trkpt>
      <trkpt lat="47.36191" lon="6.75506">
        <ele>372.17</ele>
        <time>2021-04-04T12:15:51Z</time>
      </trkpt>
      <trkpt lat="47.36186" lon="6.75513">
        <ele>371.69</ele>
        <time>2021-04-04T12:15:52Z</time>
      </trkpt>
      <trkpt lat="47.36181" lon="6.75521">
        <ele>371.69</ele>
        <time>2021-04-04T12:15:53Z</time>
      </trkpt>
      <trkpt lat="47.36176" lon="6.75528">
        <ele>371.69</ele>
        <time>2021-04-04T12:15:54Z</time>
      </trkpt>
      <trkpt lat="47.3617" lon="6.75535">
        <ele>371.69</ele>
        <time>2021-04-04T12:15:55Z</time>
      </trkpt>
      <trkpt lat="47.36158" lon="6.75545">
        <ele>371.69</ele>
        <time>2021-04-04T12:15:57Z</time>
      </trkpt>
      <trkpt lat="47.36152" lon="6.75549">
        <ele>371.69</ele>
        <time>2021-04-04T12:15:58Z</time>
      </trkpt>
      <trkpt lat="47.36145" lon="6.75552">
        <ele>372.65</ele>
        <time>2021-04-04T12:15:59Z</time>
      </trkpt>
      <trkpt lat="47.36139" lon="6.75554">
        <ele>372.65</ele>
        <time>2021-04-04T12:16:00Z</time>
      </trkpt>
      <trkpt lat="47.36132" lon="6.75555">
        <ele>372.17</ele>
        <time>2021-04-04T12:16:01Z</time>
      </trkpt>
      <trkpt lat="47.36112" lon="6.75555">
        <ele>372.65</ele>
        <time>2021-04-04T12:16:04Z</time>
      </trkpt>
      <trkpt lat="47.36062" lon="6.75549">
        <ele>371.21</ele>
        <time>2021-04-04T12:16:11Z</time>
      </trkpt>
      <trkpt lat="47.36055" lon="6.75552">
        <ele>371.21</ele>
        <time>2021-04-04T12:16:12Z</time>
      </trkpt>
      <trkpt lat="47.36048" lon="6.75557">
        <ele>370.73</ele>
        <time>2021-04-04T12:16:13Z</time>
      </trkpt>
      <trkpt lat="47.36041" lon="6.75564">
        <ele>370.24</ele>
        <time>2021-04-04T12:16:14Z</time>
      </trkpt>
      <trkpt lat="47.36034" lon="6.75572">
        <ele>369.76</ele>
        <time>2021-04-04T12:16:15Z</time>
      </trkpt>
      <trkpt lat="47.3601" lon="6.75603">
        <ele>369.28</ele>
        <time>2021-04-04T12:16:19Z</time>
      </trkpt>
      <trkpt lat="47.36003" lon="6.75609">
        <ele>369.76</ele>
        <time>2021-04-04T12:16:20Z</time>
      </trkpt>
      <trkpt lat="47.35915" lon="6.75678">
        <ele>371.69</ele>
        <time>2021-04-04T12:16:33Z</time>
      </trkpt>
      <trkpt lat="47.35823" lon="6.7575">
        <ele>371.69</ele>
        <time>2021-04-04T12:16:47Z</time>
      </trkpt>
      <trkpt lat="47.35734" lon="6.758">
        <ele>372.65</ele>
        <time>2021-04-04T12:17:00Z</time>
      </trkpt>
      <trkpt lat="47.35645" lon="6.75822">
        <ele>373.61</ele>
        <time>2021-04-04T12:17:12Z</time>
      </trkpt>
      <trkpt lat="47.35618" lon="6.75831">
        <ele>374.09</ele>
        <time>2021-04-04T12:17:16Z</time>
      </trkpt>
      <trkpt lat="47.35535" lon="6.75875">
        <ele>374.57</ele>
        <time>2021-04-04T12:17:28Z</time>
      </trkpt>
      <trkpt lat="47.35453" lon="6.75878">
        <ele>374.57</ele>
        <time>2021-04-04T12:17:39Z</time>
      </trkpt>
      <trkpt lat="47.35327" lon="6.75871">
        <ele>376.01</ele>
        <time>2021-04-04T12:17:56Z</time>
      </trkpt>
      <trkpt lat="47.3519" lon="6.75864">
        <ele>376.49</ele>
        <time>2021-04-04T12:18:14Z</time>
      </trkpt>
      <trkpt lat="47.35146" lon="6.75864">
        <ele>376.97</ele>
        <time>2021-04-04T12:18:20Z</time>
      </trkpt>
      <trkpt lat="47.35139" lon="6.75866">
        <ele>376.97</ele>
        <time>2021-04-04T12:18:21Z</time>
      </trkpt>
      <trkpt lat="47.35033" lon="6.75864">
        <ele>376.49</ele>
        <time>2021-04-04T12:18:36Z</time>
      </trkpt>
      <trkpt lat="47.35013" lon="6.75862">
        <ele>376.01</ele>
        <time>2021-04-04T12:18:44Z</time>
      </trkpt>
      <trkpt lat="47.35013" lon="6.75864">
        <ele>376.01</ele>
        <time>2021-04-04T12:19:01Z</time>
      </trkpt>
      <trkpt lat="47.35019" lon="6.7586">
        <ele>375.53</ele>
        <time>2021-04-04T12:19:27Z</time>
      </trkpt>
      <trkpt lat="47.3502" lon="6.75856">
        <ele>375.53</ele>
        <time>2021-04-04T12:19:51Z</time>
      </trkpt>
      <trkpt lat="47.35016" lon="6.7586">
        <ele>376.01</ele>
        <time>2021-04-04T12:20:16Z</time>
      </trkpt>
      <trkpt lat="47.3501" lon="6.75863">
        <ele>376.01</ele>
        <time>2021-04-04T12:20:45Z</time>
      </trkpt>
      <trkpt lat="47.35008" lon="6.75865">
        <ele>375.53</ele>
        <time>2021-04-04T12:21:11Z</time>
      </trkpt>
      <trkpt lat="47.35012" lon="6.75859">
        <ele>375.05</ele>
        <time>2021-04-04T12:21:36Z</time>
      </trkpt>
      <trkpt lat="47.35" lon="6.75852">
        <ele>375.05</ele>
        <time>2021-04-04T12:21:48Z</time>
      </trkpt>
      <trkpt lat="47.34985" lon="6.75852">
        <ele>375.05</ele>
        <time>2021-04-04T12:21:52Z</time>
      </trkpt>
      <trkpt lat="47.34981" lon="6.75851">
        <ele>374.57</ele>
        <time>2021-04-04T12:21:53Z</time>
      </trkpt>
      <trkpt lat="47.34977" lon="6.75849">
        <ele>374.57</ele>
        <time>2021-04-04T12:21:54Z</time>
      </trkpt>
      <trkpt lat="47.34908" lon="6.75812">
        <ele>376.97</ele>
        <time>2021-04-04T12:22:07Z</time>
      </trkpt>
      <trkpt lat="47.34887" lon="6.75791">
        <ele>375.53</ele>
        <time>2021-04-04T12:22:11Z</time>
      </trkpt>
      <trkpt lat="47.34876" lon="6.75778">
        <ele>377.45</ele>
        <time>2021-04-04T12:22:13Z</time>
      </trkpt>
      <trkpt lat="47.34872" lon="6.75771">
        <ele>376.97</ele>
        <time>2021-04-04T12:22:14Z</time>
      </trkpt>
      <trkpt lat="47.34858" lon="6.75749">
        <ele>376.49</ele>
        <time>2021-04-04T12:22:17Z</time>
      </trkpt>
      <trkpt lat="47.34854" lon="6.75741">
        <ele>376.49</ele>
        <time>2021-04-04T12:22:18Z</time>
      </trkpt>
      <trkpt lat="47.34852" lon="6.75732">
        <ele>376.97</ele>
        <time>2021-04-04T12:22:19Z</time>
      </trkpt>
      <trkpt lat="47.3485" lon="6.75723">
        <ele>376.97</ele>
        <time>2021-04-04T12:22:20Z</time>
      </trkpt>
      <trkpt lat="47.3485" lon="6.75714">
        <ele>376.97</ele>
        <time>2021-04-04T12:22:21Z</time>
      </trkpt>
      <trkpt lat="47.34853" lon="6.75705">
        <ele>376.49</ele>
        <time>2021-04-04T12:22:22Z</time>
      </trkpt>
      <trkpt lat="47.34856" lon="6.75697">
        <ele>376.97</ele>
        <time>2021-04-04T12:22:23Z</time>
      </trkpt>
      <trkpt lat="47.3486" lon="6.75689">
        <ele>377.45</ele>
        <time>2021-04-04T12:22:24Z</time>
      </trkpt>
      <trkpt lat="47.34889" lon="6.75625">
        <ele>379.38</ele>
        <time>2021-04-04T12:22:32Z</time>
      </trkpt>
      <trkpt lat="47.34892" lon="6.75616">
        <ele>378.9</ele>
        <time>2021-04-04T12:22:33Z</time>
      </trkpt>
      <trkpt lat="47.34897" lon="6.75576">
        <ele>377.94</ele>
        <time>2021-04-04T12:22:37Z</time>
      </trkpt>
      <trkpt lat="47.34897" lon="6.75566">
        <ele>377.94</ele>
        <time>2021-04-04T12:22:38Z</time>
      </trkpt>
      <trkpt lat="47.34897" lon="6.75556">
        <ele>377.45</ele>
        <time>2021-04-04T12:22:39Z</time>
      </trkpt>
      <trkpt lat="47.34896" lon="6.75545">
        <ele>377.45</ele>
        <time>2021-04-04T12:22:40Z</time>
      </trkpt>
      <trkpt lat="47.34894" lon="6.75536">
        <ele>377.45</ele>
        <time>2021-04-04T12:22:41Z</time>
      </trkpt>
      <trkpt lat="47.34884" lon="6.75488">
        <ele>377.94</ele>
        <time>2021-04-04T12:22:46Z</time>
      </trkpt>
      <trkpt lat="47.34841" lon="6.75325">
        <ele>378.9</ele>
        <time>2021-04-04T12:23:03Z</time>
      </trkpt>
      <trkpt lat="47.34802" lon="6.75128">
        <ele>379.86</ele>
        <time>2021-04-04T12:23:24Z</time>
      </trkpt>
      <trkpt lat="47.34793" lon="6.74929">
        <ele>380.34</ele>
        <time>2021-04-04T12:23:44Z</time>
      </trkpt>
      <trkpt lat="47.34785" lon="6.74782">
        <ele>383.7</ele>
        <time>2021-04-04T12:23:59Z</time>
      </trkpt>
      <trkpt lat="47.34761" lon="6.74692">
        <ele>387.07</ele>
        <time>2021-04-04T12:24:10Z</time>
      </trkpt>
      <trkpt lat="47.34755" lon="6.74678">
        <ele>387.07</ele>
        <time>2021-04-04T12:24:12Z</time>
      </trkpt>
      <trkpt lat="47.34698" lon="6.74556">
        <ele>389.95</ele>
        <time>2021-04-04T12:24:28Z</time>
      </trkpt>
      <trkpt lat="47.34641" lon="6.74424">
        <ele>392.84</ele>
        <time>2021-04-04T12:24:45Z</time>
      </trkpt>
      <trkpt lat="47.34569" lon="6.74319">
        <ele>393.32</ele>
        <time>2021-04-04T12:25:01Z</time>
      </trkpt>
      <trkpt lat="47.34495" lon="6.74232">
        <ele>392.84</ele>
        <time>2021-04-04T12:25:14Z</time>
      </trkpt>
      <trkpt lat="47.34432" lon="6.74143">
        <ele>393.8</ele>
        <time>2021-04-04T12:25:27Z</time>
      </trkpt>
      <trkpt lat="47.34427" lon="6.74137">
        <ele>393.8</ele>
        <time>2021-04-04T12:25:28Z</time>
      </trkpt>
      <trkpt lat="47.34327" lon="6.74002">
        <ele>393.8</ele>
        <time>2021-04-04T12:25:47Z</time>
      </trkpt>
      <trkpt lat="47.34246" lon="6.739">
        <ele>392.36</ele>
        <time>2021-04-04T12:26:01Z</time>
      </trkpt>
      <trkpt lat="47.34223" lon="6.73875">
        <ele>394.28</ele>
        <time>2021-04-04T12:26:05Z</time>
      </trkpt>
      <trkpt lat="47.34154" lon="6.73771">
        <ele>396.68</ele>
        <time>2021-04-04T12:26:19Z</time>
      </trkpt>
      <trkpt lat="47.34117" lon="6.73695">
        <ele>397.64</ele>
        <time>2021-04-04T12:26:28Z</time>
      </trkpt>
      <trkpt lat="47.34103" lon="6.7364">
        <ele>399.08</ele>
        <time>2021-04-04T12:26:34Z</time>
      </trkpt>
      <trkpt lat="47.34103" lon="6.7363">
        <ele>399.57</ele>
        <time>2021-04-04T12:26:35Z</time>
      </trkpt>
      <trkpt lat="47.34105" lon="6.7362">
        <ele>399.57</ele>
        <time>2021-04-04T12:26:36Z</time>
      </trkpt>
      <trkpt lat="47.34107" lon="6.7361">
        <ele>400.05</ele>
        <time>2021-04-04T12:26:37Z</time>
      </trkpt>
      <trkpt lat="47.34109" lon="6.73599">
        <ele>400.05</ele>
        <time>2021-04-04T12:26:38Z</time>
      </trkpt>
      <trkpt lat="47.34113" lon="6.7359">
        <ele>400.53</ele>
        <time>2021-04-04T12:26:39Z</time>
      </trkpt>
      <trkpt lat="47.34116" lon="6.7358">
        <ele>400.53</ele>
        <time>2021-04-04T12:26:40Z</time>
      </trkpt>
      <trkpt lat="47.34137" lon="6.73521">
        <ele>401.97</ele>
        <time>2021-04-04T12:26:47Z</time>
      </trkpt>
      <trkpt lat="47.34151" lon="6.73461">
        <ele>401.01</ele>
        <time>2021-04-04T12:26:53Z</time>
      </trkpt>
      <trkpt lat="47.34152" lon="6.7345">
        <ele>401.49</ele>
        <time>2021-04-04T12:26:54Z</time>
      </trkpt>
      <trkpt lat="47.34142" lon="6.73294">
        <ele>400.05</ele>
        <time>2021-04-04T12:27:08Z</time>
      </trkpt>
      <trkpt lat="47.34125" lon="6.73219">
        <ele>402.45</ele>
        <time>2021-04-04T12:27:16Z</time>
      </trkpt>
      <trkpt lat="47.34076" lon="6.73091">
        <ele>404.37</ele>
        <time>2021-04-04T12:27:31Z</time>
      </trkpt>
      <trkpt lat="47.34064" lon="6.7303">
        <ele>407.74</ele>
        <time>2021-04-04T12:27:38Z</time>
      </trkpt>
      <trkpt lat="47.34042" lon="6.7291">
        <ele>408.22</ele>
        <time>2021-04-04T12:27:51Z</time>
      </trkpt>
      <trkpt lat="47.34041" lon="6.72901">
        <ele>408.22</ele>
        <time>2021-04-04T12:27:52Z</time>
      </trkpt>
      <trkpt lat="47.34035" lon="6.72874">
        <ele>408.22</ele>
        <time>2021-04-04T12:27:55Z</time>
      </trkpt>
      <trkpt lat="47.34032" lon="6.72844">
        <ele>408.7</ele>
        <time>2021-04-04T12:27:58Z</time>
      </trkpt>
      <trkpt lat="47.34033" lon="6.72824">
        <ele>408.7</ele>
        <time>2021-04-04T12:28:00Z</time>
      </trkpt>
      <trkpt lat="47.34034" lon="6.72813">
        <ele>408.7</ele>
        <time>2021-04-04T12:28:01Z</time>
      </trkpt>
      <trkpt lat="47.34051" lon="6.7272">
        <ele>409.18</ele>
        <time>2021-04-04T12:28:10Z</time>
      </trkpt>
      <trkpt lat="47.34052" lon="6.72711">
        <ele>409.18</ele>
        <time>2021-04-04T12:28:11Z</time>
      </trkpt>
      <trkpt lat="47.34055" lon="6.72691">
        <ele>409.18</ele>
        <time>2021-04-04T12:28:13Z</time>
      </trkpt>
      <trkpt lat="47.3409" lon="6.72562">
        <ele>409.18</ele>
        <time>2021-04-04T12:28:27Z</time>
      </trkpt>
      <trkpt lat="47.34124" lon="6.7246">
        <ele>408.22</ele>
        <time>2021-04-04T12:28:39Z</time>
      </trkpt>
      <trkpt lat="47.34138" lon="6.72376">
        <ele>408.7</ele>
        <time>2021-04-04T12:28:49Z</time>
      </trkpt>
      <trkpt lat="47.34138" lon="6.72356">
        <ele>408.7</ele>
        <time>2021-04-04T12:28:51Z</time>
      </trkpt>
      <trkpt lat="47.34137" lon="6.72346">
        <ele>409.18</ele>
        <time>2021-04-04T12:28:52Z</time>
      </trkpt>
      <trkpt lat="47.34136" lon="6.72336">
        <ele>408.7</ele>
        <time>2021-04-04T12:28:53Z</time>
      </trkpt>
      <trkpt lat="47.34131" lon="6.72264">
        <ele>411.58</ele>
        <time>2021-04-04T12:29:01Z</time>
      </trkpt>
      <trkpt lat="47.34125" lon="6.72239">
        <ele>411.58</ele>
        <time>2021-04-04T12:29:04Z</time>
      </trkpt>
      <trkpt lat="47.34122" lon="6.72231">
        <ele>411.58</ele>
        <time>2021-04-04T12:29:05Z</time>
      </trkpt>
      <trkpt lat="47.34115" lon="6.72213">
        <ele>411.58</ele>
        <time>2021-04-04T12:29:07Z</time>
      </trkpt>
      <trkpt lat="47.34111" lon="6.72204">
        <ele>411.1</ele>
        <time>2021-04-04T12:29:08Z</time>
      </trkpt>
      <trkpt lat="47.34096" lon="6.72157">
        <ele>410.62</ele>
        <time>2021-04-04T12:29:13Z</time>
      </trkpt>
      <trkpt lat="47.34094" lon="6.72147">
        <ele>410.14</ele>
        <time>2021-04-04T12:29:14Z</time>
      </trkpt>
      <trkpt lat="47.34094" lon="6.72136">
        <ele>410.14</ele>
        <time>2021-04-04T12:29:15Z</time>
      </trkpt>
      <trkpt lat="47.34092" lon="6.72106">
        <ele>410.14</ele>
        <time>2021-04-04T12:29:18Z</time>
      </trkpt>
      <trkpt lat="47.34094" lon="6.72034">
        <ele>410.62</ele>
        <time>2021-04-04T12:29:25Z</time>
      </trkpt>
      <trkpt lat="47.34094" lon="6.72023">
        <ele>411.1</ele>
        <time>2021-04-04T12:29:26Z</time>
      </trkpt>
      <trkpt lat="47.34093" lon="6.72013">
        <ele>411.1</ele>
        <time>2021-04-04T12:29:27Z</time>
      </trkpt>
      <trkpt lat="47.34092" lon="6.72003">
        <ele>411.58</ele>
        <time>2021-04-04T12:29:28Z</time>
      </trkpt>
      <trkpt lat="47.3409" lon="6.71994">
        <ele>411.58</ele>
        <time>2021-04-04T12:29:29Z</time>
      </trkpt>
      <trkpt lat="47.3406" lon="6.71886">
        <ele>414.47</ele>
        <time>2021-04-04T12:29:41Z</time>
      </trkpt>
      <trkpt lat="47.3404" lon="6.71801">
        <ele>414.95</ele>
        <time>2021-04-04T12:29:51Z</time>
      </trkpt>
      <trkpt lat="47.34036" lon="6.71793">
        <ele>414.95</ele>
        <time>2021-04-04T12:29:52Z</time>
      </trkpt>
      <trkpt lat="47.34032" lon="6.71785">
        <ele>414.47</ele>
        <time>2021-04-04T12:29:53Z</time>
      </trkpt>
      <trkpt lat="47.34027" lon="6.71778">
        <ele>414.95</ele>
        <time>2021-04-04T12:29:54Z</time>
      </trkpt>
      <trkpt lat="47.34022" lon="6.71772">
        <ele>414.95</ele>
        <time>2021-04-04T12:29:55Z</time>
      </trkpt>
      <trkpt lat="47.34017" lon="6.71766">
        <ele>414.95</ele>
        <time>2021-04-04T12:29:56Z</time>
      </trkpt>
      <trkpt lat="47.33965" lon="6.71731">
        <ele>415.43</ele>
        <time>2021-04-04T12:30:05Z</time>
      </trkpt>
      <trkpt lat="47.33959" lon="6.71728">
        <ele>415.91</ele>
        <time>2021-04-04T12:30:06Z</time>
      </trkpt>
      <trkpt lat="47.33952" lon="6.71726">
        <ele>415.91</ele>
        <time>2021-04-04T12:30:07Z</time>
      </trkpt>
      <trkpt lat="47.33888" lon="6.71709">
        <ele>417.35</ele>
        <time>2021-04-04T12:30:17Z</time>
      </trkpt>
      <trkpt lat="47.33869" lon="6.71704">
        <ele>417.83</ele>
        <time>2021-04-04T12:30:20Z</time>
      </trkpt>
      <trkpt lat="47.33776" lon="6.71683">
        <ele>420.23</ele>
        <time>2021-04-04T12:30:34Z</time>
      </trkpt>
      <trkpt lat="47.33706" lon="6.71665">
        <ele>422.64</ele>
        <time>2021-04-04T12:30:45Z</time>
      </trkpt>
      <trkpt lat="47.33699" lon="6.71664">
        <ele>422.64</ele>
        <time>2021-04-04T12:30:46Z</time>
      </trkpt>
      <trkpt lat="47.33597" lon="6.71657">
        <ele>424.08</ele>
        <time>2021-04-04T12:31:01Z</time>
      </trkpt>
      <trkpt lat="47.33506" lon="6.71645">
        <ele>425.04</ele>
        <time>2021-04-04T12:31:15Z</time>
      </trkpt>
      <trkpt lat="47.3347" lon="6.7163">
        <ele>425.04</ele>
        <time>2021-04-04T12:31:20Z</time>
      </trkpt>
      <trkpt lat="47.3338" lon="6.71552">
        <ele>424.08</ele>
        <time>2021-04-04T12:31:34Z</time>
      </trkpt>
      <trkpt lat="47.33374" lon="6.71546">
        <ele>424.56</ele>
        <time>2021-04-04T12:31:35Z</time>
      </trkpt>
      <trkpt lat="47.33336" lon="6.71496">
        <ele>425.52</ele>
        <time>2021-04-04T12:31:43Z</time>
      </trkpt>
      <trkpt lat="47.33332" lon="6.7149">
        <ele>426</ele>
        <time>2021-04-04T12:31:44Z</time>
      </trkpt>
      <trkpt lat="47.33328" lon="6.71484">
        <ele>425.52</ele>
        <time>2021-04-04T12:31:45Z</time>
      </trkpt>
      <trkpt lat="47.33324" lon="6.71476">
        <ele>425.52</ele>
        <time>2021-04-04T12:31:46Z</time>
      </trkpt>
      <trkpt lat="47.33321" lon="6.71469">
        <ele>425.52</ele>
        <time>2021-04-04T12:31:47Z</time>
      </trkpt>
      <trkpt lat="47.33319" lon="6.7146">
        <ele>425.52</ele>
        <time>2021-04-04T12:31:48Z</time>
      </trkpt>
      <trkpt lat="47.3332" lon="6.71389">
        <ele>426.48</ele>
        <time>2021-04-04T12:31:56Z</time>
      </trkpt>
      <trkpt lat="47.33326" lon="6.71235">
        <ele>427.44</ele>
        <time>2021-04-04T12:32:11Z</time>
      </trkpt>
      <trkpt lat="47.33301" lon="6.71101">
        <ele>429.37</ele>
        <time>2021-04-04T12:32:25Z</time>
      </trkpt>
      <trkpt lat="47.33277" lon="6.7103">
        <ele>429.85</ele>
        <time>2021-04-04T12:32:33Z</time>
      </trkpt>
      <trkpt lat="47.33203" lon="6.70875">
        <ele>430.33</ele>
        <time>2021-04-04T12:32:52Z</time>
      </trkpt>
      <trkpt lat="47.33171" lon="6.70778">
        <ele>431.29</ele>
        <time>2021-04-04T12:33:03Z</time>
      </trkpt>
      <trkpt lat="47.3317" lon="6.70768">
        <ele>431.77</ele>
        <time>2021-04-04T12:33:04Z</time>
      </trkpt>
      <trkpt lat="47.3317" lon="6.70718">
        <ele>431.77</ele>
        <time>2021-04-04T12:33:09Z</time>
      </trkpt>
      <trkpt lat="47.3317" lon="6.70709">
        <ele>431.77</ele>
        <time>2021-04-04T12:33:10Z</time>
      </trkpt>
      <trkpt lat="47.3317" lon="6.7067">
        <ele>432.25</ele>
        <time>2021-04-04T12:33:14Z</time>
      </trkpt>
      <trkpt lat="47.33177" lon="6.70621">
        <ele>432.73</ele>
        <time>2021-04-04T12:33:19Z</time>
      </trkpt>
      <trkpt lat="47.33183" lon="6.70591">
        <ele>432.73</ele>
        <time>2021-04-04T12:33:22Z</time>
      </trkpt>
      <trkpt lat="47.33186" lon="6.70581">
        <ele>433.21</ele>
        <time>2021-04-04T12:33:23Z</time>
      </trkpt>
      <trkpt lat="47.33188" lon="6.70571">
        <ele>433.21</ele>
        <time>2021-04-04T12:33:24Z</time>
      </trkpt>
      <trkpt lat="47.332" lon="6.70525">
        <ele>434.17</ele>
        <time>2021-04-04T12:33:29Z</time>
      </trkpt>
      <trkpt lat="47.33203" lon="6.70516">
        <ele>434.17</ele>
        <time>2021-04-04T12:33:30Z</time>
      </trkpt>
      <trkpt lat="47.33207" lon="6.70508">
        <ele>434.17</ele>
        <time>2021-04-04T12:33:31Z</time>
      </trkpt>
      <trkpt lat="47.33262" lon="6.70386">
        <ele>437.54</ele>
        <time>2021-04-04T12:33:46Z</time>
      </trkpt>
      <trkpt lat="47.33276" lon="6.7034">
        <ele>438.02</ele>
        <time>2021-04-04T12:33:51Z</time>
      </trkpt>
      <trkpt lat="47.33279" lon="6.70311">
        <ele>438.02</ele>
        <time>2021-04-04T12:33:54Z</time>
      </trkpt>
      <trkpt lat="47.33279" lon="6.70302">
        <ele>438.02</ele>
        <time>2021-04-04T12:33:55Z</time>
      </trkpt>
      <trkpt lat="47.33278" lon="6.70293">
        <ele>438.02</ele>
        <time>2021-04-04T12:33:56Z</time>
      </trkpt>
      <trkpt lat="47.33257" lon="6.70182">
        <ele>438.98</ele>
        <time>2021-04-04T12:34:08Z</time>
      </trkpt>
      <trkpt lat="47.33254" lon="6.70173">
        <ele>438.98</ele>
        <time>2021-04-04T12:34:09Z</time>
      </trkpt>
      <trkpt lat="47.33251" lon="6.70164">
        <ele>439.46</ele>
        <time>2021-04-04T12:34:10Z</time>
      </trkpt>
      <trkpt lat="47.33225" lon="6.70079">
        <ele>440.9</ele>
        <time>2021-04-04T12:34:20Z</time>
      </trkpt>
      <trkpt lat="47.33223" lon="6.7007">
        <ele>440.42</ele>
        <time>2021-04-04T12:34:21Z</time>
      </trkpt>
      <trkpt lat="47.33187" lon="6.69925">
        <ele>441.38</ele>
        <time>2021-04-04T12:34:37Z</time>
      </trkpt>
      <trkpt lat="47.33144" lon="6.69809">
        <ele>441.86</ele>
        <time>2021-04-04T12:34:51Z</time>
      </trkpt>
      <trkpt lat="47.33104" lon="6.6968">
        <ele>443.31</ele>
        <time>2021-04-04T12:35:05Z</time>
      </trkpt>
      <trkpt lat="47.33096" lon="6.69572">
        <ele>443.79</ele>
        <time>2021-04-04T12:35:16Z</time>
      </trkpt>
      <trkpt lat="47.33098" lon="6.69532">
        <ele>443.79</ele>
        <time>2021-04-04T12:35:20Z</time>
      </trkpt>
      <trkpt lat="47.3313" lon="6.6941">
        <ele>445.23</ele>
        <time>2021-04-04T12:35:34Z</time>
      </trkpt>
      <trkpt lat="47.33142" lon="6.69348">
        <ele>445.71</ele>
        <time>2021-04-04T12:35:41Z</time>
      </trkpt>
      <trkpt lat="47.33141" lon="6.6931">
        <ele>446.19</ele>
        <time>2021-04-04T12:35:45Z</time>
      </trkpt>
      <trkpt lat="47.3311" lon="6.69198">
        <ele>447.15</ele>
        <time>2021-04-04T12:35:58Z</time>
      </trkpt>
      <trkpt lat="47.33109" lon="6.69189">
        <ele>447.15</ele>
        <time>2021-04-04T12:35:59Z</time>
      </trkpt>
      <trkpt lat="47.33109" lon="6.6918">
        <ele>447.15</ele>
        <time>2021-04-04T12:36:00Z</time>
      </trkpt>
      <trkpt lat="47.33109" lon="6.6917">
        <ele>447.63</ele>
        <time>2021-04-04T12:36:01Z</time>
      </trkpt>
      <trkpt lat="47.33111" lon="6.69142">
        <ele>448.11</ele>
        <time>2021-04-04T12:36:04Z</time>
      </trkpt>
      <trkpt lat="47.33123" lon="6.69075">
        <ele>447.15</ele>
        <time>2021-04-04T12:36:12Z</time>
      </trkpt>
      <trkpt lat="47.33122" lon="6.69068">
        <ele>447.15</ele>
        <time>2021-04-04T12:36:13Z</time>
      </trkpt>
      <trkpt lat="47.33118" lon="6.69062">
        <ele>448.59</ele>
        <time>2021-04-04T12:36:14Z</time>
      </trkpt>
      <trkpt lat="47.33114" lon="6.6906">
        <ele>448.11</ele>
        <time>2021-04-04T12:36:15Z</time>
      </trkpt>
      <trkpt lat="47.33109" lon="6.69059">
        <ele>447.63</ele>
        <time>2021-04-04T12:36:16Z</time>
      </trkpt>
      <trkpt lat="47.33105" lon="6.69059">
        <ele>447.63</ele>
        <time>2021-04-04T12:36:17Z</time>
      </trkpt>
      <trkpt lat="47.33075" lon="6.69057">
        <ele>451</ele>
        <time>2021-04-04T12:36:26Z</time>
      </trkpt>
      <trkpt lat="47.33045" lon="6.69051">
        <ele>453.88</ele>
        <time>2021-04-04T12:36:38Z</time>
      </trkpt>
      <trkpt lat="47.3302" lon="6.69032">
        <ele>456.76</ele>
        <time>2021-04-04T12:36:50Z</time>
      </trkpt>
      <trkpt lat="47.32985" lon="6.69007">
        <ele>460.13</ele>
        <time>2021-04-04T12:37:03Z</time>
      </trkpt>
      <trkpt lat="47.32945" lon="6.68983">
        <ele>463.49</ele>
        <time>2021-04-04T12:37:17Z</time>
      </trkpt>
      <trkpt lat="47.32925" lon="6.68969">
        <ele>464.93</ele>
        <time>2021-04-04T12:37:26Z</time>
      </trkpt>
      <trkpt lat="47.32891" lon="6.68971">
        <ele>466.86</ele>
        <time>2021-04-04T12:37:37Z</time>
      </trkpt>
      <trkpt lat="47.32858" lon="6.68962">
        <ele>470.22</ele>
        <time>2021-04-04T12:37:51Z</time>
      </trkpt>
      <trkpt lat="47.32839" lon="6.6896">
        <ele>472.14</ele>
        <time>2021-04-04T12:37:58Z</time>
      </trkpt>
      <trkpt lat="47.32837" lon="6.6896">
        <ele>472.14</ele>
        <time>2021-04-04T12:37:59Z</time>
      </trkpt>
      <trkpt lat="47.32834" lon="6.6896">
        <ele>472.63</ele>
        <time>2021-04-04T12:38:00Z</time>
      </trkpt>
      <trkpt lat="47.32832" lon="6.6896">
        <ele>472.63</ele>
        <time>2021-04-04T12:38:01Z</time>
      </trkpt>
      <trkpt lat="47.32829" lon="6.6896">
        <ele>473.11</ele>
        <time>2021-04-04T12:38:02Z</time>
      </trkpt>
      <trkpt lat="47.328" lon="6.68967">
        <ele>476.47</ele>
        <time>2021-04-04T12:38:11Z</time>
      </trkpt>
      <trkpt lat="47.32797" lon="6.68968">
        <ele>476.47</ele>
        <time>2021-04-04T12:38:12Z</time>
      </trkpt>
      <trkpt lat="47.32761" lon="6.68978">
        <ele>479.84</ele>
        <time>2021-04-04T12:38:25Z</time>
      </trkpt>
      <trkpt lat="47.32733" lon="6.68985">
        <ele>482.72</ele>
        <time>2021-04-04T12:38:36Z</time>
      </trkpt>
      <trkpt lat="47.3273" lon="6.68985">
        <ele>482.72</ele>
        <time>2021-04-04T12:38:37Z</time>
      </trkpt>
      <trkpt lat="47.32727" lon="6.68984">
        <ele>482.72</ele>
        <time>2021-04-04T12:38:38Z</time>
      </trkpt>
      <trkpt lat="47.32701" lon="6.68985">
        <ele>485.12</ele>
        <time>2021-04-04T12:38:50Z</time>
      </trkpt>
      <trkpt lat="47.32691" lon="6.68987">
        <ele>485.12</ele>
        <time>2021-04-04T12:39:15Z</time>
      </trkpt>
      <trkpt lat="47.32673" lon="6.68985">
        <ele>486.56</ele>
        <time>2021-04-04T12:39:27Z</time>
      </trkpt>
      <trkpt lat="47.32647" lon="6.68975">
        <ele>489.45</ele>
        <time>2021-04-04T12:39:38Z</time>
      </trkpt>
      <trkpt lat="47.32613" lon="6.6896">
        <ele>492.81</ele>
        <time>2021-04-04T12:39:50Z</time>
      </trkpt>
      <trkpt lat="47.32582" lon="6.6894">
        <ele>495.22</ele>
        <time>2021-04-04T12:40:00Z</time>
      </trkpt>
      <trkpt lat="47.32539" lon="6.68897">
        <ele>498.1</ele>
        <time>2021-04-04T12:40:14Z</time>
      </trkpt>
      <trkpt lat="47.32496" lon="6.68859">
        <ele>500.5</ele>
        <time>2021-04-04T12:40:28Z</time>
      </trkpt>
      <trkpt lat="47.32457" lon="6.68818">
        <ele>503.87</ele>
        <time>2021-04-04T12:40:42Z</time>
      </trkpt>
      <trkpt lat="47.32423" lon="6.68773">
        <ele>506.75</ele>
        <time>2021-04-04T12:40:56Z</time>
      </trkpt>
      <trkpt lat="47.32399" lon="6.68728">
        <ele>510.12</ele>
        <time>2021-04-04T12:41:08Z</time>
      </trkpt>
      <trkpt lat="47.3238" lon="6.68689">
        <ele>513</ele>
        <time>2021-04-04T12:41:19Z</time>
      </trkpt>
      <trkpt lat="47.32348" lon="6.68644">
        <ele>515.88</ele>
        <time>2021-04-04T12:41:33Z</time>
      </trkpt>
      <trkpt lat="47.32311" lon="6.68605">
        <ele>518.77</ele>
        <time>2021-04-04T12:41:47Z</time>
      </trkpt>
      <trkpt lat="47.32286" lon="6.68579">
        <ele>520.69</ele>
        <time>2021-04-04T12:41:58Z</time>
      </trkpt>
      <trkpt lat="47.32286" lon="6.68576">
        <ele>521.17</ele>
        <time>2021-04-04T12:41:59Z</time>
      </trkpt>
      <trkpt lat="47.32286" lon="6.68573">
        <ele>521.17</ele>
        <time>2021-04-04T12:42:00Z</time>
      </trkpt>
      <trkpt lat="47.32287" lon="6.6857">
        <ele>521.65</ele>
        <time>2021-04-04T12:42:01Z</time>
      </trkpt>
      <trkpt lat="47.32289" lon="6.68568">
        <ele>522.13</ele>
        <time>2021-04-04T12:42:02Z</time>
      </trkpt>
      <trkpt lat="47.32291" lon="6.68568">
        <ele>522.13</ele>
        <time>2021-04-04T12:42:03Z</time>
      </trkpt>
      <trkpt lat="47.32294" lon="6.68568">
        <ele>522.61</ele>
        <time>2021-04-04T12:42:04Z</time>
      </trkpt>
      <trkpt lat="47.32296" lon="6.68569">
        <ele>523.09</ele>
        <time>2021-04-04T12:42:05Z</time>
      </trkpt>
      <trkpt lat="47.32298" lon="6.6857">
        <ele>523.09</ele>
        <time>2021-04-04T12:42:06Z</time>
      </trkpt>
      <trkpt lat="47.32302" lon="6.68571">
        <ele>523.58</ele>
        <time>2021-04-04T12:42:07Z</time>
      </trkpt>
      <trkpt lat="47.32336" lon="6.68601">
        <ele>526.46</ele>
        <time>2021-04-04T12:42:20Z</time>
      </trkpt>
      <trkpt lat="47.32375" lon="6.6863">
        <ele>529.34</ele>
        <time>2021-04-04T12:42:34Z</time>
      </trkpt>
      <trkpt lat="47.32398" lon="6.68644">
        <ele>530.79</ele>
        <time>2021-04-04T12:42:42Z</time>
      </trkpt>
      <trkpt lat="47.324" lon="6.68646">
        <ele>530.79</ele>
        <time>2021-04-04T12:42:43Z</time>
      </trkpt>
      <trkpt lat="47.32431" lon="6.68667">
        <ele>533.67</ele>
        <time>2021-04-04T12:42:55Z</time>
      </trkpt>
      <trkpt lat="47.32456" lon="6.68687">
        <ele>536.07</ele>
        <time>2021-04-04T12:43:06Z</time>
      </trkpt>
      <trkpt lat="47.32498" lon="6.68713">
        <ele>539.44</ele>
        <time>2021-04-04T12:43:20Z</time>
      </trkpt>
      <trkpt lat="47.32528" lon="6.68734">
        <ele>541.84</ele>
        <time>2021-04-04T12:43:31Z</time>
      </trkpt>
      <trkpt lat="47.32571" lon="6.68749">
        <ele>544.72</ele>
        <time>2021-04-04T12:43:45Z</time>
      </trkpt>
      <trkpt lat="47.32604" lon="6.68752">
        <ele>547.61</ele>
        <time>2021-04-04T12:43:58Z</time>
      </trkpt>
      <trkpt lat="47.32642" lon="6.6875">
        <ele>550.97</ele>
        <time>2021-04-04T12:44:12Z</time>
      </trkpt>
      <trkpt lat="47.32679" lon="6.68742">
        <ele>552.9</ele>
        <time>2021-04-04T12:44:26Z</time>
      </trkpt>
      <trkpt lat="47.32705" lon="6.68712">
        <ele>556.26</ele>
        <time>2021-04-04T12:44:39Z</time>
      </trkpt>
      <trkpt lat="47.32725" lon="6.6868">
        <ele>558.66</ele>
        <time>2021-04-04T12:44:50Z</time>
      </trkpt>
      <trkpt lat="47.32744" lon="6.68625">
        <ele>562.03</ele>
        <time>2021-04-04T12:45:04Z</time>
      </trkpt>
      <trkpt lat="47.32739" lon="6.68578">
        <ele>564.43</ele>
        <time>2021-04-04T12:45:17Z</time>
      </trkpt>
      <trkpt lat="47.3273" lon="6.68526">
        <ele>567.32</ele>
        <time>2021-04-04T12:45:31Z</time>
      </trkpt>
      <trkpt lat="47.32721" lon="6.68481">
        <ele>569.72</ele>
        <time>2021-04-04T12:45:44Z</time>
      </trkpt>
      <trkpt lat="47.32711" lon="6.68425">
        <ele>573.08</ele>
        <time>2021-04-04T12:45:58Z</time>
      </trkpt>
      <trkpt lat="47.32708" lon="6.68372">
        <ele>575.97</ele>
        <time>2021-04-04T12:46:12Z</time>
      </trkpt>
      <trkpt lat="47.32687" lon="6.68315">
        <ele>578.85</ele>
        <time>2021-04-04T12:46:25Z</time>
      </trkpt>
      <trkpt lat="47.32679" lon="6.6827">
        <ele>582.22</ele>
        <time>2021-04-04T12:46:38Z</time>
      </trkpt>
      <trkpt lat="47.32671" lon="6.68221">
        <ele>585.1</ele>
        <time>2021-04-04T12:46:52Z</time>
      </trkpt>
      <trkpt lat="47.32642" lon="6.68151">
        <ele>587.98</ele>
        <time>2021-04-04T12:47:07Z</time>
      </trkpt>
      <trkpt lat="47.32628" lon="6.68098">
        <ele>590.87</ele>
        <time>2021-04-04T12:47:21Z</time>
      </trkpt>
      <trkpt lat="47.32612" lon="6.68047">
        <ele>593.75</ele>
        <time>2021-04-04T12:47:34Z</time>
      </trkpt>
      <trkpt lat="47.32588" lon="6.68006">
        <ele>597.12</ele>
        <time>2021-04-04T12:47:48Z</time>
      </trkpt>
      <trkpt lat="47.32584" lon="6.68002">
        <ele>597.6</ele>
        <time>2021-04-04T12:47:50Z</time>
      </trkpt>
      <trkpt lat="47.32556" lon="6.67976">
        <ele>600.48</ele>
        <time>2021-04-04T12:48:02Z</time>
      </trkpt>
      <trkpt lat="47.32522" lon="6.67956">
        <ele>602.88</ele>
        <time>2021-04-04T12:48:13Z</time>
      </trkpt>
      <trkpt lat="47.32487" lon="6.67934">
        <ele>605.29</ele>
        <time>2021-04-04T12:48:25Z</time>
      </trkpt>
      <trkpt lat="47.32457" lon="6.67909">
        <ele>607.21</ele>
        <time>2021-04-04T12:48:37Z</time>
      </trkpt>
      <trkpt lat="47.32439" lon="6.67905">
        <ele>608.17</ele>
        <time>2021-04-04T12:48:42Z</time>
      </trkpt>
      <trkpt lat="47.32437" lon="6.67906">
        <ele>608.17</ele>
        <time>2021-04-04T12:48:43Z</time>
      </trkpt>
      <trkpt lat="47.32435" lon="6.67908">
        <ele>608.65</ele>
        <time>2021-04-04T12:48:44Z</time>
      </trkpt>
      <trkpt lat="47.32433" lon="6.67912">
        <ele>609.13</ele>
        <time>2021-04-04T12:48:45Z</time>
      </trkpt>
      <trkpt lat="47.32432" lon="6.67916">
        <ele>609.61</ele>
        <time>2021-04-04T12:48:46Z</time>
      </trkpt>
      <trkpt lat="47.32432" lon="6.6792">
        <ele>609.61</ele>
        <time>2021-04-04T12:48:47Z</time>
      </trkpt>
      <trkpt lat="47.32432" lon="6.67924">
        <ele>610.09</ele>
        <time>2021-04-04T12:48:48Z</time>
      </trkpt>
      <trkpt lat="47.32433" lon="6.67928">
        <ele>610.57</ele>
        <time>2021-04-04T12:48:49Z</time>
      </trkpt>
      <trkpt lat="47.32454" lon="6.67956">
        <ele>613.46</ele>
        <time>2021-04-04T12:49:02Z</time>
      </trkpt>
      <trkpt lat="47.32485" lon="6.67993">
        <ele>615.86</ele>
        <time>2021-04-04T12:49:15Z</time>
      </trkpt>
      <trkpt lat="47.3251" lon="6.68045">
        <ele>618.75</ele>
        <time>2021-04-04T12:49:30Z</time>
      </trkpt>
      <trkpt lat="47.32519" lon="6.68099">
        <ele>622.11</ele>
        <time>2021-04-04T12:49:43Z</time>
      </trkpt>
      <trkpt lat="47.32501" lon="6.6815">
        <ele>624.99</ele>
        <time>2021-04-04T12:49:56Z</time>
      </trkpt>
      <trkpt lat="47.32481" lon="6.68203">
        <ele>628.36</ele>
        <time>2021-04-04T12:50:11Z</time>
      </trkpt>
      <trkpt lat="47.3246" lon="6.68241">
        <ele>630.76</ele>
        <time>2021-04-04T12:50:24Z</time>
      </trkpt>
      <trkpt lat="47.32437" lon="6.68228">
        <ele>633.65</ele>
        <time>2021-04-04T12:50:34Z</time>
      </trkpt>
      <trkpt lat="47.32391" lon="6.68191">
        <ele>636.53</ele>
        <time>2021-04-04T12:50:50Z</time>
      </trkpt>
      <trkpt lat="47.32337" lon="6.68178">
        <ele>638.93</ele>
        <time>2021-04-04T12:51:04Z</time>
      </trkpt>
      <trkpt lat="47.32272" lon="6.6818">
        <ele>641.82</ele>
        <time>2021-04-04T12:51:21Z</time>
      </trkpt>
      <trkpt lat="47.32229" lon="6.68166">
        <ele>642.78</ele>
        <time>2021-04-04T12:51:32Z</time>
      </trkpt>
      <trkpt lat="47.32159" lon="6.68131">
        <ele>644.7</ele>
        <time>2021-04-04T12:51:49Z</time>
      </trkpt>
      <trkpt lat="47.32102" lon="6.68104">
        <ele>648.07</ele>
        <time>2021-04-04T12:52:03Z</time>
      </trkpt>
      <trkpt lat="47.32089" lon="6.68099">
        <ele>647.1</ele>
        <time>2021-04-04T12:52:06Z</time>
      </trkpt>
      <trkpt lat="47.32077" lon="6.68092">
        <ele>647.59</ele>
        <time>2021-04-04T12:52:09Z</time>
      </trkpt>
      <trkpt lat="47.32073" lon="6.6809">
        <ele>648.07</ele>
        <time>2021-04-04T12:52:10Z</time>
      </trkpt>
      <trkpt lat="47.32042" lon="6.68073">
        <ele>649.03</ele>
        <time>2021-04-04T12:52:18Z</time>
      </trkpt>
      <trkpt lat="47.32031" lon="6.68068">
        <ele>649.51</ele>
        <time>2021-04-04T12:52:21Z</time>
      </trkpt>
      <trkpt lat="47.32018" lon="6.68063">
        <ele>649.51</ele>
        <time>2021-04-04T12:52:24Z</time>
      </trkpt>
      <trkpt lat="47.3201" lon="6.68058">
        <ele>649.99</ele>
        <time>2021-04-04T12:52:26Z</time>
      </trkpt>
      <trkpt lat="47.31948" lon="6.68026">
        <ele>652.87</ele>
        <time>2021-04-04T12:52:41Z</time>
      </trkpt>
      <trkpt lat="47.31886" lon="6.67998">
        <ele>655.76</ele>
        <time>2021-04-04T12:52:55Z</time>
      </trkpt>
      <trkpt lat="47.3186" lon="6.67986">
        <ele>656.72</ele>
        <time>2021-04-04T12:53:01Z</time>
      </trkpt>
      <trkpt lat="47.31778" lon="6.67968">
        <ele>659.12</ele>
        <time>2021-04-04T12:53:19Z</time>
      </trkpt>
      <trkpt lat="47.31707" lon="6.67956">
        <ele>662.49</ele>
        <time>2021-04-04T12:53:35Z</time>
      </trkpt>
      <trkpt lat="47.31676" lon="6.67948">
        <ele>662.97</ele>
        <time>2021-04-04T12:53:42Z</time>
      </trkpt>
      <trkpt lat="47.31672" lon="6.67946">
        <ele>662.97</ele>
        <time>2021-04-04T12:53:43Z</time>
      </trkpt>
      <trkpt lat="47.31668" lon="6.67943">
        <ele>663.93</ele>
        <time>2021-04-04T12:53:44Z</time>
      </trkpt>
      <trkpt lat="47.31664" lon="6.67939">
        <ele>663.93</ele>
        <time>2021-04-04T12:53:45Z</time>
      </trkpt>
      <trkpt lat="47.31661" lon="6.67935">
        <ele>663.93</ele>
        <time>2021-04-04T12:53:46Z</time>
      </trkpt>
      <trkpt lat="47.3163" lon="6.67901">
        <ele>664.89</ele>
        <time>2021-04-04T12:53:54Z</time>
      </trkpt>
      <trkpt lat="47.31569" lon="6.67854">
        <ele>666.81</ele>
        <time>2021-04-04T12:54:08Z</time>
      </trkpt>
      <trkpt lat="47.31564" lon="6.67852">
        <ele>666.81</ele>
        <time>2021-04-04T12:54:09Z</time>
      </trkpt>
      <trkpt lat="47.31548" lon="6.67848">
        <ele>667.29</ele>
        <time>2021-04-04T12:54:12Z</time>
      </trkpt>
      <trkpt lat="47.31498" lon="6.67843">
        <ele>667.77</ele>
        <time>2021-04-04T12:54:21Z</time>
      </trkpt>
      <trkpt lat="47.31481" lon="6.67837">
        <ele>667.29</ele>
        <time>2021-04-04T12:54:24Z</time>
      </trkpt>
      <trkpt lat="47.31476" lon="6.67833">
        <ele>667.29</ele>
        <time>2021-04-04T12:54:25Z</time>
      </trkpt>
      <trkpt lat="47.31471" lon="6.67829">
        <ele>667.29</ele>
        <time>2021-04-04T12:54:26Z</time>
      </trkpt>
      <trkpt lat="47.31397" lon="6.67756">
        <ele>669.22</ele>
        <time>2021-04-04T12:54:42Z</time>
      </trkpt>
      <trkpt lat="47.31351" lon="6.67714">
        <ele>671.14</ele>
        <time>2021-04-04T12:54:52Z</time>
      </trkpt>
      <trkpt lat="47.31288" lon="6.67674">
        <ele>674.02</ele>
        <time>2021-04-04T12:55:05Z</time>
      </trkpt>
      <trkpt lat="47.31215" lon="6.67597">
        <ele>675.46</ele>
        <time>2021-04-04T12:55:22Z</time>
      </trkpt>
      <trkpt lat="47.31192" lon="6.67568">
        <ele>677.39</ele>
        <time>2021-04-04T12:55:28Z</time>
      </trkpt>
      <trkpt lat="47.31189" lon="6.67562">
        <ele>677.39</ele>
        <time>2021-04-04T12:55:29Z</time>
      </trkpt>
      <trkpt lat="47.31181" lon="6.67542">
        <ele>677.87</ele>
        <time>2021-04-04T12:55:32Z</time>
      </trkpt>
      <trkpt lat="47.31168" lon="6.67506">
        <ele>679.31</ele>
        <time>2021-04-04T12:55:38Z</time>
      </trkpt>
      <trkpt lat="47.31163" lon="6.67496">
        <ele>680.27</ele>
        <time>2021-04-04T12:55:40Z</time>
      </trkpt>
      <trkpt lat="47.31156" lon="6.67486">
        <ele>680.75</ele>
        <time>2021-04-04T12:55:42Z</time>
      </trkpt>
      <trkpt lat="47.31105" lon="6.6743">
        <ele>683.63</ele>
        <time>2021-04-04T12:55:56Z</time>
      </trkpt>
      <trkpt lat="47.31041" lon="6.67356">
        <ele>687</ele>
        <time>2021-04-04T12:56:14Z</time>
      </trkpt>
      <trkpt lat="47.31019" lon="6.67335">
        <ele>688.44</ele>
        <time>2021-04-04T12:56:20Z</time>
      </trkpt>
      <trkpt lat="47.31016" lon="6.67331">
        <ele>688.92</ele>
        <time>2021-04-04T12:56:21Z</time>
      </trkpt>
      <trkpt lat="47.30976" lon="6.67288">
        <ele>690.84</ele>
        <time>2021-04-04T12:56:32Z</time>
      </trkpt>
      <trkpt lat="47.30942" lon="6.67207">
        <ele>691.81</ele>
        <time>2021-04-04T12:56:45Z</time>
      </trkpt>
      <trkpt lat="47.30912" lon="6.67152">
        <ele>694.69</ele>
        <time>2021-04-04T12:56:56Z</time>
      </trkpt>
      <trkpt lat="47.30879" lon="6.67112">
        <ele>697.57</ele>
        <time>2021-04-04T12:57:07Z</time>
      </trkpt>
      <trkpt lat="47.30867" lon="6.67098">
        <ele>699.02</ele>
        <time>2021-04-04T12:57:11Z</time>
      </trkpt>
      <trkpt lat="47.3086" lon="6.67092">
        <ele>699.02</ele>
        <time>2021-04-04T12:57:13Z</time>
      </trkpt>
      <trkpt lat="47.30806" lon="6.67045">
        <ele>702.38</ele>
        <time>2021-04-04T12:57:29Z</time>
      </trkpt>
      <trkpt lat="47.30749" lon="6.6702">
        <ele>705.26</ele>
        <time>2021-04-04T12:57:44Z</time>
      </trkpt>
      <trkpt lat="47.30681" lon="6.67011">
        <ele>705.75</ele>
        <time>2021-04-04T12:58:00Z</time>
      </trkpt>
      <trkpt lat="47.30676" lon="6.67009">
        <ele>705.75</ele>
        <time>2021-04-04T12:58:01Z</time>
      </trkpt>
      <trkpt lat="47.30671" lon="6.67005">
        <ele>705.75</ele>
        <time>2021-04-04T12:58:02Z</time>
      </trkpt>
      <trkpt lat="47.30667" lon="6.67">
        <ele>705.75</ele>
        <time>2021-04-04T12:58:03Z</time>
      </trkpt>
      <trkpt lat="47.30663" lon="6.66995">
        <ele>705.75</ele>
        <time>2021-04-04T12:58:04Z</time>
      </trkpt>
      <trkpt lat="47.30659" lon="6.66989">
        <ele>705.75</ele>
        <time>2021-04-04T12:58:05Z</time>
      </trkpt>
      <trkpt lat="47.30655" lon="6.66983">
        <ele>705.75</ele>
        <time>2021-04-04T12:58:06Z</time>
      </trkpt>
      <trkpt lat="47.30625" lon="6.66939">
        <ele>709.11</ele>
        <time>2021-04-04T12:58:15Z</time>
      </trkpt>
      <trkpt lat="47.30593" lon="6.66891">
        <ele>711.51</ele>
        <time>2021-04-04T12:58:26Z</time>
      </trkpt>
      <trkpt lat="47.30544" lon="6.66793">
        <ele>712.95</ele>
        <time>2021-04-04T12:58:43Z</time>
      </trkpt>
      <trkpt lat="47.30519" lon="6.66729">
        <ele>713.92</ele>
        <time>2021-04-04T12:58:52Z</time>
      </trkpt>
      <trkpt lat="47.30474" lon="6.6662">
        <ele>713.92</ele>
        <time>2021-04-04T12:59:06Z</time>
      </trkpt>
      <trkpt lat="47.3043" lon="6.66485">
        <ele>711.99</ele>
        <time>2021-04-04T12:59:20Z</time>
      </trkpt>
      <trkpt lat="47.30393" lon="6.6636">
        <ele>710.55</ele>
        <time>2021-04-04T12:59:30Z</time>
      </trkpt>
      <trkpt lat="47.30392" lon="6.66348">
        <ele>711.03</ele>
        <time>2021-04-04T12:59:31Z</time>
      </trkpt>
      <trkpt lat="47.30392" lon="6.66326">
        <ele>711.03</ele>
        <time>2021-04-04T12:59:33Z</time>
      </trkpt>
      <trkpt lat="47.3039" lon="6.66316">
        <ele>711.99</ele>
        <time>2021-04-04T12:59:34Z</time>
      </trkpt>
      <trkpt lat="47.30388" lon="6.66306">
        <ele>711.99</ele>
        <time>2021-04-04T12:59:35Z</time>
      </trkpt>
      <trkpt lat="47.30385" lon="6.66297">
        <ele>712.95</ele>
        <time>2021-04-04T12:59:36Z</time>
      </trkpt>
      <trkpt lat="47.30382" lon="6.66287">
        <ele>712.95</ele>
        <time>2021-04-04T12:59:37Z</time>
      </trkpt>
      <trkpt lat="47.3031" lon="6.66129">
        <ele>713.44</ele>
        <time>2021-04-04T12:59:54Z</time>
      </trkpt>
      <trkpt lat="47.30248" lon="6.65965">
        <ele>714.88</ele>
        <time>2021-04-04T13:00:09Z</time>
      </trkpt>
      <trkpt lat="47.30236" lon="6.65937">
        <ele>716.8</ele>
        <time>2021-04-04T13:00:12Z</time>
      </trkpt>
      <trkpt lat="47.30231" lon="6.65929">
        <ele>717.28</ele>
        <time>2021-04-04T13:00:13Z</time>
      </trkpt>
      <trkpt lat="47.30221" lon="6.65916">
        <ele>717.76</ele>
        <time>2021-04-04T13:00:15Z</time>
      </trkpt>
      <trkpt lat="47.30117" lon="6.658">
        <ele>716.32</ele>
        <time>2021-04-04T13:00:32Z</time>
      </trkpt>
      <trkpt lat="47.3006" lon="6.65711">
        <ele>712.95</ele>
        <time>2021-04-04T13:00:41Z</time>
      </trkpt>
      <trkpt lat="47.30052" lon="6.65706">
        <ele>712.95</ele>
        <time>2021-04-04T13:00:42Z</time>
      </trkpt>
      <trkpt lat="47.30042" lon="6.65703">
        <ele>712.95</ele>
        <time>2021-04-04T13:00:43Z</time>
      </trkpt>
      <trkpt lat="47.30023" lon="6.65701">
        <ele>712.47</ele>
        <time>2021-04-04T13:00:45Z</time>
      </trkpt>
      <trkpt lat="47.30005" lon="6.65695">
        <ele>710.55</ele>
        <time>2021-04-04T13:00:47Z</time>
      </trkpt>
      <trkpt lat="47.29984" lon="6.65678">
        <ele>711.51</ele>
        <time>2021-04-04T13:00:50Z</time>
      </trkpt>
      <trkpt lat="47.29983" lon="6.65657">
        <ele>711.51</ele>
        <time>2021-04-04T13:00:51Z</time>
      </trkpt>
      <trkpt lat="47.29983" lon="6.65637">
        <ele>710.55</ele>
        <time>2021-04-04T13:00:52Z</time>
      </trkpt>
      <trkpt lat="47.29982" lon="6.65615">
        <ele>710.07</ele>
        <time>2021-04-04T13:00:53Z</time>
      </trkpt>
      <trkpt lat="47.2998" lon="6.65595">
        <ele>709.59</ele>
        <time>2021-04-04T13:00:54Z</time>
      </trkpt>
      <trkpt lat="47.29969" lon="6.65528">
        <ele>706.23</ele>
        <time>2021-04-04T13:00:58Z</time>
      </trkpt>
      <trkpt lat="47.29946" lon="6.65451">
        <ele>703.34</ele>
        <time>2021-04-04T13:01:03Z</time>
      </trkpt>
      <trkpt lat="47.29936" lon="6.65422">
        <ele>702.86</ele>
        <time>2021-04-04T13:01:05Z</time>
      </trkpt>
      <trkpt lat="47.29883" lon="6.65252">
        <ele>706.23</ele>
        <time>2021-04-04T13:01:18Z</time>
      </trkpt>
      <trkpt lat="47.29881" lon="6.65241">
        <ele>706.23</ele>
        <time>2021-04-04T13:01:19Z</time>
      </trkpt>
      <trkpt lat="47.29874" lon="6.65218">
        <ele>707.19</ele>
        <time>2021-04-04T13:01:21Z</time>
      </trkpt>
      <trkpt lat="47.29817" lon="6.65126">
        <ele>703.34</ele>
        <time>2021-04-04T13:01:30Z</time>
      </trkpt>
      <trkpt lat="47.29803" lon="6.65108">
        <ele>702.86</ele>
        <time>2021-04-04T13:01:32Z</time>
      </trkpt>
      <trkpt lat="47.29731" lon="6.65026">
        <ele>699.5</ele>
        <time>2021-04-04T13:01:41Z</time>
      </trkpt>
      <trkpt lat="47.29716" lon="6.65">
        <ele>699.02</ele>
        <time>2021-04-04T13:01:43Z</time>
      </trkpt>
      <trkpt lat="47.29663" lon="6.6491">
        <ele>695.17</ele>
        <time>2021-04-04T13:01:50Z</time>
      </trkpt>
      <trkpt lat="47.29655" lon="6.64897">
        <ele>695.17</ele>
        <time>2021-04-04T13:01:51Z</time>
      </trkpt>
      <trkpt lat="47.29636" lon="6.64863">
        <ele>693.73</ele>
        <time>2021-04-04T13:01:54Z</time>
      </trkpt>
      <trkpt lat="47.29633" lon="6.64851">
        <ele>693.25</ele>
        <time>2021-04-04T13:01:55Z</time>
      </trkpt>
      <trkpt lat="47.2963" lon="6.64841">
        <ele>692.77</ele>
        <time>2021-04-04T13:01:56Z</time>
      </trkpt>
      <trkpt lat="47.29625" lon="6.64832">
        <ele>691.81</ele>
        <time>2021-04-04T13:01:57Z</time>
      </trkpt>
      <trkpt lat="47.29618" lon="6.64825">
        <ele>691.81</ele>
        <time>2021-04-04T13:01:58Z</time>
      </trkpt>
      <trkpt lat="47.29611" lon="6.6482">
        <ele>691.81</ele>
        <time>2021-04-04T13:01:59Z</time>
      </trkpt>
      <trkpt lat="47.29485" lon="6.64705">
        <ele>694.21</ele>
        <time>2021-04-04T13:02:16Z</time>
      </trkpt>
      <trkpt lat="47.29354" lon="6.64581">
        <ele>695.65</ele>
        <time>2021-04-04T13:02:34Z</time>
      </trkpt>
      <trkpt lat="47.29326" lon="6.64567">
        <ele>697.09</ele>
        <time>2021-04-04T13:02:38Z</time>
      </trkpt>
      <trkpt lat="47.29242" lon="6.64538">
        <ele>699.5</ele>
        <time>2021-04-04T13:02:52Z</time>
      </trkpt>
      <trkpt lat="47.29224" lon="6.64535">
        <ele>699.98</ele>
        <time>2021-04-04T13:02:55Z</time>
      </trkpt>
      <trkpt lat="47.29219" lon="6.64536">
        <ele>700.46</ele>
        <time>2021-04-04T13:02:56Z</time>
      </trkpt>
      <trkpt lat="47.29213" lon="6.64537">
        <ele>700.46</ele>
        <time>2021-04-04T13:02:57Z</time>
      </trkpt>
      <trkpt lat="47.29208" lon="6.6454">
        <ele>700.46</ele>
        <time>2021-04-04T13:02:58Z</time>
      </trkpt>
      <trkpt lat="47.29204" lon="6.64543">
        <ele>700.94</ele>
        <time>2021-04-04T13:02:59Z</time>
      </trkpt>
      <trkpt lat="47.292" lon="6.64546">
        <ele>700.94</ele>
        <time>2021-04-04T13:03:00Z</time>
      </trkpt>
      <trkpt lat="47.29196" lon="6.64549">
        <ele>701.42</ele>
        <time>2021-04-04T13:03:01Z</time>
      </trkpt>
      <trkpt lat="47.29193" lon="6.64553">
        <ele>701.42</ele>
        <time>2021-04-04T13:03:02Z</time>
      </trkpt>
      <trkpt lat="47.2919" lon="6.64557">
        <ele>701.9</ele>
        <time>2021-04-04T13:03:03Z</time>
      </trkpt>
      <trkpt lat="47.29188" lon="6.64561">
        <ele>702.86</ele>
        <time>2021-04-04T13:03:04Z</time>
      </trkpt>
      <trkpt lat="47.29186" lon="6.64565">
        <ele>703.34</ele>
        <time>2021-04-04T13:03:05Z</time>
      </trkpt>
      <trkpt lat="47.29177" lon="6.64576">
        <ele>704.3</ele>
        <time>2021-04-04T13:03:08Z</time>
      </trkpt>
      <trkpt lat="47.29173" lon="6.64578">
        <ele>704.78</ele>
        <time>2021-04-04T13:03:09Z</time>
      </trkpt>
      <trkpt lat="47.29164" lon="6.64582">
        <ele>704.3</ele>
        <time>2021-04-04T13:03:11Z</time>
      </trkpt>
      <trkpt lat="47.29159" lon="6.64583">
        <ele>704.3</ele>
        <time>2021-04-04T13:03:12Z</time>
      </trkpt>
      <trkpt lat="47.29156" lon="6.64583">
        <ele>704.3</ele>
        <time>2021-04-04T13:03:13Z</time>
      </trkpt>
      <trkpt lat="47.29152" lon="6.64582">
        <ele>704.3</ele>
        <time>2021-04-04T13:03:14Z</time>
      </trkpt>
      <trkpt lat="47.29149" lon="6.64581">
        <ele>703.82</ele>
        <time>2021-04-04T13:03:15Z</time>
      </trkpt>
      <trkpt lat="47.29141" lon="6.64577">
        <ele>703.82</ele>
        <time>2021-04-04T13:03:17Z</time>
      </trkpt>
      <trkpt lat="47.29126" lon="6.64563">
        <ele>703.82</ele>
        <time>2021-04-04T13:03:21Z</time>
      </trkpt>
      <trkpt lat="47.29102" lon="6.64547">
        <ele>702.86</ele>
        <time>2021-04-04T13:03:26Z</time>
      </trkpt>
      <trkpt lat="47.29037" lon="6.64511">
        <ele>702.38</ele>
        <time>2021-04-04T13:03:38Z</time>
      </trkpt>
      <trkpt lat="47.29031" lon="6.64509">
        <ele>703.34</ele>
        <time>2021-04-04T13:03:39Z</time>
      </trkpt>
      <trkpt lat="47.28962" lon="6.64484">
        <ele>702.86</ele>
        <time>2021-04-04T13:03:50Z</time>
      </trkpt>
      <trkpt lat="47.2895" lon="6.64476">
        <ele>702.86</ele>
        <time>2021-04-04T13:03:52Z</time>
      </trkpt>
      <trkpt lat="47.28945" lon="6.64471">
        <ele>702.86</ele>
        <time>2021-04-04T13:03:53Z</time>
      </trkpt>
      <trkpt lat="47.2894" lon="6.64465">
        <ele>702.86</ele>
        <time>2021-04-04T13:03:54Z</time>
      </trkpt>
      <trkpt lat="47.28935" lon="6.64458">
        <ele>702.86</ele>
        <time>2021-04-04T13:03:55Z</time>
      </trkpt>
      <trkpt lat="47.2893" lon="6.64451">
        <ele>702.38</ele>
        <time>2021-04-04T13:03:56Z</time>
      </trkpt>
      <trkpt lat="47.28925" lon="6.64445">
        <ele>702.38</ele>
        <time>2021-04-04T13:03:57Z</time>
      </trkpt>
      <trkpt lat="47.28885" lon="6.6441">
        <ele>700.94</ele>
        <time>2021-04-04T13:04:03Z</time>
      </trkpt>
      <trkpt lat="47.28837" lon="6.64376">
        <ele>699.02</ele>
        <time>2021-04-04T13:04:09Z</time>
      </trkpt>
      <trkpt lat="47.28831" lon="6.64366">
        <ele>698.05</ele>
        <time>2021-04-04T13:04:10Z</time>
      </trkpt>
      <trkpt lat="47.28827" lon="6.64353">
        <ele>697.57</ele>
        <time>2021-04-04T13:04:11Z</time>
      </trkpt>
      <trkpt lat="47.28824" lon="6.6434">
        <ele>697.09</ele>
        <time>2021-04-04T13:04:12Z</time>
      </trkpt>
      <trkpt lat="47.28821" lon="6.64327">
        <ele>697.57</ele>
        <time>2021-04-04T13:04:13Z</time>
      </trkpt>
      <trkpt lat="47.28818" lon="6.64315">
        <ele>696.13</ele>
        <time>2021-04-04T13:04:14Z</time>
      </trkpt>
      <trkpt lat="47.28813" lon="6.64303">
        <ele>696.13</ele>
        <time>2021-04-04T13:04:15Z</time>
      </trkpt>
      <trkpt lat="47.28807" lon="6.64292">
        <ele>696.13</ele>
        <time>2021-04-04T13:04:16Z</time>
      </trkpt>
      <trkpt lat="47.28801" lon="6.64282">
        <ele>696.13</ele>
        <time>2021-04-04T13:04:17Z</time>
      </trkpt>
      <trkpt lat="47.28794" lon="6.64272">
        <ele>696.13</ele>
        <time>2021-04-04T13:04:18Z</time>
      </trkpt>
      <trkpt lat="47.28777" lon="6.64244">
        <ele>696.61</ele>
        <time>2021-04-04T13:04:21Z</time>
      </trkpt>
      <trkpt lat="47.28764" lon="6.64215">
        <ele>696.61</ele>
        <time>2021-04-04T13:04:26Z</time>
      </trkpt>
      <trkpt lat="47.28765" lon="6.64212">
        <ele>696.61</ele>
        <time>2021-04-04T13:04:27Z</time>
      </trkpt>
      <trkpt lat="47.28766" lon="6.64192">
        <ele>697.09</ele>
        <time>2021-04-04T13:04:31Z</time>
      </trkpt>
      <trkpt lat="47.28766" lon="6.64186">
        <ele>697.09</ele>
        <time>2021-04-04T13:04:32Z</time>
      </trkpt>
      <trkpt lat="47.28768" lon="6.64174">
        <ele>697.57</ele>
        <time>2021-04-04T13:04:34Z</time>
      </trkpt>
      <trkpt lat="47.28769" lon="6.64168">
        <ele>697.57</ele>
        <time>2021-04-04T13:04:35Z</time>
      </trkpt>
      <trkpt lat="47.28771" lon="6.64155">
        <ele>698.53</ele>
        <time>2021-04-04T13:04:37Z</time>
      </trkpt>
      <trkpt lat="47.2878" lon="6.64098">
        <ele>699.98</ele>
        <time>2021-04-04T13:04:45Z</time>
      </trkpt>
      <trkpt lat="47.28781" lon="6.64083">
        <ele>700.94</ele>
        <time>2021-04-04T13:04:47Z</time>
      </trkpt>
      <trkpt lat="47.2878" lon="6.64075">
        <ele>700.94</ele>
        <time>2021-04-04T13:04:48Z</time>
      </trkpt>
      <trkpt lat="47.28779" lon="6.64067">
        <ele>700.94</ele>
        <time>2021-04-04T13:04:49Z</time>
      </trkpt>
      <trkpt lat="47.28776" lon="6.6406">
        <ele>700.94</ele>
        <time>2021-04-04T13:04:50Z</time>
      </trkpt>
      <trkpt lat="47.28774" lon="6.64052">
        <ele>700.94</ele>
        <time>2021-04-04T13:04:51Z</time>
      </trkpt>
      <trkpt lat="47.28771" lon="6.64046">
        <ele>701.42</ele>
        <time>2021-04-04T13:04:52Z</time>
      </trkpt>
      <trkpt lat="47.28728" lon="6.63951">
        <ele>700.94</ele>
        <time>2021-04-04T13:05:06Z</time>
      </trkpt>
      <trkpt lat="47.28674" lon="6.63839">
        <ele>697.57</ele>
        <time>2021-04-04T13:05:18Z</time>
      </trkpt>
      <trkpt lat="47.28636" lon="6.63757">
        <ele>693.73</ele>
        <time>2021-04-04T13:05:25Z</time>
      </trkpt>
      <trkpt lat="47.28624" lon="6.63731">
        <ele>693.25</ele>
        <time>2021-04-04T13:05:27Z</time>
      </trkpt>
      <trkpt lat="47.28593" lon="6.63643">
        <ele>689.88</ele>
        <time>2021-04-04T13:05:33Z</time>
      </trkpt>
      <trkpt lat="47.28562" lon="6.63529">
        <ele>687</ele>
        <time>2021-04-04T13:05:40Z</time>
      </trkpt>
      <trkpt lat="47.28525" lon="6.63394">
        <ele>687</ele>
        <time>2021-04-04T13:05:49Z</time>
      </trkpt>
      <trkpt lat="47.28497" lon="6.63222">
        <ele>685.56</ele>
        <time>2021-04-04T13:06:01Z</time>
      </trkpt>
      <trkpt lat="47.2849" lon="6.63211">
        <ele>685.08</ele>
        <time>2021-04-04T13:06:02Z</time>
      </trkpt>
      <trkpt lat="47.28483" lon="6.632">
        <ele>685.08</ele>
        <time>2021-04-04T13:06:03Z</time>
      </trkpt>
      <trkpt lat="47.28462" lon="6.6317">
        <ele>685.56</ele>
        <time>2021-04-04T13:06:06Z</time>
      </trkpt>
      <trkpt lat="47.28457" lon="6.63159">
        <ele>686.04</ele>
        <time>2021-04-04T13:06:07Z</time>
      </trkpt>
      <trkpt lat="47.28453" lon="6.63147">
        <ele>685.56</ele>
        <time>2021-04-04T13:06:08Z</time>
      </trkpt>
      <trkpt lat="47.2845" lon="6.63135">
        <ele>686.04</ele>
        <time>2021-04-04T13:06:09Z</time>
      </trkpt>
      <trkpt lat="47.28447" lon="6.63123">
        <ele>686.52</ele>
        <time>2021-04-04T13:06:10Z</time>
      </trkpt>
      <trkpt lat="47.284" lon="6.62973">
        <ele>686.04</ele>
        <time>2021-04-04T13:06:23Z</time>
      </trkpt>
      <trkpt lat="47.28393" lon="6.6295">
        <ele>687</ele>
        <time>2021-04-04T13:06:25Z</time>
      </trkpt>
      <trkpt lat="47.28353" lon="6.62843">
        <ele>685.56</ele>
        <time>2021-04-04T13:06:35Z</time>
      </trkpt>
      <trkpt lat="47.28347" lon="6.62834">
        <ele>685.56</ele>
        <time>2021-04-04T13:06:36Z</time>
      </trkpt>
      <trkpt lat="47.28323" lon="6.62799">
        <ele>685.08</ele>
        <time>2021-04-04T13:06:40Z</time>
      </trkpt>
      <trkpt lat="47.28318" lon="6.62789">
        <ele>685.08</ele>
        <time>2021-04-04T13:06:41Z</time>
      </trkpt>
      <trkpt lat="47.28314" lon="6.62778">
        <ele>685.08</ele>
        <time>2021-04-04T13:06:42Z</time>
      </trkpt>
      <trkpt lat="47.28311" lon="6.62767">
        <ele>685.56</ele>
        <time>2021-04-04T13:06:43Z</time>
      </trkpt>
      <trkpt lat="47.2831" lon="6.62755">
        <ele>686.04</ele>
        <time>2021-04-04T13:06:44Z</time>
      </trkpt>
      <trkpt lat="47.28309" lon="6.62744">
        <ele>686.52</ele>
        <time>2021-04-04T13:06:45Z</time>
      </trkpt>
      <trkpt lat="47.28309" lon="6.62732">
        <ele>686.04</ele>
        <time>2021-04-04T13:06:46Z</time>
      </trkpt>
      <trkpt lat="47.2831" lon="6.62721">
        <ele>686.52</ele>
        <time>2021-04-04T13:06:47Z</time>
      </trkpt>
      <trkpt lat="47.28312" lon="6.62687">
        <ele>687</ele>
        <time>2021-04-04T13:06:50Z</time>
      </trkpt>
      <trkpt lat="47.28309" lon="6.62645">
        <ele>687</ele>
        <time>2021-04-04T13:06:54Z</time>
      </trkpt>
      <trkpt lat="47.28308" lon="6.62636">
        <ele>687.48</ele>
        <time>2021-04-04T13:06:55Z</time>
      </trkpt>
      <trkpt lat="47.28301" lon="6.62607">
        <ele>688.44</ele>
        <time>2021-04-04T13:06:58Z</time>
      </trkpt>
      <trkpt lat="47.283" lon="6.62597">
        <ele>688.44</ele>
        <time>2021-04-04T13:06:59Z</time>
      </trkpt>
      <trkpt lat="47.283" lon="6.6248">
        <ele>691.81</ele>
        <time>2021-04-04T13:07:11Z</time>
      </trkpt>
      <trkpt lat="47.28285" lon="6.62366">
        <ele>691.81</ele>
        <time>2021-04-04T13:07:26Z</time>
      </trkpt>
      <trkpt lat="47.2826" lon="6.62252">
        <ele>693.25</ele>
        <time>2021-04-04T13:07:41Z</time>
      </trkpt>
      <trkpt lat="47.2823" lon="6.62124">
        <ele>691.81</ele>
        <time>2021-04-04T13:07:54Z</time>
      </trkpt>
      <trkpt lat="47.28189" lon="6.62061">
        <ele>691.81</ele>
        <time>2021-04-04T13:08:02Z</time>
      </trkpt>
      <trkpt lat="47.28183" lon="6.62055">
        <ele>691.81</ele>
        <time>2021-04-04T13:08:03Z</time>
      </trkpt>
      <trkpt lat="47.28138" lon="6.62017">
        <ele>692.29</ele>
        <time>2021-04-04T13:08:10Z</time>
      </trkpt>
      <trkpt lat="47.28133" lon="6.62009">
        <ele>692.29</ele>
        <time>2021-04-04T13:08:11Z</time>
      </trkpt>
      <trkpt lat="47.28128" lon="6.62001">
        <ele>692.29</ele>
        <time>2021-04-04T13:08:12Z</time>
      </trkpt>
      <trkpt lat="47.28084" lon="6.61871">
        <ele>693.73</ele>
        <time>2021-04-04T13:08:26Z</time>
      </trkpt>
      <trkpt lat="47.28064" lon="6.61728">
        <ele>690.36</ele>
        <time>2021-04-04T13:08:38Z</time>
      </trkpt>
      <trkpt lat="47.28043" lon="6.61579">
        <ele>687</ele>
        <time>2021-04-04T13:08:49Z</time>
      </trkpt>
      <trkpt lat="47.28035" lon="6.61521">
        <ele>684.6</ele>
        <time>2021-04-04T13:08:53Z</time>
      </trkpt>
      <trkpt lat="47.28034" lon="6.61507">
        <ele>685.08</ele>
        <time>2021-04-04T13:08:54Z</time>
      </trkpt>
      <trkpt lat="47.28032" lon="6.61477">
        <ele>684.12</ele>
        <time>2021-04-04T13:08:56Z</time>
      </trkpt>
      <trkpt lat="47.28004" lon="6.61306">
        <ele>681.23</ele>
        <time>2021-04-04T13:09:08Z</time>
      </trkpt>
      <trkpt lat="47.27991" lon="6.61271">
        <ele>681.71</ele>
        <time>2021-04-04T13:09:11Z</time>
      </trkpt>
      <trkpt lat="47.27985" lon="6.61261">
        <ele>681.71</ele>
        <time>2021-04-04T13:09:12Z</time>
      </trkpt>
      <trkpt lat="47.27978" lon="6.61254">
        <ele>682.19</ele>
        <time>2021-04-04T13:09:13Z</time>
      </trkpt>
      <trkpt lat="47.2797" lon="6.61249">
        <ele>681.71</ele>
        <time>2021-04-04T13:09:14Z</time>
      </trkpt>
      <trkpt lat="47.27963" lon="6.61243">
        <ele>681.23</ele>
        <time>2021-04-04T13:09:15Z</time>
      </trkpt>
      <trkpt lat="47.27956" lon="6.61236">
        <ele>680.75</ele>
        <time>2021-04-04T13:09:16Z</time>
      </trkpt>
      <trkpt lat="47.2795" lon="6.61228">
        <ele>681.23</ele>
        <time>2021-04-04T13:09:17Z</time>
      </trkpt>
      <trkpt lat="47.27945" lon="6.61218">
        <ele>680.75</ele>
        <time>2021-04-04T13:09:18Z</time>
      </trkpt>
      <trkpt lat="47.27939" lon="6.61209">
        <ele>680.27</ele>
        <time>2021-04-04T13:09:19Z</time>
      </trkpt>
      <trkpt lat="47.27932" lon="6.61201">
        <ele>680.27</ele>
        <time>2021-04-04T13:09:20Z</time>
      </trkpt>
      <trkpt lat="47.27925" lon="6.61195">
        <ele>680.27</ele>
        <time>2021-04-04T13:09:21Z</time>
      </trkpt>
      <trkpt lat="47.27918" lon="6.6119">
        <ele>679.79</ele>
        <time>2021-04-04T13:09:22Z</time>
      </trkpt>
      <trkpt lat="47.2791" lon="6.61187">
        <ele>680.27</ele>
        <time>2021-04-04T13:09:23Z</time>
      </trkpt>
      <trkpt lat="47.27901" lon="6.61184">
        <ele>681.23</ele>
        <time>2021-04-04T13:09:24Z</time>
      </trkpt>
      <trkpt lat="47.27893" lon="6.61183">
        <ele>680.27</ele>
        <time>2021-04-04T13:09:25Z</time>
      </trkpt>
      <trkpt lat="47.27886" lon="6.61181">
        <ele>679.79</ele>
        <time>2021-04-04T13:09:26Z</time>
      </trkpt>
      <trkpt lat="47.27869" lon="6.61174">
        <ele>679.31</ele>
        <time>2021-04-04T13:09:28Z</time>
      </trkpt>
      <trkpt lat="47.2786" lon="6.61171">
        <ele>679.79</ele>
        <time>2021-04-04T13:09:29Z</time>
      </trkpt>
      <trkpt lat="47.27851" lon="6.6117">
        <ele>679.79</ele>
        <time>2021-04-04T13:09:30Z</time>
      </trkpt>
      <trkpt lat="47.27842" lon="6.6117">
        <ele>680.75</ele>
        <time>2021-04-04T13:09:31Z</time>
      </trkpt>
      <trkpt lat="47.27834" lon="6.6117">
        <ele>679.79</ele>
        <time>2021-04-04T13:09:32Z</time>
      </trkpt>
      <trkpt lat="47.2777" lon="6.61181">
        <ele>681.23</ele>
        <time>2021-04-04T13:09:43Z</time>
      </trkpt>
      <trkpt lat="47.27713" lon="6.61193">
        <ele>684.6</ele>
        <time>2021-04-04T13:09:55Z</time>
      </trkpt>
      <trkpt lat="47.27708" lon="6.61193">
        <ele>684.6</ele>
        <time>2021-04-04T13:09:56Z</time>
      </trkpt>
      <trkpt lat="47.27694" lon="6.61191">
        <ele>685.56</ele>
        <time>2021-04-04T13:09:59Z</time>
      </trkpt>
      <trkpt lat="47.27653" lon="6.61185">
        <ele>687.48</ele>
        <time>2021-04-04T13:10:08Z</time>
      </trkpt>
      <trkpt lat="47.27603" lon="6.61177">
        <ele>690.84</ele>
        <time>2021-04-04T13:10:20Z</time>
      </trkpt>
      <trkpt lat="47.27537" lon="6.6117">
        <ele>693.25</ele>
        <time>2021-04-04T13:10:37Z</time>
      </trkpt>
      <trkpt lat="47.27488" lon="6.61162">
        <ele>695.65</ele>
        <time>2021-04-04T13:10:49Z</time>
      </trkpt>
      <trkpt lat="47.27442" lon="6.61144">
        <ele>699.02</ele>
        <time>2021-04-04T13:11:01Z</time>
      </trkpt>
      <trkpt lat="47.27407" lon="6.61128">
        <ele>701.42</ele>
        <time>2021-04-04T13:11:10Z</time>
      </trkpt>
      <trkpt lat="47.27361" lon="6.61101">
        <ele>703.82</ele>
        <time>2021-04-04T13:11:21Z</time>
      </trkpt>
      <trkpt lat="47.27349" lon="6.61092">
        <ele>704.3</ele>
        <time>2021-04-04T13:11:24Z</time>
      </trkpt>
      <trkpt lat="47.27291" lon="6.61078">
        <ele>705.75</ele>
        <time>2021-04-04T13:11:37Z</time>
      </trkpt>
      <trkpt lat="47.27286" lon="6.61077">
        <ele>705.75</ele>
        <time>2021-04-04T13:11:38Z</time>
      </trkpt>
      <trkpt lat="47.27217" lon="6.61051">
        <ele>708.63</ele>
        <time>2021-04-04T13:11:54Z</time>
      </trkpt>
      <trkpt lat="47.27174" lon="6.61041">
        <ele>711.51</ele>
        <time>2021-04-04T13:12:05Z</time>
      </trkpt>
      <trkpt lat="47.2717" lon="6.61042">
        <ele>711.99</ele>
        <time>2021-04-04T13:12:06Z</time>
      </trkpt>
      <trkpt lat="47.27166" lon="6.61044">
        <ele>712.47</ele>
        <time>2021-04-04T13:12:07Z</time>
      </trkpt>
      <trkpt lat="47.27163" lon="6.61047">
        <ele>712.47</ele>
        <time>2021-04-04T13:12:08Z</time>
      </trkpt>
      <trkpt lat="47.27159" lon="6.6105">
        <ele>712.95</ele>
        <time>2021-04-04T13:12:09Z</time>
      </trkpt>
      <trkpt lat="47.27155" lon="6.61053">
        <ele>713.44</ele>
        <time>2021-04-04T13:12:10Z</time>
      </trkpt>
      <trkpt lat="47.27144" lon="6.6107">
        <ele>714.88</ele>
        <time>2021-04-04T13:12:14Z</time>
      </trkpt>
      <trkpt lat="47.27142" lon="6.61075">
        <ele>715.36</ele>
        <time>2021-04-04T13:12:15Z</time>
      </trkpt>
      <trkpt lat="47.27138" lon="6.61091">
        <ele>716.8</ele>
        <time>2021-04-04T13:12:18Z</time>
      </trkpt>
      <trkpt lat="47.27129" lon="6.61147">
        <ele>720.16</ele>
        <time>2021-04-04T13:12:29Z</time>
      </trkpt>
      <trkpt lat="47.27111" lon="6.61228">
        <ele>722.57</ele>
        <time>2021-04-04T13:12:46Z</time>
      </trkpt>
      <trkpt lat="47.27107" lon="6.61309">
        <ele>725.93</ele>
        <time>2021-04-04T13:13:03Z</time>
      </trkpt>
      <trkpt lat="47.27112" lon="6.61398">
        <ele>728.82</ele>
        <time>2021-04-04T13:13:21Z</time>
      </trkpt>
      <trkpt lat="47.27125" lon="6.61465">
        <ele>731.7</ele>
        <time>2021-04-04T13:13:35Z</time>
      </trkpt>
      <trkpt lat="47.27131" lon="6.61549">
        <ele>734.1</ele>
        <time>2021-04-04T13:13:52Z</time>
      </trkpt>
      <trkpt lat="47.27119" lon="6.6165">
        <ele>736.99</ele>
        <time>2021-04-04T13:14:10Z</time>
      </trkpt>
      <trkpt lat="47.2709" lon="6.61735">
        <ele>738.91</ele>
        <time>2021-04-04T13:14:26Z</time>
      </trkpt>
      <trkpt lat="47.27085" lon="6.61745">
        <ele>738.91</ele>
        <time>2021-04-04T13:14:28Z</time>
      </trkpt>
      <trkpt lat="47.27067" lon="6.61786">
        <ele>740.35</ele>
        <time>2021-04-04T13:14:36Z</time>
      </trkpt>
      <trkpt lat="47.27058" lon="6.61801">
        <ele>741.31</ele>
        <time>2021-04-04T13:14:39Z</time>
      </trkpt>
      <trkpt lat="47.27029" lon="6.61855">
        <ele>742.28</ele>
        <time>2021-04-04T13:14:50Z</time>
      </trkpt>
      <trkpt lat="47.27026" lon="6.6186">
        <ele>742.76</ele>
        <time>2021-04-04T13:14:51Z</time>
      </trkpt>
      <trkpt lat="47.27024" lon="6.61865">
        <ele>742.76</ele>
        <time>2021-04-04T13:14:52Z</time>
      </trkpt>
      <trkpt lat="47.27022" lon="6.6187">
        <ele>743.24</ele>
        <time>2021-04-04T13:14:53Z</time>
      </trkpt>
      <trkpt lat="47.2702" lon="6.61875">
        <ele>743.24</ele>
        <time>2021-04-04T13:14:54Z</time>
      </trkpt>
      <trkpt lat="47.27018" lon="6.6188">
        <ele>743.72</ele>
        <time>2021-04-04T13:14:55Z</time>
      </trkpt>
      <trkpt lat="47.27017" lon="6.61886">
        <ele>744.2</ele>
        <time>2021-04-04T13:14:56Z</time>
      </trkpt>
      <trkpt lat="47.27008" lon="6.61963">
        <ele>747.56</ele>
        <time>2021-04-04T13:15:09Z</time>
      </trkpt>
      <trkpt lat="47.27008" lon="6.61969">
        <ele>747.56</ele>
        <time>2021-04-04T13:15:10Z</time>
      </trkpt>
      <trkpt lat="47.27013" lon="6.62018">
        <ele>748.52</ele>
        <time>2021-04-04T13:15:18Z</time>
      </trkpt>
      <trkpt lat="47.27014" lon="6.62024">
        <ele>748.52</ele>
        <time>2021-04-04T13:15:19Z</time>
      </trkpt>
      <trkpt lat="47.27018" lon="6.62063">
        <ele>749.49</ele>
        <time>2021-04-04T13:15:26Z</time>
      </trkpt>
      <trkpt lat="47.27017" lon="6.62068">
        <ele>749</ele>
        <time>2021-04-04T13:15:27Z</time>
      </trkpt>
      <trkpt lat="47.27017" lon="6.62074">
        <ele>749</ele>
        <time>2021-04-04T13:15:28Z</time>
      </trkpt>
      <trkpt lat="47.27015" lon="6.62088">
        <ele>748.52</ele>
        <time>2021-04-04T13:15:30Z</time>
      </trkpt>
      <trkpt lat="47.2701" lon="6.6211">
        <ele>748.04</ele>
        <time>2021-04-04T13:15:33Z</time>
      </trkpt>
      <trkpt lat="47.27008" lon="6.62117">
        <ele>748.04</ele>
        <time>2021-04-04T13:15:34Z</time>
      </trkpt>
      <trkpt lat="47.27005" lon="6.62123">
        <ele>747.56</ele>
        <time>2021-04-04T13:15:35Z</time>
      </trkpt>
      <trkpt lat="47.27001" lon="6.62129">
        <ele>748.04</ele>
        <time>2021-04-04T13:15:36Z</time>
      </trkpt>
      <trkpt lat="47.26997" lon="6.62135">
        <ele>747.56</ele>
        <time>2021-04-04T13:15:37Z</time>
      </trkpt>
      <trkpt lat="47.26992" lon="6.62141">
        <ele>747.56</ele>
        <time>2021-04-04T13:15:38Z</time>
      </trkpt>
      <trkpt lat="47.26986" lon="6.62146">
        <ele>748.04</ele>
        <time>2021-04-04T13:15:39Z</time>
      </trkpt>
      <trkpt lat="47.26917" lon="6.62203">
        <ele>744.68</ele>
        <time>2021-04-04T13:15:51Z</time>
      </trkpt>
      <trkpt lat="47.26911" lon="6.62208">
        <ele>744.68</ele>
        <time>2021-04-04T13:15:52Z</time>
      </trkpt>
      <trkpt lat="47.26859" lon="6.6224">
        <ele>743.24</ele>
        <time>2021-04-04T13:16:00Z</time>
      </trkpt>
      <trkpt lat="47.26823" lon="6.6225">
        <ele>743.24</ele>
        <time>2021-04-04T13:16:05Z</time>
      </trkpt>
      <trkpt lat="47.26787" lon="6.62272">
        <ele>741.79</ele>
        <time>2021-04-04T13:16:10Z</time>
      </trkpt>
      <trkpt lat="47.26765" lon="6.62288">
        <ele>740.83</ele>
        <time>2021-04-04T13:16:13Z</time>
      </trkpt>
      <trkpt lat="47.2675" lon="6.62299">
        <ele>739.39</ele>
        <time>2021-04-04T13:16:15Z</time>
      </trkpt>
      <trkpt lat="47.26735" lon="6.62308">
        <ele>739.39</ele>
        <time>2021-04-04T13:16:17Z</time>
      </trkpt>
      <trkpt lat="47.26726" lon="6.6231">
        <ele>739.87</ele>
        <time>2021-04-04T13:16:18Z</time>
      </trkpt>
      <trkpt lat="47.26717" lon="6.62311">
        <ele>739.39</ele>
        <time>2021-04-04T13:16:19Z</time>
      </trkpt>
      <trkpt lat="47.26692" lon="6.62313">
        <ele>740.83</ele>
        <time>2021-04-04T13:16:22Z</time>
      </trkpt>
      <trkpt lat="47.26631" lon="6.62324">
        <ele>739.39</ele>
        <time>2021-04-04T13:16:29Z</time>
      </trkpt>
      <trkpt lat="47.26622" lon="6.62324">
        <ele>739.39</ele>
        <time>2021-04-04T13:16:30Z</time>
      </trkpt>
      <trkpt lat="47.26564" lon="6.62319">
        <ele>737.47</ele>
        <time>2021-04-04T13:16:36Z</time>
      </trkpt>
      <trkpt lat="47.26554" lon="6.62321">
        <ele>736.99</ele>
        <time>2021-04-04T13:16:37Z</time>
      </trkpt>
      <trkpt lat="47.26545" lon="6.62325">
        <ele>736.51</ele>
        <time>2021-04-04T13:16:38Z</time>
      </trkpt>
      <trkpt lat="47.26487" lon="6.62359">
        <ele>733.14</ele>
        <time>2021-04-04T13:16:44Z</time>
      </trkpt>
      <trkpt lat="47.26333" lon="6.62457">
        <ele>730.26</ele>
        <time>2021-04-04T13:17:00Z</time>
      </trkpt>
      <trkpt lat="47.26265" lon="6.62499">
        <ele>726.89</ele>
        <time>2021-04-04T13:17:07Z</time>
      </trkpt>
      <trkpt lat="47.26234" lon="6.62518">
        <ele>728.34</ele>
        <time>2021-04-04T13:17:10Z</time>
      </trkpt>
      <trkpt lat="47.26215" lon="6.6253">
        <ele>726.41</ele>
        <time>2021-04-04T13:17:12Z</time>
      </trkpt>
      <trkpt lat="47.26106" lon="6.62604">
        <ele>726.89</ele>
        <time>2021-04-04T13:17:25Z</time>
      </trkpt>
      <trkpt lat="47.26001" lon="6.62671">
        <ele>727.37</ele>
        <time>2021-04-04T13:17:37Z</time>
      </trkpt>
      <trkpt lat="47.2592" lon="6.62681">
        <ele>728.34</ele>
        <time>2021-04-04T13:17:47Z</time>
      </trkpt>
      <trkpt lat="47.25854" lon="6.62674">
        <ele>729.3</ele>
        <time>2021-04-04T13:17:56Z</time>
      </trkpt>
      <trkpt lat="47.25846" lon="6.6267">
        <ele>729.3</ele>
        <time>2021-04-04T13:17:57Z</time>
      </trkpt>
      <trkpt lat="47.2584" lon="6.62665">
        <ele>729.3</ele>
        <time>2021-04-04T13:17:58Z</time>
      </trkpt>
      <trkpt lat="47.25833" lon="6.62659">
        <ele>729.3</ele>
        <time>2021-04-04T13:17:59Z</time>
      </trkpt>
      <trkpt lat="47.25827" lon="6.62652">
        <ele>728.34</ele>
        <time>2021-04-04T13:18:00Z</time>
      </trkpt>
      <trkpt lat="47.25822" lon="6.62643">
        <ele>727.86</ele>
        <time>2021-04-04T13:18:01Z</time>
      </trkpt>
      <trkpt lat="47.25816" lon="6.62634">
        <ele>728.82</ele>
        <time>2021-04-04T13:18:02Z</time>
      </trkpt>
      <trkpt lat="47.25812" lon="6.62624">
        <ele>729.3</ele>
        <time>2021-04-04T13:18:03Z</time>
      </trkpt>
      <trkpt lat="47.25798" lon="6.62594">
        <ele>726.89</ele>
        <time>2021-04-04T13:18:06Z</time>
      </trkpt>
      <trkpt lat="47.25774" lon="6.62544">
        <ele>725.93</ele>
        <time>2021-04-04T13:18:11Z</time>
      </trkpt>
      <trkpt lat="47.25768" lon="6.62537">
        <ele>726.41</ele>
        <time>2021-04-04T13:18:12Z</time>
      </trkpt>
      <trkpt lat="47.25762" lon="6.6253">
        <ele>726.41</ele>
        <time>2021-04-04T13:18:13Z</time>
      </trkpt>
      <trkpt lat="47.25756" lon="6.62525">
        <ele>726.41</ele>
        <time>2021-04-04T13:18:14Z</time>
      </trkpt>
      <trkpt lat="47.25748" lon="6.62521">
        <ele>726.41</ele>
        <time>2021-04-04T13:18:15Z</time>
      </trkpt>
      <trkpt lat="47.25741" lon="6.62517">
        <ele>726.41</ele>
        <time>2021-04-04T13:18:16Z</time>
      </trkpt>
      <trkpt lat="47.25626" lon="6.62477">
        <ele>728.82</ele>
        <time>2021-04-04T13:18:33Z</time>
      </trkpt>
      <trkpt lat="47.25594" lon="6.62457">
        <ele>729.3</ele>
        <time>2021-04-04T13:18:39Z</time>
      </trkpt>
      <trkpt lat="47.2559" lon="6.62453">
        <ele>729.3</ele>
        <time>2021-04-04T13:18:40Z</time>
      </trkpt>
      <trkpt lat="47.25528" lon="6.62384">
        <ele>729.3</ele>
        <time>2021-04-04T13:18:53Z</time>
      </trkpt>
      <trkpt lat="47.25441" lon="6.6233">
        <ele>728.82</ele>
        <time>2021-04-04T13:19:06Z</time>
      </trkpt>
      <trkpt lat="47.25435" lon="6.62324">
        <ele>728.82</ele>
        <time>2021-04-04T13:19:07Z</time>
      </trkpt>
      <trkpt lat="47.25429" lon="6.62318">
        <ele>728.34</ele>
        <time>2021-04-04T13:19:08Z</time>
      </trkpt>
      <trkpt lat="47.25423" lon="6.62311">
        <ele>727.86</ele>
        <time>2021-04-04T13:19:09Z</time>
      </trkpt>
      <trkpt lat="47.25417" lon="6.62303">
        <ele>727.37</ele>
        <time>2021-04-04T13:19:10Z</time>
      </trkpt>
      <trkpt lat="47.25412" lon="6.62294">
        <ele>727.37</ele>
        <time>2021-04-04T13:19:11Z</time>
      </trkpt>
      <trkpt lat="47.25407" lon="6.62284">
        <ele>726.89</ele>
        <time>2021-04-04T13:19:12Z</time>
      </trkpt>
      <trkpt lat="47.25403" lon="6.62274">
        <ele>726.89</ele>
        <time>2021-04-04T13:19:13Z</time>
      </trkpt>
      <trkpt lat="47.254" lon="6.62263">
        <ele>726.89</ele>
        <time>2021-04-04T13:19:14Z</time>
      </trkpt>
      <trkpt lat="47.25397" lon="6.62251">
        <ele>725.93</ele>
        <time>2021-04-04T13:19:15Z</time>
      </trkpt>
      <trkpt lat="47.25395" lon="6.62239">
        <ele>725.93</ele>
        <time>2021-04-04T13:19:16Z</time>
      </trkpt>
      <trkpt lat="47.25376" lon="6.62059">
        <ele>724.49</ele>
        <time>2021-04-04T13:19:30Z</time>
      </trkpt>
      <trkpt lat="47.25357" lon="6.61888">
        <ele>724.01</ele>
        <time>2021-04-04T13:19:44Z</time>
      </trkpt>
      <trkpt lat="47.2534" lon="6.61767">
        <ele>722.57</ele>
        <time>2021-04-04T13:19:56Z</time>
      </trkpt>
      <trkpt lat="47.25339" lon="6.61755">
        <ele>722.57</ele>
        <time>2021-04-04T13:19:57Z</time>
      </trkpt>
      <trkpt lat="47.25338" lon="6.61744">
        <ele>722.57</ele>
        <time>2021-04-04T13:19:58Z</time>
      </trkpt>
      <trkpt lat="47.25336" lon="6.61709">
        <ele>724.01</ele>
        <time>2021-04-04T13:20:01Z</time>
      </trkpt>
      <trkpt lat="47.25331" lon="6.61663">
        <ele>721.61</ele>
        <time>2021-04-04T13:20:05Z</time>
      </trkpt>
      <trkpt lat="47.25317" lon="6.61598">
        <ele>722.09</ele>
        <time>2021-04-04T13:20:11Z</time>
      </trkpt>
      <trkpt lat="47.25313" lon="6.61589">
        <ele>723.05</ele>
        <time>2021-04-04T13:20:12Z</time>
      </trkpt>
      <trkpt lat="47.25308" lon="6.61579">
        <ele>723.05</ele>
        <time>2021-04-04T13:20:13Z</time>
      </trkpt>
      <trkpt lat="47.25261" lon="6.61442">
        <ele>724.97</ele>
        <time>2021-04-04T13:20:26Z</time>
      </trkpt>
      <trkpt lat="47.25236" lon="6.61278">
        <ele>727.86</ele>
        <time>2021-04-04T13:20:42Z</time>
      </trkpt>
      <trkpt lat="47.25196" lon="6.61134">
        <ele>727.37</ele>
        <time>2021-04-04T13:20:57Z</time>
      </trkpt>
      <trkpt lat="47.25192" lon="6.61126">
        <ele>727.37</ele>
        <time>2021-04-04T13:20:58Z</time>
      </trkpt>
      <trkpt lat="47.25188" lon="6.61118">
        <ele>727.37</ele>
        <time>2021-04-04T13:20:59Z</time>
      </trkpt>
      <trkpt lat="47.25182" lon="6.61112">
        <ele>727.86</ele>
        <time>2021-04-04T13:21:00Z</time>
      </trkpt>
      <trkpt lat="47.25176" lon="6.61107">
        <ele>728.34</ele>
        <time>2021-04-04T13:21:01Z</time>
      </trkpt>
      <trkpt lat="47.2517" lon="6.61102">
        <ele>728.34</ele>
        <time>2021-04-04T13:21:02Z</time>
      </trkpt>
      <trkpt lat="47.25065" lon="6.61015">
        <ele>728.82</ele>
        <time>2021-04-04T13:21:19Z</time>
      </trkpt>
      <trkpt lat="47.24976" lon="6.60963">
        <ele>729.78</ele>
        <time>2021-04-04T13:21:32Z</time>
      </trkpt>
      <trkpt lat="47.24969" lon="6.60957">
        <ele>729.78</ele>
        <time>2021-04-04T13:21:33Z</time>
      </trkpt>
      <trkpt lat="47.24963" lon="6.60951">
        <ele>730.26</ele>
        <time>2021-04-04T13:21:34Z</time>
      </trkpt>
      <trkpt lat="47.24952" lon="6.60938">
        <ele>730.74</ele>
        <time>2021-04-04T13:21:36Z</time>
      </trkpt>
      <trkpt lat="47.24947" lon="6.60931">
        <ele>731.22</ele>
        <time>2021-04-04T13:21:37Z</time>
      </trkpt>
      <trkpt lat="47.24942" lon="6.60922">
        <ele>730.74</ele>
        <time>2021-04-04T13:21:38Z</time>
      </trkpt>
      <trkpt lat="47.24852" lon="6.60784">
        <ele>728.82</ele>
        <time>2021-04-04T13:21:53Z</time>
      </trkpt>
      <trkpt lat="47.24746" lon="6.60617">
        <ele>725.93</ele>
        <time>2021-04-04T13:22:08Z</time>
      </trkpt>
      <trkpt lat="47.24644" lon="6.60426">
        <ele>722.57</ele>
        <time>2021-04-04T13:22:23Z</time>
      </trkpt>
      <trkpt lat="47.24557" lon="6.60257">
        <ele>720.65</ele>
        <time>2021-04-04T13:22:36Z</time>
      </trkpt>
      <trkpt lat="47.24443" lon="6.6015">
        <ele>719.2</ele>
        <time>2021-04-04T13:22:48Z</time>
      </trkpt>
      <trkpt lat="47.24333" lon="6.60039">
        <ele>718.24</ele>
        <time>2021-04-04T13:23:01Z</time>
      </trkpt>
      <trkpt lat="47.24206" lon="6.5992">
        <ele>718.24</ele>
        <time>2021-04-04T13:23:17Z</time>
      </trkpt>
      <trkpt lat="47.24131" lon="6.59843">
        <ele>719.2</ele>
        <time>2021-04-04T13:23:27Z</time>
      </trkpt>
      <trkpt lat="47.24103" lon="6.5978">
        <ele>721.13</ele>
        <time>2021-04-04T13:23:33Z</time>
      </trkpt>
      <trkpt lat="47.24091" lon="6.59723">
        <ele>723.05</ele>
        <time>2021-04-04T13:23:38Z</time>
      </trkpt>
      <trkpt lat="47.2405" lon="6.59548">
        <ele>721.61</ele>
        <time>2021-04-04T13:23:53Z</time>
      </trkpt>
      <trkpt lat="47.23972" lon="6.59299">
        <ele>720.16</ele>
        <time>2021-04-04T13:24:13Z</time>
      </trkpt>
      <trkpt lat="47.23903" lon="6.59078">
        <ele>718.24</ele>
        <time>2021-04-04T13:24:31Z</time>
      </trkpt>
      <trkpt lat="47.23828" lon="6.589">
        <ele>717.28</ele>
        <time>2021-04-04T13:24:46Z</time>
      </trkpt>
      <trkpt lat="47.23713" lon="6.58679">
        <ele>714.4</ele>
        <time>2021-04-04T13:25:04Z</time>
      </trkpt>
      <trkpt lat="47.23599" lon="6.58461">
        <ele>711.99</ele>
        <time>2021-04-04T13:25:21Z</time>
      </trkpt>
      <trkpt lat="47.23506" lon="6.58268">
        <ele>710.55</ele>
        <time>2021-04-04T13:25:36Z</time>
      </trkpt>
      <trkpt lat="47.2345" lon="6.58062">
        <ele>710.07</ele>
        <time>2021-04-04T13:25:51Z</time>
      </trkpt>
      <trkpt lat="47.23429" lon="6.57973">
        <ele>708.63</ele>
        <time>2021-04-04T13:25:57Z</time>
      </trkpt>
      <trkpt lat="47.23368" lon="6.57771">
        <ele>705.26</ele>
        <time>2021-04-04T13:26:11Z</time>
      </trkpt>
      <trkpt lat="47.23257" lon="6.57541">
        <ele>702.38</ele>
        <time>2021-04-04T13:26:28Z</time>
      </trkpt>
      <trkpt lat="47.23218" lon="6.5746">
        <ele>699.98</ele>
        <time>2021-04-04T13:26:34Z</time>
      </trkpt>
      <trkpt lat="47.23155" lon="6.57254">
        <ele>698.05</ele>
        <time>2021-04-04T13:26:47Z</time>
      </trkpt>
      <trkpt lat="47.23111" lon="6.57036">
        <ele>696.61</ele>
        <time>2021-04-04T13:27:01Z</time>
      </trkpt>
      <trkpt lat="47.23042" lon="6.56864">
        <ele>698.53</ele>
        <time>2021-04-04T13:27:16Z</time>
      </trkpt>
      <trkpt lat="47.22956" lon="6.56658">
        <ele>700.46</ele>
        <time>2021-04-04T13:27:35Z</time>
      </trkpt>
      <trkpt lat="47.22874" lon="6.5646">
        <ele>697.57</ele>
        <time>2021-04-04T13:27:52Z</time>
      </trkpt>
      <trkpt lat="47.22784" lon="6.56282">
        <ele>695.17</ele>
        <time>2021-04-04T13:28:07Z</time>
      </trkpt>
      <trkpt lat="47.22668" lon="6.56124">
        <ele>693.25</ele>
        <time>2021-04-04T13:28:22Z</time>
      </trkpt>
      <trkpt lat="47.22495" lon="6.55892">
        <ele>691.81</ele>
        <time>2021-04-04T13:28:44Z</time>
      </trkpt>
      <trkpt lat="47.22387" lon="6.55747">
        <ele>695.17</ele>
        <time>2021-04-04T13:28:59Z</time>
      </trkpt>
      <trkpt lat="47.22381" lon="6.55738">
        <ele>695.17</ele>
        <time>2021-04-04T13:29:00Z</time>
      </trkpt>
      <trkpt lat="47.22293" lon="6.55611">
        <ele>695.65</ele>
        <time>2021-04-04T13:29:15Z</time>
      </trkpt>
      <trkpt lat="47.22203" lon="6.55447">
        <ele>694.21</ele>
        <time>2021-04-04T13:29:32Z</time>
      </trkpt>
      <trkpt lat="47.22119" lon="6.55269">
        <ele>693.25</ele>
        <time>2021-04-04T13:29:49Z</time>
      </trkpt>
      <trkpt lat="47.22066" lon="6.55192">
        <ele>696.61</ele>
        <time>2021-04-04T13:29:59Z</time>
      </trkpt>
      <trkpt lat="47.22016" lon="6.55128">
        <ele>699.5</ele>
        <time>2021-04-04T13:30:09Z</time>
      </trkpt>
      <trkpt lat="47.21973" lon="6.55063">
        <ele>702.38</ele>
        <time>2021-04-04T13:30:19Z</time>
      </trkpt>
      <trkpt lat="47.21969" lon="6.55049">
        <ele>702.38</ele>
        <time>2021-04-04T13:30:26Z</time>
      </trkpt>
      <trkpt lat="47.2197" lon="6.5505">
        <ele>702.38</ele>
        <time>2021-04-04T13:30:50Z</time>
      </trkpt>
      <trkpt lat="47.2197" lon="6.55051">
        <ele>702.38</ele>
        <time>2021-04-04T13:31:25Z</time>
      </trkpt>
      <trkpt lat="47.2197" lon="6.55052">
        <ele>702.38</ele>
        <time>2021-04-04T13:32:01Z</time>
      </trkpt>
      <trkpt lat="47.21971" lon="6.55051">
        <ele>702.86</ele>
        <time>2021-04-04T13:32:32Z</time>
      </trkpt>
      <trkpt lat="47.2197" lon="6.55051">
        <ele>702.38</ele>
        <time>2021-04-04T13:33:17Z</time>
      </trkpt>
      <trkpt lat="47.21968" lon="6.5505">
        <ele>702.38</ele>
        <time>2021-04-04T13:33:47Z</time>
      </trkpt>
      <trkpt lat="47.21969" lon="6.55052">
        <ele>702.86</ele>
        <time>2021-04-04T13:34:19Z</time>
      </trkpt>
      <trkpt lat="47.21967" lon="6.55057">
        <ele>702.86</ele>
        <time>2021-04-04T13:34:45Z</time>
      </trkpt>
      <trkpt lat="47.21966" lon="6.55056">
        <ele>703.34</ele>
        <time>2021-04-04T13:34:48Z</time>
      </trkpt>
      <trkpt lat="47.21965" lon="6.55056">
        <ele>703.34</ele>
        <time>2021-04-04T13:34:49Z</time>
      </trkpt>
      <trkpt lat="47.21964" lon="6.55054">
        <ele>703.34</ele>
        <time>2021-04-04T13:34:50Z</time>
      </trkpt>
      <trkpt lat="47.21944" lon="6.55017">
        <ele>703.82</ele>
        <time>2021-04-04T13:35:00Z</time>
      </trkpt>
      <trkpt lat="47.21941" lon="6.55012">
        <ele>704.3</ele>
        <time>2021-04-04T13:35:01Z</time>
      </trkpt>
      <trkpt lat="47.21896" lon="6.54924">
        <ele>705.26</ele>
        <time>2021-04-04T13:35:15Z</time>
      </trkpt>
      <trkpt lat="47.2184" lon="6.54761">
        <ele>705.26</ele>
        <time>2021-04-04T13:35:34Z</time>
      </trkpt>
      <trkpt lat="47.21795" lon="6.54616">
        <ele>703.82</ele>
        <time>2021-04-04T13:35:48Z</time>
      </trkpt>
      <trkpt lat="47.21756" lon="6.54429">
        <ele>702.38</ele>
        <time>2021-04-04T13:36:05Z</time>
      </trkpt>
      <trkpt lat="47.2176" lon="6.543">
        <ele>704.3</ele>
        <time>2021-04-04T13:36:17Z</time>
      </trkpt>
      <trkpt lat="47.21762" lon="6.54265">
        <ele>703.82</ele>
        <time>2021-04-04T13:36:21Z</time>
      </trkpt>
      <trkpt lat="47.21763" lon="6.54257">
        <ele>704.3</ele>
        <time>2021-04-04T13:36:22Z</time>
      </trkpt>
      <trkpt lat="47.21767" lon="6.54238">
        <ele>704.3</ele>
        <time>2021-04-04T13:36:26Z</time>
      </trkpt>
      <trkpt lat="47.21765" lon="6.54235">
        <ele>704.3</ele>
        <time>2021-04-04T13:36:27Z</time>
      </trkpt>
      <trkpt lat="47.21763" lon="6.54232">
        <ele>704.3</ele>
        <time>2021-04-04T13:36:28Z</time>
      </trkpt>
      <trkpt lat="47.21757" lon="6.54227">
        <ele>704.3</ele>
        <time>2021-04-04T13:36:30Z</time>
      </trkpt>
      <trkpt lat="47.21679" lon="6.5415">
        <ele>703.34</ele>
        <time>2021-04-04T13:36:44Z</time>
      </trkpt>
      <trkpt lat="47.21578" lon="6.54041">
        <ele>700.46</ele>
        <time>2021-04-04T13:36:59Z</time>
      </trkpt>
      <trkpt lat="47.21532" lon="6.53989">
        <ele>698.53</ele>
        <time>2021-04-04T13:37:06Z</time>
      </trkpt>
      <trkpt lat="47.21508" lon="6.5395">
        <ele>697.09</ele>
        <time>2021-04-04T13:37:12Z</time>
      </trkpt>
      <trkpt lat="47.21505" lon="6.53947">
        <ele>697.09</ele>
        <time>2021-04-04T13:37:13Z</time>
      </trkpt>
      <trkpt lat="47.215" lon="6.53946">
        <ele>697.09</ele>
        <time>2021-04-04T13:37:14Z</time>
      </trkpt>
      <trkpt lat="47.21497" lon="6.53948">
        <ele>696.61</ele>
        <time>2021-04-04T13:37:15Z</time>
      </trkpt>
      <trkpt lat="47.21495" lon="6.53951">
        <ele>696.61</ele>
        <time>2021-04-04T13:37:16Z</time>
      </trkpt>
      <trkpt lat="47.21494" lon="6.53954">
        <ele>696.61</ele>
        <time>2021-04-04T13:37:17Z</time>
      </trkpt>
      <trkpt lat="47.21493" lon="6.53957">
        <ele>697.09</ele>
        <time>2021-04-04T13:37:18Z</time>
      </trkpt>
      <trkpt lat="47.21494" lon="6.5396">
        <ele>697.09</ele>
        <time>2021-04-04T13:37:19Z</time>
      </trkpt>
      <trkpt lat="47.21496" lon="6.53961">
        <ele>697.09</ele>
        <time>2021-04-04T13:37:20Z</time>
      </trkpt>
      <trkpt lat="47.21499" lon="6.53962">
        <ele>697.09</ele>
        <time>2021-04-04T13:37:30Z</time>
      </trkpt>
      <trkpt lat="47.21495" lon="6.53963">
        <ele>697.09</ele>
        <time>2021-04-04T13:38:02Z</time>
      </trkpt>
      <trkpt lat="47.21496" lon="6.53963">
        <ele>697.57</ele>
        <time>2021-04-04T13:38:52Z</time>
      </trkpt>
      <trkpt lat="47.21499" lon="6.53963">
        <ele>697.09</ele>
        <time>2021-04-04T13:39:37Z</time>
      </trkpt>
      <trkpt lat="47.21497" lon="6.53961">
        <ele>697.57</ele>
        <time>2021-04-04T13:40:26Z</time>
      </trkpt>
      <trkpt lat="47.21498" lon="6.53961">
        <ele>697.57</ele>
        <time>2021-04-04T13:41:09Z</time>
      </trkpt>
      <trkpt lat="47.21496" lon="6.53957">
        <ele>698.05</ele>
        <time>2021-04-04T13:41:41Z</time>
      </trkpt>
      <trkpt lat="47.21496" lon="6.53961">
        <ele>698.05</ele>
        <time>2021-04-04T13:41:45Z</time>
      </trkpt>
      <trkpt lat="47.21495" lon="6.53963">
        <ele>698.05</ele>
        <time>2021-04-04T13:41:46Z</time>
      </trkpt>
      <trkpt lat="47.21494" lon="6.53964">
        <ele>697.57</ele>
        <time>2021-04-04T13:41:47Z</time>
      </trkpt>
      <trkpt lat="47.21481" lon="6.53979">
        <ele>698.53</ele>
        <time>2021-04-04T13:41:53Z</time>
      </trkpt>
      <trkpt lat="47.21449" lon="6.54059">
        <ele>698.53</ele>
        <time>2021-04-04T13:42:04Z</time>
      </trkpt>
      <trkpt lat="47.21428" lon="6.54157">
        <ele>701.9</ele>
        <time>2021-04-04T13:42:15Z</time>
      </trkpt>
      <trkpt lat="47.21392" lon="6.54283">
        <ele>702.38</ele>
        <time>2021-04-04T13:42:31Z</time>
      </trkpt>
      <trkpt lat="47.21387" lon="6.5429">
        <ele>701.9</ele>
        <time>2021-04-04T13:42:32Z</time>
      </trkpt>
      <trkpt lat="47.21382" lon="6.54297">
        <ele>700.94</ele>
        <time>2021-04-04T13:42:33Z</time>
      </trkpt>
      <trkpt lat="47.21375" lon="6.54305">
        <ele>700.94</ele>
        <time>2021-04-04T13:42:34Z</time>
      </trkpt>
      <trkpt lat="47.2137" lon="6.54309">
        <ele>700.94</ele>
        <time>2021-04-04T13:42:35Z</time>
      </trkpt>
      <trkpt lat="47.21363" lon="6.54314">
        <ele>699.98</ele>
        <time>2021-04-04T13:42:36Z</time>
      </trkpt>
      <trkpt lat="47.21356" lon="6.54317">
        <ele>699.5</ele>
        <time>2021-04-04T13:42:37Z</time>
      </trkpt>
      <trkpt lat="47.21347" lon="6.54319">
        <ele>699.5</ele>
        <time>2021-04-04T13:42:38Z</time>
      </trkpt>
      <trkpt lat="47.21339" lon="6.54319">
        <ele>698.05</ele>
        <time>2021-04-04T13:42:39Z</time>
      </trkpt>
      <trkpt lat="47.2133" lon="6.54316">
        <ele>697.57</ele>
        <time>2021-04-04T13:42:40Z</time>
      </trkpt>
      <trkpt lat="47.2132" lon="6.54312">
        <ele>697.57</ele>
        <time>2021-04-04T13:42:41Z</time>
      </trkpt>
      <trkpt lat="47.21311" lon="6.54306">
        <ele>697.09</ele>
        <time>2021-04-04T13:42:42Z</time>
      </trkpt>
      <trkpt lat="47.21276" lon="6.54283">
        <ele>696.13</ele>
        <time>2021-04-04T13:42:46Z</time>
      </trkpt>
      <trkpt lat="47.21198" lon="6.54237">
        <ele>693.25</ele>
        <time>2021-04-04T13:42:54Z</time>
      </trkpt>
      <trkpt lat="47.21188" lon="6.54234">
        <ele>691.81</ele>
        <time>2021-04-04T13:42:55Z</time>
      </trkpt>
      <trkpt lat="47.21177" lon="6.54233">
        <ele>691.33</ele>
        <time>2021-04-04T13:42:56Z</time>
      </trkpt>
      <trkpt lat="47.21167" lon="6.54235">
        <ele>691.33</ele>
        <time>2021-04-04T13:42:57Z</time>
      </trkpt>
      <trkpt lat="47.21156" lon="6.54239">
        <ele>691.33</ele>
        <time>2021-04-04T13:42:58Z</time>
      </trkpt>
      <trkpt lat="47.21146" lon="6.54245">
        <ele>689.88</ele>
        <time>2021-04-04T13:42:59Z</time>
      </trkpt>
      <trkpt lat="47.21136" lon="6.54252">
        <ele>689.88</ele>
        <time>2021-04-04T13:43:00Z</time>
      </trkpt>
      <trkpt lat="47.21117" lon="6.54267">
        <ele>688.44</ele>
        <time>2021-04-04T13:43:02Z</time>
      </trkpt>
      <trkpt lat="47.21109" lon="6.54277">
        <ele>687.96</ele>
        <time>2021-04-04T13:43:03Z</time>
      </trkpt>
      <trkpt lat="47.21103" lon="6.54287">
        <ele>687.96</ele>
        <time>2021-04-04T13:43:04Z</time>
      </trkpt>
      <trkpt lat="47.21099" lon="6.54298">
        <ele>687.48</ele>
        <time>2021-04-04T13:43:05Z</time>
      </trkpt>
      <trkpt lat="47.21097" lon="6.5431">
        <ele>687.48</ele>
        <time>2021-04-04T13:43:06Z</time>
      </trkpt>
      <trkpt lat="47.21097" lon="6.54321">
        <ele>687</ele>
        <time>2021-04-04T13:43:07Z</time>
      </trkpt>
      <trkpt lat="47.211" lon="6.54332">
        <ele>687</ele>
        <time>2021-04-04T13:43:08Z</time>
      </trkpt>
      <trkpt lat="47.21104" lon="6.54343">
        <ele>686.52</ele>
        <time>2021-04-04T13:43:09Z</time>
      </trkpt>
      <trkpt lat="47.2111" lon="6.54353">
        <ele>686.04</ele>
        <time>2021-04-04T13:43:10Z</time>
      </trkpt>
      <trkpt lat="47.21117" lon="6.54364">
        <ele>686.04</ele>
        <time>2021-04-04T13:43:11Z</time>
      </trkpt>
      <trkpt lat="47.21124" lon="6.54375">
        <ele>686.04</ele>
        <time>2021-04-04T13:43:12Z</time>
      </trkpt>
      <trkpt lat="47.21138" lon="6.54399">
        <ele>684.12</ele>
        <time>2021-04-04T13:43:14Z</time>
      </trkpt>
      <trkpt lat="47.21156" lon="6.5444">
        <ele>682.67</ele>
        <time>2021-04-04T13:43:17Z</time>
      </trkpt>
      <trkpt lat="47.21165" lon="6.54469">
        <ele>681.23</ele>
        <time>2021-04-04T13:43:19Z</time>
      </trkpt>
      <trkpt lat="47.21166" lon="6.54484">
        <ele>680.75</ele>
        <time>2021-04-04T13:43:20Z</time>
      </trkpt>
      <trkpt lat="47.21165" lon="6.545">
        <ele>680.27</ele>
        <time>2021-04-04T13:43:21Z</time>
      </trkpt>
      <trkpt lat="47.21158" lon="6.54579">
        <ele>676.91</ele>
        <time>2021-04-04T13:43:26Z</time>
      </trkpt>
      <trkpt lat="47.21152" lon="6.54628">
        <ele>675.46</ele>
        <time>2021-04-04T13:43:29Z</time>
      </trkpt>
      <trkpt lat="47.2113" lon="6.547">
        <ele>672.58</ele>
        <time>2021-04-04T13:43:34Z</time>
      </trkpt>
      <trkpt lat="47.21116" lon="6.54735">
        <ele>670.18</ele>
        <time>2021-04-04T13:43:37Z</time>
      </trkpt>
      <trkpt lat="47.21113" lon="6.54746">
        <ele>669.22</ele>
        <time>2021-04-04T13:43:38Z</time>
      </trkpt>
      <trkpt lat="47.21108" lon="6.54768">
        <ele>668.73</ele>
        <time>2021-04-04T13:43:40Z</time>
      </trkpt>
      <trkpt lat="47.21108" lon="6.54776">
        <ele>667.77</ele>
        <time>2021-04-04T13:43:41Z</time>
      </trkpt>
      <trkpt lat="47.21108" lon="6.54782">
        <ele>667.29</ele>
        <time>2021-04-04T13:43:42Z</time>
      </trkpt>
      <trkpt lat="47.21109" lon="6.54789">
        <ele>667.29</ele>
        <time>2021-04-04T13:43:43Z</time>
      </trkpt>
      <trkpt lat="47.2111" lon="6.54797">
        <ele>667.29</ele>
        <time>2021-04-04T13:43:44Z</time>
      </trkpt>
      <trkpt lat="47.21112" lon="6.54805">
        <ele>666.81</ele>
        <time>2021-04-04T13:43:45Z</time>
      </trkpt>
      <trkpt lat="47.21115" lon="6.54814">
        <ele>666.33</ele>
        <time>2021-04-04T13:43:46Z</time>
      </trkpt>
      <trkpt lat="47.21119" lon="6.54823">
        <ele>665.85</ele>
        <time>2021-04-04T13:43:47Z</time>
      </trkpt>
      <trkpt lat="47.21123" lon="6.54832">
        <ele>665.85</ele>
        <time>2021-04-04T13:43:48Z</time>
      </trkpt>
      <trkpt lat="47.21129" lon="6.5484">
        <ele>665.37</ele>
        <time>2021-04-04T13:43:49Z</time>
      </trkpt>
      <trkpt lat="47.21135" lon="6.5485">
        <ele>664.89</ele>
        <time>2021-04-04T13:43:50Z</time>
      </trkpt>
      <trkpt lat="47.21195" lon="6.54926">
        <ele>661.52</ele>
        <time>2021-04-04T13:43:58Z</time>
      </trkpt>
      <trkpt lat="47.21239" lon="6.54988">
        <ele>658.64</ele>
        <time>2021-04-04T13:44:04Z</time>
      </trkpt>
      <trkpt lat="47.21253" lon="6.55013">
        <ele>657.2</ele>
        <time>2021-04-04T13:44:06Z</time>
      </trkpt>
      <trkpt lat="47.21258" lon="6.55027">
        <ele>656.72</ele>
        <time>2021-04-04T13:44:07Z</time>
      </trkpt>
      <trkpt lat="47.21265" lon="6.55053">
        <ele>655.76</ele>
        <time>2021-04-04T13:44:09Z</time>
      </trkpt>
      <trkpt lat="47.21267" lon="6.55064">
        <ele>655.28</ele>
        <time>2021-04-04T13:44:10Z</time>
      </trkpt>
      <trkpt lat="47.21271" lon="6.55123">
        <ele>652.39</ele>
        <time>2021-04-04T13:44:16Z</time>
      </trkpt>
      <trkpt lat="47.21268" lon="6.5513">
        <ele>651.91</ele>
        <time>2021-04-04T13:44:17Z</time>
      </trkpt>
      <trkpt lat="47.21264" lon="6.55137">
        <ele>652.39</ele>
        <time>2021-04-04T13:44:18Z</time>
      </trkpt>
      <trkpt lat="47.2126" lon="6.55141">
        <ele>651.91</ele>
        <time>2021-04-04T13:44:19Z</time>
      </trkpt>
      <trkpt lat="47.21255" lon="6.55145">
        <ele>652.39</ele>
        <time>2021-04-04T13:44:20Z</time>
      </trkpt>
      <trkpt lat="47.21249" lon="6.55147">
        <ele>651.91</ele>
        <time>2021-04-04T13:44:21Z</time>
      </trkpt>
      <trkpt lat="47.21244" lon="6.55149">
        <ele>651.43</ele>
        <time>2021-04-04T13:44:22Z</time>
      </trkpt>
      <trkpt lat="47.21239" lon="6.55153">
        <ele>650.95</ele>
        <time>2021-04-04T13:44:23Z</time>
      </trkpt>
      <trkpt lat="47.21235" lon="6.55158">
        <ele>650.95</ele>
        <time>2021-04-04T13:44:24Z</time>
      </trkpt>
      <trkpt lat="47.21227" lon="6.55178">
        <ele>649.99</ele>
        <time>2021-04-04T13:44:27Z</time>
      </trkpt>
      <trkpt lat="47.21226" lon="6.55183">
        <ele>649.51</ele>
        <time>2021-04-04T13:44:28Z</time>
      </trkpt>
      <trkpt lat="47.21226" lon="6.55186">
        <ele>649.03</ele>
        <time>2021-04-04T13:44:29Z</time>
      </trkpt>
      <trkpt lat="47.21228" lon="6.55189">
        <ele>649.03</ele>
        <time>2021-04-04T13:44:30Z</time>
      </trkpt>
      <trkpt lat="47.21231" lon="6.55196">
        <ele>648.55</ele>
        <time>2021-04-04T13:44:40Z</time>
      </trkpt>
      <trkpt lat="47.21234" lon="6.55198">
        <ele>648.55</ele>
        <time>2021-04-04T13:45:21Z</time>
      </trkpt>
      <trkpt lat="47.21235" lon="6.552">
        <ele>648.55</ele>
        <time>2021-04-04T13:45:50Z</time>
      </trkpt>
      <trkpt lat="47.21237" lon="6.55202">
        <ele>648.55</ele>
        <time>2021-04-04T13:46:27Z</time>
      </trkpt>
      <trkpt lat="47.21244" lon="6.55207">
        <ele>648.55</ele>
        <time>2021-04-04T13:46:56Z</time>
      </trkpt>
      <trkpt lat="47.21238" lon="6.55206">
        <ele>648.07</ele>
        <time>2021-04-04T13:47:33Z</time>
      </trkpt>
      <trkpt lat="47.21227" lon="6.55229">
        <ele>646.62</ele>
        <time>2021-04-04T13:47:42Z</time>
      </trkpt>
      <trkpt lat="47.21212" lon="6.5523">
        <ele>645.18</ele>
        <time>2021-04-04T13:47:49Z</time>
      </trkpt>
      <trkpt lat="47.21206" lon="6.55215">
        <ele>644.22</ele>
        <time>2021-04-04T13:48:03Z</time>
      </trkpt>
      <trkpt lat="47.21207" lon="6.55215">
        <ele>644.22</ele>
        <time>2021-04-04T13:48:04Z</time>
      </trkpt>
      <trkpt lat="47.21206" lon="6.55219">
        <ele>644.22</ele>
        <time>2021-04-04T13:48:22Z</time>
      </trkpt>
      <trkpt lat="47.21218" lon="6.55212">
        <ele>644.22</ele>
        <time>2021-04-04T13:48:53Z</time>
      </trkpt>
      <trkpt lat="47.21216" lon="6.552">
        <ele>644.7</ele>
        <time>2021-04-04T13:49:18Z</time>
      </trkpt>
      <trkpt lat="47.21204" lon="6.55202">
        <ele>645.18</ele>
        <time>2021-04-04T13:49:41Z</time>
      </trkpt>
      <trkpt lat="47.21208" lon="6.55197">
        <ele>645.66</ele>
        <time>2021-04-04T13:50:13Z</time>
      </trkpt>
      <trkpt lat="47.212" lon="6.55194">
        <ele>645.66</ele>
        <time>2021-04-04T13:50:26Z</time>
      </trkpt>
      <trkpt lat="47.21199" lon="6.55191">
        <ele>645.66</ele>
        <time>2021-04-04T13:50:27Z</time>
      </trkpt>
      <trkpt lat="47.21198" lon="6.55187">
        <ele>645.18</ele>
        <time>2021-04-04T13:50:28Z</time>
      </trkpt>
      <trkpt lat="47.21197" lon="6.55182">
        <ele>645.18</ele>
        <time>2021-04-04T13:50:29Z</time>
      </trkpt>
      <trkpt lat="47.21197" lon="6.55177">
        <ele>644.7</ele>
        <time>2021-04-04T13:50:30Z</time>
      </trkpt>
      <trkpt lat="47.21197" lon="6.55172">
        <ele>645.18</ele>
        <time>2021-04-04T13:50:31Z</time>
      </trkpt>
      <trkpt lat="47.21199" lon="6.55169">
        <ele>644.7</ele>
        <time>2021-04-04T13:50:32Z</time>
      </trkpt>
      <trkpt lat="47.21203" lon="6.55166">
        <ele>644.7</ele>
        <time>2021-04-04T13:50:33Z</time>
      </trkpt>
      <trkpt lat="47.21208" lon="6.55164">
        <ele>644.22</ele>
        <time>2021-04-04T13:50:34Z</time>
      </trkpt>
      <trkpt lat="47.21234" lon="6.55138">
        <ele>643.74</ele>
        <time>2021-04-04T13:50:39Z</time>
      </trkpt>
      <trkpt lat="47.21249" lon="6.55114">
        <ele>642.78</ele>
        <time>2021-04-04T13:50:42Z</time>
      </trkpt>
      <trkpt lat="47.21254" lon="6.55103">
        <ele>641.82</ele>
        <time>2021-04-04T13:50:43Z</time>
      </trkpt>
      <trkpt lat="47.2127" lon="6.5507">
        <ele>639.89</ele>
        <time>2021-04-04T13:50:47Z</time>
      </trkpt>
      <trkpt lat="47.21269" lon="6.55059">
        <ele>639.89</ele>
        <time>2021-04-04T13:50:48Z</time>
      </trkpt>
      <trkpt lat="47.21266" lon="6.55052">
        <ele>639.41</ele>
        <time>2021-04-04T13:50:49Z</time>
      </trkpt>
      <trkpt lat="47.21263" lon="6.55041">
        <ele>639.89</ele>
        <time>2021-04-04T13:50:50Z</time>
      </trkpt>
      <trkpt lat="47.21261" lon="6.55032">
        <ele>638.93</ele>
        <time>2021-04-04T13:50:51Z</time>
      </trkpt>
      <trkpt lat="47.2122" lon="6.54964">
        <ele>636.05</ele>
        <time>2021-04-04T13:50:57Z</time>
      </trkpt>
      <trkpt lat="47.21208" lon="6.54948">
        <ele>635.09</ele>
        <time>2021-04-04T13:50:58Z</time>
      </trkpt>
      <trkpt lat="47.21197" lon="6.54933">
        <ele>634.13</ele>
        <time>2021-04-04T13:51:00Z</time>
      </trkpt>
      <trkpt lat="47.2115" lon="6.54896">
        <ele>632.2</ele>
        <time>2021-04-04T13:51:04Z</time>
      </trkpt>
      <trkpt lat="47.21107" lon="6.54871">
        <ele>629.8</ele>
        <time>2021-04-04T13:51:08Z</time>
      </trkpt>
      <trkpt lat="47.21077" lon="6.54855">
        <ele>627.88</ele>
        <time>2021-04-04T13:51:11Z</time>
      </trkpt>
      <trkpt lat="47.21068" lon="6.54849">
        <ele>626.92</ele>
        <time>2021-04-04T13:51:12Z</time>
      </trkpt>
      <trkpt lat="47.21043" lon="6.54821">
        <ele>624.51</ele>
        <time>2021-04-04T13:51:15Z</time>
      </trkpt>
      <trkpt lat="47.21036" lon="6.54809">
        <ele>624.51</ele>
        <time>2021-04-04T13:51:16Z</time>
      </trkpt>
      <trkpt lat="47.21025" lon="6.54783">
        <ele>622.59</ele>
        <time>2021-04-04T13:51:18Z</time>
      </trkpt>
      <trkpt lat="47.21022" lon="6.5477">
        <ele>622.59</ele>
        <time>2021-04-04T13:51:19Z</time>
      </trkpt>
      <trkpt lat="47.21021" lon="6.54757">
        <ele>621.63</ele>
        <time>2021-04-04T13:51:20Z</time>
      </trkpt>
      <trkpt lat="47.21022" lon="6.54742">
        <ele>621.63</ele>
        <time>2021-04-04T13:51:21Z</time>
      </trkpt>
      <trkpt lat="47.21022" lon="6.54727">
        <ele>621.15</ele>
        <time>2021-04-04T13:51:22Z</time>
      </trkpt>
      <trkpt lat="47.21025" lon="6.54697">
        <ele>620.19</ele>
        <time>2021-04-04T13:51:24Z</time>
      </trkpt>
      <trkpt lat="47.21038" lon="6.546">
        <ele>618.26</ele>
        <time>2021-04-04T13:51:30Z</time>
      </trkpt>
      <trkpt lat="47.21042" lon="6.54571">
        <ele>616.34</ele>
        <time>2021-04-04T13:51:32Z</time>
      </trkpt>
      <trkpt lat="47.21043" lon="6.54559">
        <ele>615.38</ele>
        <time>2021-04-04T13:51:33Z</time>
      </trkpt>
      <trkpt lat="47.21041" lon="6.5454">
        <ele>613.46</ele>
        <time>2021-04-04T13:51:35Z</time>
      </trkpt>
      <trkpt lat="47.21039" lon="6.54533">
        <ele>612.98</ele>
        <time>2021-04-04T13:51:36Z</time>
      </trkpt>
      <trkpt lat="47.21036" lon="6.54528">
        <ele>612.98</ele>
        <time>2021-04-04T13:51:37Z</time>
      </trkpt>
      <trkpt lat="47.21032" lon="6.54523">
        <ele>612.5</ele>
        <time>2021-04-04T13:51:38Z</time>
      </trkpt>
      <trkpt lat="47.21029" lon="6.54521">
        <ele>612.02</ele>
        <time>2021-04-04T13:51:39Z</time>
      </trkpt>
      <trkpt lat="47.21023" lon="6.54523">
        <ele>612.02</ele>
        <time>2021-04-04T13:51:42Z</time>
      </trkpt>
      <trkpt lat="47.20985" lon="6.54568">
        <ele>610.09</ele>
        <time>2021-04-04T13:51:48Z</time>
      </trkpt>
      <trkpt lat="47.20935" lon="6.5463">
        <ele>606.25</ele>
        <time>2021-04-04T13:51:53Z</time>
      </trkpt>
      <trkpt lat="47.20925" lon="6.5464">
        <ele>605.77</ele>
        <time>2021-04-04T13:51:54Z</time>
      </trkpt>
      <trkpt lat="47.20914" lon="6.54646">
        <ele>605.29</ele>
        <time>2021-04-04T13:51:55Z</time>
      </trkpt>
      <trkpt lat="47.20902" lon="6.54652">
        <ele>604.81</ele>
        <time>2021-04-04T13:51:56Z</time>
      </trkpt>
      <trkpt lat="47.20891" lon="6.54653">
        <ele>603.85</ele>
        <time>2021-04-04T13:51:57Z</time>
      </trkpt>
      <trkpt lat="47.20882" lon="6.54653">
        <ele>601.92</ele>
        <time>2021-04-04T13:51:58Z</time>
      </trkpt>
      <trkpt lat="47.20874" lon="6.54651">
        <ele>600.96</ele>
        <time>2021-04-04T13:51:59Z</time>
      </trkpt>
      <trkpt lat="47.20868" lon="6.5465">
        <ele>600</ele>
        <time>2021-04-04T13:52:00Z</time>
      </trkpt>
      <trkpt lat="47.20862" lon="6.54643">
        <ele>600.48</ele>
        <time>2021-04-04T13:52:01Z</time>
      </trkpt>
      <trkpt lat="47.20857" lon="6.54634">
        <ele>599.52</ele>
        <time>2021-04-04T13:52:02Z</time>
      </trkpt>
      <trkpt lat="47.20823" lon="6.5455">
        <ele>596.15</ele>
        <time>2021-04-04T13:52:10Z</time>
      </trkpt>
      <trkpt lat="47.20819" lon="6.54542">
        <ele>595.19</ele>
        <time>2021-04-04T13:52:12Z</time>
      </trkpt>
      <trkpt lat="47.20816" lon="6.54543">
        <ele>595.19</ele>
        <time>2021-04-04T13:52:27Z</time>
      </trkpt>
      <trkpt lat="47.20818" lon="6.54541">
        <ele>596.15</ele>
        <time>2021-04-04T13:52:57Z</time>
      </trkpt>
      <trkpt lat="47.20816" lon="6.5454">
        <ele>596.15</ele>
        <time>2021-04-04T13:52:59Z</time>
      </trkpt>
      <trkpt lat="47.20814" lon="6.54538">
        <ele>595.67</ele>
        <time>2021-04-04T13:53:00Z</time>
      </trkpt>
      <trkpt lat="47.20801" lon="6.54525">
        <ele>595.67</ele>
        <time>2021-04-04T13:53:04Z</time>
      </trkpt>
      <trkpt lat="47.20797" lon="6.54522">
        <ele>595.67</ele>
        <time>2021-04-04T13:53:05Z</time>
      </trkpt>
      <trkpt lat="47.20781" lon="6.54515">
        <ele>594.23</ele>
        <time>2021-04-04T13:53:08Z</time>
      </trkpt>
      <trkpt lat="47.20776" lon="6.54517">
        <ele>594.23</ele>
        <time>2021-04-04T13:53:09Z</time>
      </trkpt>
      <trkpt lat="47.20771" lon="6.54522">
        <ele>593.75</ele>
        <time>2021-04-04T13:53:10Z</time>
      </trkpt>
      <trkpt lat="47.20767" lon="6.54529">
        <ele>593.27</ele>
        <time>2021-04-04T13:53:11Z</time>
      </trkpt>
      <trkpt lat="47.20765" lon="6.54537">
        <ele>592.79</ele>
        <time>2021-04-04T13:53:12Z</time>
      </trkpt>
      <trkpt lat="47.20765" lon="6.54548">
        <ele>591.83</ele>
        <time>2021-04-04T13:53:13Z</time>
      </trkpt>
      <trkpt lat="47.20765" lon="6.54558">
        <ele>591.83</ele>
        <time>2021-04-04T13:53:14Z</time>
      </trkpt>
      <trkpt lat="47.20766" lon="6.54638">
        <ele>588.95</ele>
        <time>2021-04-04T13:53:21Z</time>
      </trkpt>
      <trkpt lat="47.20757" lon="6.54671">
        <ele>586.54</ele>
        <time>2021-04-04T13:53:24Z</time>
      </trkpt>
      <trkpt lat="47.20743" lon="6.54702">
        <ele>584.62</ele>
        <time>2021-04-04T13:53:27Z</time>
      </trkpt>
      <trkpt lat="47.20723" lon="6.54729">
        <ele>582.7</ele>
        <time>2021-04-04T13:53:30Z</time>
      </trkpt>
      <trkpt lat="47.2065" lon="6.5469">
        <ele>582.22</ele>
        <time>2021-04-04T13:53:33Z</time>
      </trkpt>
      <trkpt lat="47.20615" lon="6.54713">
        <ele>579.33</ele>
        <time>2021-04-04T13:53:36Z</time>
      </trkpt>
      <trkpt lat="47.20557" lon="6.54754">
        <ele>576.45</ele>
        <time>2021-04-04T13:53:42Z</time>
      </trkpt>
      <trkpt lat="47.20539" lon="6.54767">
        <ele>575.01</ele>
        <time>2021-04-04T13:53:44Z</time>
      </trkpt>
      <trkpt lat="47.20532" lon="6.54777">
        <ele>573.08</ele>
        <time>2021-04-04T13:53:45Z</time>
      </trkpt>
      <trkpt lat="47.20528" lon="6.54787">
        <ele>574.04</ele>
        <time>2021-04-04T13:53:46Z</time>
      </trkpt>
      <trkpt lat="47.20508" lon="6.5483">
        <ele>570.68</ele>
        <time>2021-04-04T13:53:50Z</time>
      </trkpt>
      <trkpt lat="47.20502" lon="6.54842">
        <ele>570.68</ele>
        <time>2021-04-04T13:53:51Z</time>
      </trkpt>
      <trkpt lat="47.20471" lon="6.54886">
        <ele>569.24</ele>
        <time>2021-04-04T13:53:55Z</time>
      </trkpt>
      <trkpt lat="47.20455" lon="6.54904">
        <ele>566.35</ele>
        <time>2021-04-04T13:53:57Z</time>
      </trkpt>
      <trkpt lat="47.20446" lon="6.54914">
        <ele>566.35</ele>
        <time>2021-04-04T13:53:58Z</time>
      </trkpt>
      <trkpt lat="47.20435" lon="6.54919">
        <ele>564.91</ele>
        <time>2021-04-04T13:53:59Z</time>
      </trkpt>
      <trkpt lat="47.20424" lon="6.5492">
        <ele>565.39</ele>
        <time>2021-04-04T13:54:00Z</time>
      </trkpt>
      <trkpt lat="47.20382" lon="6.54917">
        <ele>563.47</ele>
        <time>2021-04-04T13:54:04Z</time>
      </trkpt>
      <trkpt lat="47.20372" lon="6.54918">
        <ele>562.51</ele>
        <time>2021-04-04T13:54:05Z</time>
      </trkpt>
      <trkpt lat="47.20363" lon="6.54919">
        <ele>562.03</ele>
        <time>2021-04-04T13:54:06Z</time>
      </trkpt>
      <trkpt lat="47.2035" lon="6.54915">
        <ele>561.55</ele>
        <time>2021-04-04T13:54:07Z</time>
      </trkpt>
      <trkpt lat="47.20298" lon="6.54894">
        <ele>557.7</ele>
        <time>2021-04-04T13:54:12Z</time>
      </trkpt>
      <trkpt lat="47.20259" lon="6.54869">
        <ele>553.86</ele>
        <time>2021-04-04T13:54:16Z</time>
      </trkpt>
      <trkpt lat="47.20233" lon="6.54849">
        <ele>551.45</ele>
        <time>2021-04-04T13:54:20Z</time>
      </trkpt>
      <trkpt lat="47.20224" lon="6.54846">
        <ele>550.97</ele>
        <time>2021-04-04T13:54:22Z</time>
      </trkpt>
      <trkpt lat="47.20211" lon="6.54849">
        <ele>550.49</ele>
        <time>2021-04-04T13:54:25Z</time>
      </trkpt>
      <trkpt lat="47.20193" lon="6.54867">
        <ele>550.49</ele>
        <time>2021-04-04T13:54:28Z</time>
      </trkpt>
      <trkpt lat="47.20185" lon="6.54871">
        <ele>550.01</ele>
        <time>2021-04-04T13:54:29Z</time>
      </trkpt>
      <trkpt lat="47.2014" lon="6.5488">
        <ele>549.05</ele>
        <time>2021-04-04T13:54:34Z</time>
      </trkpt>
      <trkpt lat="47.20116" lon="6.54871">
        <ele>548.09</ele>
        <time>2021-04-04T13:54:37Z</time>
      </trkpt>
      <trkpt lat="47.20108" lon="6.54872">
        <ele>548.57</ele>
        <time>2021-04-04T13:54:38Z</time>
      </trkpt>
      <trkpt lat="47.20099" lon="6.54877">
        <ele>548.09</ele>
        <time>2021-04-04T13:54:39Z</time>
      </trkpt>
      <trkpt lat="47.20093" lon="6.54883">
        <ele>547.61</ele>
        <time>2021-04-04T13:54:40Z</time>
      </trkpt>
      <trkpt lat="47.20088" lon="6.54894">
        <ele>547.61</ele>
        <time>2021-04-04T13:54:41Z</time>
      </trkpt>
      <trkpt lat="47.20087" lon="6.54907">
        <ele>547.61</ele>
        <time>2021-04-04T13:54:42Z</time>
      </trkpt>
      <trkpt lat="47.20088" lon="6.54923">
        <ele>547.13</ele>
        <time>2021-04-04T13:54:43Z</time>
      </trkpt>
      <trkpt lat="47.2009" lon="6.54936">
        <ele>547.13</ele>
        <time>2021-04-04T13:54:44Z</time>
      </trkpt>
      <trkpt lat="47.2009" lon="6.5495">
        <ele>546.65</ele>
        <time>2021-04-04T13:54:45Z</time>
      </trkpt>
      <trkpt lat="47.20091" lon="6.54964">
        <ele>546.17</ele>
        <time>2021-04-04T13:54:46Z</time>
      </trkpt>
      <trkpt lat="47.20089" lon="6.54978">
        <ele>545.69</ele>
        <time>2021-04-04T13:54:47Z</time>
      </trkpt>
      <trkpt lat="47.20086" lon="6.54991">
        <ele>546.17</ele>
        <time>2021-04-04T13:54:48Z</time>
      </trkpt>
      <trkpt lat="47.20082" lon="6.55004">
        <ele>545.2</ele>
        <time>2021-04-04T13:54:49Z</time>
      </trkpt>
      <trkpt lat="47.20078" lon="6.55016">
        <ele>545.2</ele>
        <time>2021-04-04T13:54:50Z</time>
      </trkpt>
      <trkpt lat="47.20073" lon="6.55027">
        <ele>544.72</ele>
        <time>2021-04-04T13:54:51Z</time>
      </trkpt>
      <trkpt lat="47.2001" lon="6.55129">
        <ele>541.84</ele>
        <time>2021-04-04T13:55:01Z</time>
      </trkpt>
      <trkpt lat="47.19982" lon="6.552">
        <ele>540.4</ele>
        <time>2021-04-04T13:55:07Z</time>
      </trkpt>
      <trkpt lat="47.1998" lon="6.55213">
        <ele>540.4</ele>
        <time>2021-04-04T13:55:08Z</time>
      </trkpt>
      <trkpt lat="47.19976" lon="6.55254">
        <ele>538.96</ele>
        <time>2021-04-04T13:55:11Z</time>
      </trkpt>
      <trkpt lat="47.19951" lon="6.55436">
        <ele>535.59</ele>
        <time>2021-04-04T13:55:26Z</time>
      </trkpt>
      <trkpt lat="47.19916" lon="6.55636">
        <ele>533.19</ele>
        <time>2021-04-04T13:55:42Z</time>
      </trkpt>
      <trkpt lat="47.19904" lon="6.55819">
        <ele>530.3</ele>
        <time>2021-04-04T13:55:56Z</time>
      </trkpt>
      <trkpt lat="47.19873" lon="6.56004">
        <ele>530.3</ele>
        <time>2021-04-04T13:56:11Z</time>
      </trkpt>
      <trkpt lat="47.19854" lon="6.56072">
        <ele>530.3</ele>
        <time>2021-04-04T13:56:17Z</time>
      </trkpt>
      <trkpt lat="47.19855" lon="6.56183">
        <ele>527.42</ele>
        <time>2021-04-04T13:56:26Z</time>
      </trkpt>
      <trkpt lat="47.19852" lon="6.56208">
        <ele>526.94</ele>
        <time>2021-04-04T13:56:28Z</time>
      </trkpt>
      <trkpt lat="47.19812" lon="6.56357">
        <ele>525.98</ele>
        <time>2021-04-04T13:56:41Z</time>
      </trkpt>
      <trkpt lat="47.19794" lon="6.56396">
        <ele>525.5</ele>
        <time>2021-04-04T13:56:45Z</time>
      </trkpt>
      <trkpt lat="47.19788" lon="6.56404">
        <ele>525.5</ele>
        <time>2021-04-04T13:56:46Z</time>
      </trkpt>
      <trkpt lat="47.19769" lon="6.56428">
        <ele>525.02</ele>
        <time>2021-04-04T13:56:49Z</time>
      </trkpt>
      <trkpt lat="47.19759" lon="6.56445">
        <ele>525.02</ele>
        <time>2021-04-04T13:56:51Z</time>
      </trkpt>
      <trkpt lat="47.19754" lon="6.56454">
        <ele>525.02</ele>
        <time>2021-04-04T13:56:52Z</time>
      </trkpt>
      <trkpt lat="47.19751" lon="6.56464">
        <ele>525.02</ele>
        <time>2021-04-04T13:56:53Z</time>
      </trkpt>
      <trkpt lat="47.19711" lon="6.56584">
        <ele>524.06</ele>
        <time>2021-04-04T13:57:06Z</time>
      </trkpt>
      <trkpt lat="47.19712" lon="6.56596">
        <ele>524.06</ele>
        <time>2021-04-04T13:57:07Z</time>
      </trkpt>
      <trkpt lat="47.19714" lon="6.56607">
        <ele>524.06</ele>
        <time>2021-04-04T13:57:08Z</time>
      </trkpt>
      <trkpt lat="47.19716" lon="6.56618">
        <ele>523.09</ele>
        <time>2021-04-04T13:57:09Z</time>
      </trkpt>
      <trkpt lat="47.19718" lon="6.56629">
        <ele>523.09</ele>
        <time>2021-04-04T13:57:10Z</time>
      </trkpt>
      <trkpt lat="47.1972" lon="6.5664">
        <ele>523.09</ele>
        <time>2021-04-04T13:57:11Z</time>
      </trkpt>
      <trkpt lat="47.19723" lon="6.56767">
        <ele>520.69</ele>
        <time>2021-04-04T13:57:22Z</time>
      </trkpt>
      <trkpt lat="47.19725" lon="6.56819">
        <ele>519.25</ele>
        <time>2021-04-04T13:57:26Z</time>
      </trkpt>
      <trkpt lat="47.19736" lon="6.56902">
        <ele>516.37</ele>
        <time>2021-04-04T13:57:32Z</time>
      </trkpt>
      <trkpt lat="47.19749" lon="6.56959">
        <ele>514.44</ele>
        <time>2021-04-04T13:57:36Z</time>
      </trkpt>
      <trkpt lat="47.19759" lon="6.57036">
        <ele>511.08</ele>
        <time>2021-04-04T13:57:41Z</time>
      </trkpt>
      <trkpt lat="47.19764" lon="6.571">
        <ele>509.16</ele>
        <time>2021-04-04T13:57:45Z</time>
      </trkpt>
      <trkpt lat="47.19789" lon="6.57292">
        <ele>507.23</ele>
        <time>2021-04-04T13:57:59Z</time>
      </trkpt>
      <trkpt lat="47.1979" lon="6.5749">
        <ele>506.75</ele>
        <time>2021-04-04T13:58:14Z</time>
      </trkpt>
      <trkpt lat="47.19797" lon="6.57531">
        <ele>505.31</ele>
        <time>2021-04-04T13:58:17Z</time>
      </trkpt>
      <trkpt lat="47.19808" lon="6.57708">
        <ele>504.35</ele>
        <time>2021-04-04T13:58:31Z</time>
      </trkpt>
      <trkpt lat="47.19809" lon="6.57799">
        <ele>504.35</ele>
        <time>2021-04-04T13:58:38Z</time>
      </trkpt>
      <trkpt lat="47.1981" lon="6.57811">
        <ele>504.35</ele>
        <time>2021-04-04T13:58:39Z</time>
      </trkpt>
      <trkpt lat="47.19813" lon="6.57823">
        <ele>503.87</ele>
        <time>2021-04-04T13:58:40Z</time>
      </trkpt>
      <trkpt lat="47.19859" lon="6.57996">
        <ele>502.43</ele>
        <time>2021-04-04T13:58:55Z</time>
      </trkpt>
      <trkpt lat="47.19872" lon="6.58025">
        <ele>502.43</ele>
        <time>2021-04-04T13:58:58Z</time>
      </trkpt>
      <trkpt lat="47.19891" lon="6.58055">
        <ele>501.46</ele>
        <time>2021-04-04T13:59:02Z</time>
      </trkpt>
      <trkpt lat="47.19898" lon="6.58061">
        <ele>500.98</ele>
        <time>2021-04-04T13:59:03Z</time>
      </trkpt>
      <trkpt lat="47.19961" lon="6.58159">
        <ele>500.02</ele>
        <time>2021-04-04T13:59:14Z</time>
      </trkpt>
      <trkpt lat="47.19965" lon="6.5817">
        <ele>500.02</ele>
        <time>2021-04-04T13:59:15Z</time>
      </trkpt>
      <trkpt lat="47.1999" lon="6.58258">
        <ele>497.62</ele>
        <time>2021-04-04T13:59:23Z</time>
      </trkpt>
      <trkpt lat="47.19995" lon="6.58268">
        <ele>497.62</ele>
        <time>2021-04-04T13:59:24Z</time>
      </trkpt>
      <trkpt lat="47.2" lon="6.58278">
        <ele>496.66</ele>
        <time>2021-04-04T13:59:25Z</time>
      </trkpt>
      <trkpt lat="47.20007" lon="6.58287">
        <ele>495.7</ele>
        <time>2021-04-04T13:59:26Z</time>
      </trkpt>
      <trkpt lat="47.20015" lon="6.58294">
        <ele>495.22</ele>
        <time>2021-04-04T13:59:27Z</time>
      </trkpt>
      <trkpt lat="47.20023" lon="6.583">
        <ele>494.74</ele>
        <time>2021-04-04T13:59:28Z</time>
      </trkpt>
      <trkpt lat="47.20031" lon="6.58305">
        <ele>493.77</ele>
        <time>2021-04-04T13:59:29Z</time>
      </trkpt>
      <trkpt lat="47.2004" lon="6.58311">
        <ele>493.29</ele>
        <time>2021-04-04T13:59:30Z</time>
      </trkpt>
      <trkpt lat="47.20075" lon="6.58341">
        <ele>490.89</ele>
        <time>2021-04-04T13:59:34Z</time>
      </trkpt>
      <trkpt lat="47.20084" lon="6.58353">
        <ele>490.41</ele>
        <time>2021-04-04T13:59:35Z</time>
      </trkpt>
      <trkpt lat="47.20132" lon="6.58428">
        <ele>487.05</ele>
        <time>2021-04-04T13:59:41Z</time>
      </trkpt>
      <trkpt lat="47.20137" lon="6.58444">
        <ele>486.56</ele>
        <time>2021-04-04T13:59:42Z</time>
      </trkpt>
      <trkpt lat="47.20141" lon="6.58457">
        <ele>487.05</ele>
        <time>2021-04-04T13:59:43Z</time>
      </trkpt>
      <trkpt lat="47.20153" lon="6.58517">
        <ele>486.56</ele>
        <time>2021-04-04T13:59:47Z</time>
      </trkpt>
      <trkpt lat="47.20155" lon="6.58531">
        <ele>487.05</ele>
        <time>2021-04-04T13:59:48Z</time>
      </trkpt>
      <trkpt lat="47.20156" lon="6.58544">
        <ele>487.05</ele>
        <time>2021-04-04T13:59:49Z</time>
      </trkpt>
      <trkpt lat="47.20156" lon="6.58558">
        <ele>487.05</ele>
        <time>2021-04-04T13:59:50Z</time>
      </trkpt>
      <trkpt lat="47.20156" lon="6.58571">
        <ele>486.56</ele>
        <time>2021-04-04T13:59:51Z</time>
      </trkpt>
      <trkpt lat="47.20155" lon="6.58586">
        <ele>487.05</ele>
        <time>2021-04-04T13:59:52Z</time>
      </trkpt>
      <trkpt lat="47.20153" lon="6.58598">
        <ele>486.56</ele>
        <time>2021-04-04T13:59:53Z</time>
      </trkpt>
      <trkpt lat="47.20153" lon="6.5875">
        <ele>483.68</ele>
        <time>2021-04-04T14:00:05Z</time>
      </trkpt>
      <trkpt lat="47.20155" lon="6.58787">
        <ele>484.16</ele>
        <time>2021-04-04T14:00:08Z</time>
      </trkpt>
      <trkpt lat="47.20157" lon="6.58949">
        <ele>483.2</ele>
        <time>2021-04-04T14:00:22Z</time>
      </trkpt>
      <trkpt lat="47.20151" lon="6.59105">
        <ele>484.16</ele>
        <time>2021-04-04T14:00:35Z</time>
      </trkpt>
      <trkpt lat="47.20141" lon="6.59261">
        <ele>482.72</ele>
        <time>2021-04-04T14:00:49Z</time>
      </trkpt>
      <trkpt lat="47.20154" lon="6.59438">
        <ele>480.8</ele>
        <time>2021-04-04T14:01:04Z</time>
      </trkpt>
      <trkpt lat="47.20155" lon="6.59451">
        <ele>480.8</ele>
        <time>2021-04-04T14:01:05Z</time>
      </trkpt>
      <trkpt lat="47.20156" lon="6.59464">
        <ele>481.28</ele>
        <time>2021-04-04T14:01:06Z</time>
      </trkpt>
      <trkpt lat="47.20155" lon="6.59477">
        <ele>481.76</ele>
        <time>2021-04-04T14:01:07Z</time>
      </trkpt>
      <trkpt lat="47.20126" lon="6.59608">
        <ele>480.8</ele>
        <time>2021-04-04T14:01:19Z</time>
      </trkpt>
      <trkpt lat="47.20084" lon="6.5977">
        <ele>480.8</ele>
        <time>2021-04-04T14:01:34Z</time>
      </trkpt>
      <trkpt lat="47.20012" lon="6.59921">
        <ele>479.84</ele>
        <time>2021-04-04T14:01:50Z</time>
      </trkpt>
      <trkpt lat="47.1998" lon="6.60061">
        <ele>478.87</ele>
        <time>2021-04-04T14:02:03Z</time>
      </trkpt>
      <trkpt lat="47.19972" lon="6.60252">
        <ele>476.47</ele>
        <time>2021-04-04T14:02:19Z</time>
      </trkpt>
      <trkpt lat="47.19991" lon="6.60459">
        <ele>475.99</ele>
        <time>2021-04-04T14:02:36Z</time>
      </trkpt>
      <trkpt lat="47.20032" lon="6.60656">
        <ele>475.51</ele>
        <time>2021-04-04T14:02:53Z</time>
      </trkpt>
      <trkpt lat="47.20061" lon="6.60872">
        <ele>474.55</ele>
        <time>2021-04-04T14:03:12Z</time>
      </trkpt>
      <trkpt lat="47.20108" lon="6.61067">
        <ele>473.59</ele>
        <time>2021-04-04T14:03:29Z</time>
      </trkpt>
      <trkpt lat="47.20145" lon="6.61187">
        <ele>473.59</ele>
        <time>2021-04-04T14:03:40Z</time>
      </trkpt>
      <trkpt lat="47.20212" lon="6.61348">
        <ele>473.11</ele>
        <time>2021-04-04T14:03:56Z</time>
      </trkpt>
      <trkpt lat="47.20235" lon="6.61474">
        <ele>472.63</ele>
        <time>2021-04-04T14:04:08Z</time>
      </trkpt>
      <trkpt lat="47.20248" lon="6.61585">
        <ele>471.66</ele>
        <time>2021-04-04T14:04:22Z</time>
      </trkpt>
      <trkpt lat="47.20248" lon="6.61591">
        <ele>471.66</ele>
        <time>2021-04-04T14:04:23Z</time>
      </trkpt>
      <trkpt lat="47.20249" lon="6.61597">
        <ele>471.18</ele>
        <time>2021-04-04T14:04:24Z</time>
      </trkpt>
      <trkpt lat="47.20251" lon="6.61602">
        <ele>470.7</ele>
        <time>2021-04-04T14:04:25Z</time>
      </trkpt>
      <trkpt lat="47.20252" lon="6.61606">
        <ele>470.7</ele>
        <time>2021-04-04T14:04:26Z</time>
      </trkpt>
      <trkpt lat="47.20253" lon="6.61609">
        <ele>470.7</ele>
        <time>2021-04-04T14:04:27Z</time>
      </trkpt>
      <trkpt lat="47.20255" lon="6.6161">
        <ele>470.7</ele>
        <time>2021-04-04T14:04:28Z</time>
      </trkpt>
      <trkpt lat="47.20257" lon="6.61607">
        <ele>470.7</ele>
        <time>2021-04-04T14:04:29Z</time>
      </trkpt>
      <trkpt lat="47.20257" lon="6.61604">
        <ele>470.7</ele>
        <time>2021-04-04T14:04:30Z</time>
      </trkpt>
      <trkpt lat="47.20255" lon="6.61599">
        <ele>470.7</ele>
        <time>2021-04-04T14:04:32Z</time>
      </trkpt>
      <trkpt lat="47.20253" lon="6.61596">
        <ele>470.22</ele>
        <time>2021-04-04T14:04:33Z</time>
      </trkpt>
      <trkpt lat="47.20248" lon="6.61591">
        <ele>470.7</ele>
        <time>2021-04-04T14:04:34Z</time>
      </trkpt>
      <trkpt lat="47.20246" lon="6.61589">
        <ele>470.7</ele>
        <time>2021-04-04T14:04:35Z</time>
      </trkpt>
      <trkpt lat="47.20238" lon="6.61579">
        <ele>470.7</ele>
        <time>2021-04-04T14:04:46Z</time>
      </trkpt>
      <trkpt lat="47.20237" lon="6.6158">
        <ele>470.22</ele>
        <time>2021-04-04T14:04:48Z</time>
      </trkpt>
      <trkpt lat="47.20234" lon="6.61582">
        <ele>470.7</ele>
        <time>2021-04-04T14:04:51Z</time>
      </trkpt>
      <trkpt lat="47.20232" lon="6.61583">
        <ele>470.7</ele>
        <time>2021-04-04T14:04:52Z</time>
      </trkpt>
      <trkpt lat="47.20231" lon="6.61583">
        <ele>471.18</ele>
        <time>2021-04-04T14:04:53Z</time>
      </trkpt>
      <trkpt lat="47.20229" lon="6.61583">
        <ele>471.18</ele>
        <time>2021-04-04T14:04:54Z</time>
      </trkpt>
      <trkpt lat="47.20227" lon="6.61583">
        <ele>471.18</ele>
        <time>2021-04-04T14:04:55Z</time>
      </trkpt>
      <trkpt lat="47.20206" lon="6.61585">
        <ele>471.18</ele>
        <time>2021-04-04T14:05:07Z</time>
      </trkpt>
      <trkpt lat="47.20208" lon="6.61583">
        <ele>470.7</ele>
        <time>2021-04-04T14:05:23Z</time>
      </trkpt>
      <trkpt lat="47.20204" lon="6.61581">
        <ele>470.7</ele>
        <time>2021-04-04T14:05:59Z</time>
      </trkpt>
      <trkpt lat="47.20203" lon="6.61578">
        <ele>470.7</ele>
        <time>2021-04-04T14:06:36Z</time>
      </trkpt>
      <trkpt lat="47.20208" lon="6.61577">
        <ele>470.22</ele>
        <time>2021-04-04T14:07:02Z</time>
      </trkpt>
      <trkpt lat="47.20209" lon="6.61576">
        <ele>470.22</ele>
        <time>2021-04-04T14:07:04Z</time>
      </trkpt>
      <trkpt lat="47.20211" lon="6.61575">
        <ele>469.74</ele>
        <time>2021-04-04T14:07:05Z</time>
      </trkpt>
      <trkpt lat="47.20213" lon="6.61574">
        <ele>470.22</ele>
        <time>2021-04-04T14:07:06Z</time>
      </trkpt>
      <trkpt lat="47.20214" lon="6.61574">
        <ele>470.22</ele>
        <time>2021-04-04T14:07:07Z</time>
      </trkpt>
      <trkpt lat="47.20216" lon="6.61574">
        <ele>469.74</ele>
        <time>2021-04-04T14:07:08Z</time>
      </trkpt>
      <trkpt lat="47.20238" lon="6.6158">
        <ele>469.74</ele>
        <time>2021-04-04T14:07:16Z</time>
      </trkpt>
      <trkpt lat="47.20241" lon="6.61577">
        <ele>469.74</ele>
        <time>2021-04-04T14:07:17Z</time>
      </trkpt>
      <trkpt lat="47.20243" lon="6.61572">
        <ele>469.26</ele>
        <time>2021-04-04T14:07:19Z</time>
      </trkpt>
      <trkpt lat="47.20243" lon="6.61568">
        <ele>469.74</ele>
        <time>2021-04-04T14:07:20Z</time>
      </trkpt>
      <trkpt lat="47.20242" lon="6.61564">
        <ele>469.26</ele>
        <time>2021-04-04T14:07:21Z</time>
      </trkpt>
      <trkpt lat="47.20238" lon="6.61553">
        <ele>469.74</ele>
        <time>2021-04-04T14:07:25Z</time>
      </trkpt>
      <trkpt lat="47.20238" lon="6.61553">
        <ele>469.26</ele>
        <time>2021-04-04T14:07:26Z</time>
      </trkpt>
      <trkpt lat="47.20237" lon="6.61552">
        <ele>469.26</ele>
        <time>2021-04-04T14:07:27Z</time>
      </trkpt>
      <trkpt lat="47.20236" lon="6.61548">
        <ele>468.78</ele>
        <time>2021-04-04T14:07:45Z</time>
      </trkpt>
      <trkpt lat="47.20237" lon="6.61544">
        <ele>468.78</ele>
        <time>2021-04-04T14:08:16Z</time>
      </trkpt>
      <trkpt lat="47.20244" lon="6.61548">
        <ele>468.78</ele>
        <time>2021-04-04T14:08:41Z</time>
      </trkpt>
      <trkpt lat="47.20246" lon="6.61557">
        <ele>468.78</ele>
        <time>2021-04-04T14:08:49Z</time>
      </trkpt>
      <trkpt lat="47.20246" lon="6.61559">
        <ele>468.78</ele>
        <time>2021-04-04T14:08:50Z</time>
      </trkpt>
      <trkpt lat="47.20246" lon="6.61561">
        <ele>469.26</ele>
        <time>2021-04-04T14:08:51Z</time>
      </trkpt>
      <trkpt lat="47.20251" lon="6.61607">
        <ele>470.22</ele>
        <time>2021-04-04T14:09:02Z</time>
      </trkpt>
      <trkpt lat="47.20253" lon="6.61614">
        <ele>470.22</ele>
        <time>2021-04-04T14:09:03Z</time>
      </trkpt>
      <trkpt lat="47.20268" lon="6.61729">
        <ele>472.14</ele>
        <time>2021-04-04T14:09:17Z</time>
      </trkpt>
      <trkpt lat="47.20293" lon="6.61832">
        <ele>472.14</ele>
        <time>2021-04-04T14:09:30Z</time>
      </trkpt>
      <trkpt lat="47.20344" lon="6.61971">
        <ele>472.14</ele>
        <time>2021-04-04T14:09:47Z</time>
      </trkpt>
      <trkpt lat="47.2037" lon="6.62103">
        <ele>471.18</ele>
        <time>2021-04-04T14:10:01Z</time>
      </trkpt>
      <trkpt lat="47.20356" lon="6.62259">
        <ele>470.22</ele>
        <time>2021-04-04T14:10:17Z</time>
      </trkpt>
      <trkpt lat="47.20298" lon="6.62366">
        <ele>470.7</ele>
        <time>2021-04-04T14:10:31Z</time>
      </trkpt>
      <trkpt lat="47.20217" lon="6.62486">
        <ele>473.11</ele>
        <time>2021-04-04T14:10:49Z</time>
      </trkpt>
      <trkpt lat="47.20144" lon="6.62603">
        <ele>473.59</ele>
        <time>2021-04-04T14:11:05Z</time>
      </trkpt>
      <trkpt lat="47.20141" lon="6.62611">
        <ele>473.11</ele>
        <time>2021-04-04T14:11:06Z</time>
      </trkpt>
      <trkpt lat="47.20118" lon="6.62739">
        <ele>470.7</ele>
        <time>2021-04-04T14:11:20Z</time>
      </trkpt>
      <trkpt lat="47.20119" lon="6.62855">
        <ele>469.26</ele>
        <time>2021-04-04T14:11:31Z</time>
      </trkpt>
      <trkpt lat="47.20121" lon="6.62865">
        <ele>469.74</ele>
        <time>2021-04-04T14:11:32Z</time>
      </trkpt>
      <trkpt lat="47.20123" lon="6.62874">
        <ele>469.26</ele>
        <time>2021-04-04T14:11:33Z</time>
      </trkpt>
      <trkpt lat="47.2017" lon="6.62961">
        <ele>469.26</ele>
        <time>2021-04-04T14:11:44Z</time>
      </trkpt>
      <trkpt lat="47.2027" lon="6.63009">
        <ele>467.82</ele>
        <time>2021-04-04T14:11:58Z</time>
      </trkpt>
      <trkpt lat="47.20411" lon="6.6304">
        <ele>467.34</ele>
        <time>2021-04-04T14:12:15Z</time>
      </trkpt>
      <trkpt lat="47.20538" lon="6.63045">
        <ele>466.38</ele>
        <time>2021-04-04T14:12:32Z</time>
      </trkpt>
      <trkpt lat="47.20671" lon="6.63033">
        <ele>465.9</ele>
        <time>2021-04-04T14:12:50Z</time>
      </trkpt>
      <trkpt lat="47.20757" lon="6.63062">
        <ele>464.93</ele>
        <time>2021-04-04T14:13:02Z</time>
      </trkpt>
      <trkpt lat="47.20798" lon="6.631">
        <ele>463.97</ele>
        <time>2021-04-04T14:13:08Z</time>
      </trkpt>
      <trkpt lat="47.20804" lon="6.63109">
        <ele>463.97</ele>
        <time>2021-04-04T14:13:09Z</time>
      </trkpt>
      <trkpt lat="47.20809" lon="6.63118">
        <ele>463.97</ele>
        <time>2021-04-04T14:13:10Z</time>
      </trkpt>
      <trkpt lat="47.20813" lon="6.63128">
        <ele>463.97</ele>
        <time>2021-04-04T14:13:11Z</time>
      </trkpt>
      <trkpt lat="47.20816" lon="6.63139">
        <ele>463.97</ele>
        <time>2021-04-04T14:13:12Z</time>
      </trkpt>
      <trkpt lat="47.2082" lon="6.6315">
        <ele>463.97</ele>
        <time>2021-04-04T14:13:13Z</time>
      </trkpt>
      <trkpt lat="47.20857" lon="6.63315">
        <ele>464.45</ele>
        <time>2021-04-04T14:13:29Z</time>
      </trkpt>
      <trkpt lat="47.20866" lon="6.63437">
        <ele>465.9</ele>
        <time>2021-04-04T14:13:41Z</time>
      </trkpt>
      <trkpt lat="47.20864" lon="6.63458">
        <ele>466.38</ele>
        <time>2021-04-04T14:13:43Z</time>
      </trkpt>
      <trkpt lat="47.20862" lon="6.63469">
        <ele>465.9</ele>
        <time>2021-04-04T14:13:44Z</time>
      </trkpt>
      <trkpt lat="47.20859" lon="6.63479">
        <ele>466.38</ele>
        <time>2021-04-04T14:13:45Z</time>
      </trkpt>
      <trkpt lat="47.20855" lon="6.63488">
        <ele>465.9</ele>
        <time>2021-04-04T14:13:46Z</time>
      </trkpt>
      <trkpt lat="47.20851" lon="6.63497">
        <ele>465.9</ele>
        <time>2021-04-04T14:13:47Z</time>
      </trkpt>
      <trkpt lat="47.20835" lon="6.6352">
        <ele>466.38</ele>
        <time>2021-04-04T14:13:50Z</time>
      </trkpt>
      <trkpt lat="47.20829" lon="6.63526">
        <ele>466.38</ele>
        <time>2021-04-04T14:13:51Z</time>
      </trkpt>
      <trkpt lat="47.208" lon="6.63558">
        <ele>468.3</ele>
        <time>2021-04-04T14:13:56Z</time>
      </trkpt>
      <trkpt lat="47.20746" lon="6.63661">
        <ele>465.42</ele>
        <time>2021-04-04T14:14:09Z</time>
      </trkpt>
      <trkpt lat="47.20669" lon="6.6383">
        <ele>465.42</ele>
        <time>2021-04-04T14:14:29Z</time>
      </trkpt>
      <trkpt lat="47.2066" lon="6.63936">
        <ele>463.49</ele>
        <time>2021-04-04T14:14:40Z</time>
      </trkpt>
      <trkpt lat="47.20662" lon="6.63946">
        <ele>463.49</ele>
        <time>2021-04-04T14:14:41Z</time>
      </trkpt>
      <trkpt lat="47.20665" lon="6.63956">
        <ele>463.01</ele>
        <time>2021-04-04T14:14:42Z</time>
      </trkpt>
      <trkpt lat="47.20668" lon="6.63964">
        <ele>463.01</ele>
        <time>2021-04-04T14:14:43Z</time>
      </trkpt>
      <trkpt lat="47.20672" lon="6.63973">
        <ele>463.49</ele>
        <time>2021-04-04T14:14:44Z</time>
      </trkpt>
      <trkpt lat="47.20676" lon="6.63982">
        <ele>463.49</ele>
        <time>2021-04-04T14:14:45Z</time>
      </trkpt>
      <trkpt lat="47.20681" lon="6.6399">
        <ele>463.01</ele>
        <time>2021-04-04T14:14:46Z</time>
      </trkpt>
      <trkpt lat="47.20776" lon="6.64132">
        <ele>461.57</ele>
        <time>2021-04-04T14:15:05Z</time>
      </trkpt>
      <trkpt lat="47.20821" lon="6.64201">
        <ele>460.13</ele>
        <time>2021-04-04T14:15:14Z</time>
      </trkpt>
      <trkpt lat="47.20868" lon="6.64323">
        <ele>459.65</ele>
        <time>2021-04-04T14:15:28Z</time>
      </trkpt>
      <trkpt lat="47.20878" lon="6.64381">
        <ele>460.13</ele>
        <time>2021-04-04T14:15:35Z</time>
      </trkpt>
      <trkpt lat="47.20871" lon="6.64552">
        <ele>459.65</ele>
        <time>2021-04-04T14:15:53Z</time>
      </trkpt>
      <trkpt lat="47.20856" lon="6.64692">
        <ele>460.61</ele>
        <time>2021-04-04T14:16:09Z</time>
      </trkpt>
      <trkpt lat="47.20849" lon="6.6486">
        <ele>460.13</ele>
        <time>2021-04-04T14:16:27Z</time>
      </trkpt>
      <trkpt lat="47.20864" lon="6.65009">
        <ele>459.17</ele>
        <time>2021-04-04T14:16:45Z</time>
      </trkpt>
      <trkpt lat="47.20873" lon="6.65073">
        <ele>455.8</ele>
        <time>2021-04-04T14:16:52Z</time>
      </trkpt>
      <trkpt lat="47.20886" lon="6.65151">
        <ele>459.17</ele>
        <time>2021-04-04T14:17:01Z</time>
      </trkpt>
      <trkpt lat="47.20888" lon="6.65159">
        <ele>459.65</ele>
        <time>2021-04-04T14:17:02Z</time>
      </trkpt>
      <trkpt lat="47.20891" lon="6.65166">
        <ele>459.65</ele>
        <time>2021-04-04T14:17:03Z</time>
      </trkpt>
      <trkpt lat="47.20894" lon="6.65173">
        <ele>459.65</ele>
        <time>2021-04-04T14:17:04Z</time>
      </trkpt>
      <trkpt lat="47.20926" lon="6.65224">
        <ele>462.53</ele>
        <time>2021-04-04T14:17:12Z</time>
      </trkpt>
      <trkpt lat="47.20996" lon="6.65294">
        <ele>463.01</ele>
        <time>2021-04-04T14:17:26Z</time>
      </trkpt>
      <trkpt lat="47.21007" lon="6.65308">
        <ele>463.97</ele>
        <time>2021-04-04T14:17:28Z</time>
      </trkpt>
      <trkpt lat="47.21012" lon="6.65317">
        <ele>464.45</ele>
        <time>2021-04-04T14:17:29Z</time>
      </trkpt>
      <trkpt lat="47.21018" lon="6.65334">
        <ele>464.45</ele>
        <time>2021-04-04T14:17:31Z</time>
      </trkpt>
      <trkpt lat="47.21034" lon="6.6545">
        <ele>463.01</ele>
        <time>2021-04-04T14:17:43Z</time>
      </trkpt>
      <trkpt lat="47.21048" lon="6.65553">
        <ele>463.97</ele>
        <time>2021-04-04T14:17:53Z</time>
      </trkpt>
      <trkpt lat="47.21052" lon="6.65562">
        <ele>463.97</ele>
        <time>2021-04-04T14:17:54Z</time>
      </trkpt>
      <trkpt lat="47.21056" lon="6.6557">
        <ele>463.49</ele>
        <time>2021-04-04T14:17:55Z</time>
      </trkpt>
      <trkpt lat="47.21095" lon="6.65627">
        <ele>460.13</ele>
        <time>2021-04-04T14:18:03Z</time>
      </trkpt>
      <trkpt lat="47.21149" lon="6.6575">
        <ele>458.21</ele>
        <time>2021-04-04T14:18:16Z</time>
      </trkpt>
      <trkpt lat="47.21195" lon="6.65941">
        <ele>458.69</ele>
        <time>2021-04-04T14:18:34Z</time>
      </trkpt>
      <trkpt lat="47.21197" lon="6.66089">
        <ele>459.17</ele>
        <time>2021-04-04T14:18:48Z</time>
      </trkpt>
      <trkpt lat="47.21216" lon="6.66256">
        <ele>460.61</ele>
        <time>2021-04-04T14:19:05Z</time>
      </trkpt>
      <trkpt lat="47.21249" lon="6.66356">
        <ele>461.09</ele>
        <time>2021-04-04T14:19:17Z</time>
      </trkpt>
      <trkpt lat="47.21319" lon="6.66433">
        <ele>460.13</ele>
        <time>2021-04-04T14:19:30Z</time>
      </trkpt>
      <trkpt lat="47.21393" lon="6.665">
        <ele>460.13</ele>
        <time>2021-04-04T14:19:43Z</time>
      </trkpt>
      <trkpt lat="47.21425" lon="6.66519">
        <ele>458.69</ele>
        <time>2021-04-04T14:19:48Z</time>
      </trkpt>
      <trkpt lat="47.2145" lon="6.66537">
        <ele>460.13</ele>
        <time>2021-04-04T14:19:52Z</time>
      </trkpt>
      <trkpt lat="47.21515" lon="6.66633">
        <ele>459.65</ele>
        <time>2021-04-04T14:20:06Z</time>
      </trkpt>
      <trkpt lat="47.21582" lon="6.66744">
        <ele>462.53</ele>
        <time>2021-04-04T14:20:21Z</time>
      </trkpt>
      <trkpt lat="47.21655" lon="6.66838">
        <ele>461.09</ele>
        <time>2021-04-04T14:20:36Z</time>
      </trkpt>
      <trkpt lat="47.2172" lon="6.66914">
        <ele>461.09</ele>
        <time>2021-04-04T14:20:49Z</time>
      </trkpt>
      <trkpt lat="47.21724" lon="6.66923">
        <ele>461.57</ele>
        <time>2021-04-04T14:20:50Z</time>
      </trkpt>
      <trkpt lat="47.21733" lon="6.66948">
        <ele>462.53</ele>
        <time>2021-04-04T14:20:53Z</time>
      </trkpt>
      <trkpt lat="47.21754" lon="6.67023">
        <ele>463.01</ele>
        <time>2021-04-04T14:21:02Z</time>
      </trkpt>
      <trkpt lat="47.21758" lon="6.67031">
        <ele>463.01</ele>
        <time>2021-04-04T14:21:03Z</time>
      </trkpt>
      <trkpt lat="47.21762" lon="6.67037">
        <ele>462.53</ele>
        <time>2021-04-04T14:21:04Z</time>
      </trkpt>
      <trkpt lat="47.21766" lon="6.67043">
        <ele>462.05</ele>
        <time>2021-04-04T14:21:05Z</time>
      </trkpt>
      <trkpt lat="47.2177" lon="6.67049">
        <ele>462.53</ele>
        <time>2021-04-04T14:21:06Z</time>
      </trkpt>
      <trkpt lat="47.21774" lon="6.67055">
        <ele>462.53</ele>
        <time>2021-04-04T14:21:07Z</time>
      </trkpt>
      <trkpt lat="47.21778" lon="6.67063">
        <ele>463.01</ele>
        <time>2021-04-04T14:21:08Z</time>
      </trkpt>
      <trkpt lat="47.21782" lon="6.67071">
        <ele>462.53</ele>
        <time>2021-04-04T14:21:09Z</time>
      </trkpt>
      <trkpt lat="47.21786" lon="6.6708">
        <ele>461.57</ele>
        <time>2021-04-04T14:21:10Z</time>
      </trkpt>
      <trkpt lat="47.21789" lon="6.6709">
        <ele>462.53</ele>
        <time>2021-04-04T14:21:11Z</time>
      </trkpt>
      <trkpt lat="47.21791" lon="6.67099">
        <ele>463.01</ele>
        <time>2021-04-04T14:21:12Z</time>
      </trkpt>
      <trkpt lat="47.21793" lon="6.67109">
        <ele>463.01</ele>
        <time>2021-04-04T14:21:13Z</time>
      </trkpt>
      <trkpt lat="47.21794" lon="6.67119">
        <ele>462.53</ele>
        <time>2021-04-04T14:21:14Z</time>
      </trkpt>
      <trkpt lat="47.21795" lon="6.67128">
        <ele>463.01</ele>
        <time>2021-04-04T14:21:15Z</time>
      </trkpt>
      <trkpt lat="47.21795" lon="6.67138">
        <ele>462.53</ele>
        <time>2021-04-04T14:21:16Z</time>
      </trkpt>
      <trkpt lat="47.21794" lon="6.67148">
        <ele>463.49</ele>
        <time>2021-04-04T14:21:17Z</time>
      </trkpt>
      <trkpt lat="47.2178" lon="6.67283">
        <ele>464.93</ele>
        <time>2021-04-04T14:21:32Z</time>
      </trkpt>
      <trkpt lat="47.21776" lon="6.67416">
        <ele>464.93</ele>
        <time>2021-04-04T14:21:46Z</time>
      </trkpt>
      <trkpt lat="47.21772" lon="6.67454">
        <ele>465.9</ele>
        <time>2021-04-04T14:21:50Z</time>
      </trkpt>
      <trkpt lat="47.21756" lon="6.67517">
        <ele>465.42</ele>
        <time>2021-04-04T14:21:57Z</time>
      </trkpt>
      <trkpt lat="47.21728" lon="6.67596">
        <ele>465.9</ele>
        <time>2021-04-04T14:22:10Z</time>
      </trkpt>
      <trkpt lat="47.21728" lon="6.676">
        <ele>465.9</ele>
        <time>2021-04-04T14:22:22Z</time>
      </trkpt>
      <trkpt lat="47.21724" lon="6.676">
        <ele>465.9</ele>
        <time>2021-04-04T14:22:50Z</time>
      </trkpt>
      <trkpt lat="47.21725" lon="6.67606">
        <ele>465.9</ele>
        <time>2021-04-04T14:23:21Z</time>
      </trkpt>
      <trkpt lat="47.21727" lon="6.67603">
        <ele>466.38</ele>
        <time>2021-04-04T14:23:54Z</time>
      </trkpt>
      <trkpt lat="47.21725" lon="6.67602">
        <ele>465.9</ele>
        <time>2021-04-04T14:24:32Z</time>
      </trkpt>
      <trkpt lat="47.21725" lon="6.67598">
        <ele>465.9</ele>
        <time>2021-04-04T14:25:12Z</time>
      </trkpt>
      <trkpt lat="47.21725" lon="6.676">
        <ele>466.38</ele>
        <time>2021-04-04T14:25:37Z</time>
      </trkpt>
      <trkpt lat="47.21724" lon="6.67601">
        <ele>466.38</ele>
        <time>2021-04-04T14:26:12Z</time>
      </trkpt>
      <trkpt lat="47.21719" lon="6.67594">
        <ele>465.9</ele>
        <time>2021-04-04T14:26:43Z</time>
      </trkpt>
      <trkpt lat="47.2173" lon="6.67603">
        <ele>466.38</ele>
        <time>2021-04-04T14:27:17Z</time>
      </trkpt>
      <trkpt lat="47.2173" lon="6.67612">
        <ele>466.86</ele>
        <time>2021-04-04T14:27:35Z</time>
      </trkpt>
      <trkpt lat="47.21725" lon="6.67677">
        <ele>467.82</ele>
        <time>2021-04-04T14:27:45Z</time>
      </trkpt>
      <trkpt lat="47.21727" lon="6.67778">
        <ele>469.26</ele>
        <time>2021-04-04T14:27:58Z</time>
      </trkpt>
      <trkpt lat="47.21764" lon="6.67886">
        <ele>471.66</ele>
        <time>2021-04-04T14:28:12Z</time>
      </trkpt>
      <trkpt lat="47.21797" lon="6.67994">
        <ele>472.14</ele>
        <time>2021-04-04T14:28:26Z</time>
      </trkpt>
      <trkpt lat="47.21834" lon="6.68114">
        <ele>470.7</ele>
        <time>2021-04-04T14:28:39Z</time>
      </trkpt>
      <trkpt lat="47.21854" lon="6.68174">
        <ele>468.3</ele>
        <time>2021-04-04T14:28:45Z</time>
      </trkpt>
      <trkpt lat="47.21887" lon="6.68276">
        <ele>464.93</ele>
        <time>2021-04-04T14:28:55Z</time>
      </trkpt>
      <trkpt lat="47.21892" lon="6.68298">
        <ele>463.01</ele>
        <time>2021-04-04T14:28:57Z</time>
      </trkpt>
      <trkpt lat="47.21898" lon="6.68345">
        <ele>461.57</ele>
        <time>2021-04-04T14:29:01Z</time>
      </trkpt>
      <trkpt lat="47.2191" lon="6.68471">
        <ele>459.17</ele>
        <time>2021-04-04T14:29:11Z</time>
      </trkpt>
      <trkpt lat="47.21913" lon="6.68593">
        <ele>455.8</ele>
        <time>2021-04-04T14:29:21Z</time>
      </trkpt>
      <trkpt lat="47.21908" lon="6.68619">
        <ele>453.4</ele>
        <time>2021-04-04T14:29:23Z</time>
      </trkpt>
      <trkpt lat="47.21896" lon="6.68701">
        <ele>451.48</ele>
        <time>2021-04-04T14:29:29Z</time>
      </trkpt>
      <trkpt lat="47.21894" lon="6.68727">
        <ele>450.52</ele>
        <time>2021-04-04T14:29:31Z</time>
      </trkpt>
      <trkpt lat="47.21896" lon="6.68804">
        <ele>450.03</ele>
        <time>2021-04-04T14:29:37Z</time>
      </trkpt>
      <trkpt lat="47.21921" lon="6.69011">
        <ele>449.07</ele>
        <time>2021-04-04T14:29:55Z</time>
      </trkpt>
      <trkpt lat="47.21946" lon="6.69199">
        <ele>448.11</ele>
        <time>2021-04-04T14:30:11Z</time>
      </trkpt>
      <trkpt lat="47.21981" lon="6.69419">
        <ele>447.63</ele>
        <time>2021-04-04T14:30:30Z</time>
      </trkpt>
      <trkpt lat="47.22005" lon="6.69488">
        <ele>447.63</ele>
        <time>2021-04-04T14:30:37Z</time>
      </trkpt>
      <trkpt lat="47.22026" lon="6.69519">
        <ele>447.63</ele>
        <time>2021-04-04T14:30:41Z</time>
      </trkpt>
      <trkpt lat="47.22144" lon="6.69634">
        <ele>447.15</ele>
        <time>2021-04-04T14:30:59Z</time>
      </trkpt>
      <trkpt lat="47.22244" lon="6.69706">
        <ele>447.63</ele>
        <time>2021-04-04T14:31:14Z</time>
      </trkpt>
      <trkpt lat="47.22355" lon="6.69774">
        <ele>447.15</ele>
        <time>2021-04-04T14:31:30Z</time>
      </trkpt>
      <trkpt lat="47.22403" lon="6.69844">
        <ele>447.15</ele>
        <time>2021-04-04T14:31:39Z</time>
      </trkpt>
      <trkpt lat="47.22408" lon="6.69854">
        <ele>447.15</ele>
        <time>2021-04-04T14:31:40Z</time>
      </trkpt>
      <trkpt lat="47.22416" lon="6.69873">
        <ele>447.63</ele>
        <time>2021-04-04T14:31:42Z</time>
      </trkpt>
      <trkpt lat="47.22419" lon="6.69884">
        <ele>447.63</ele>
        <time>2021-04-04T14:31:43Z</time>
      </trkpt>
      <trkpt lat="47.22421" lon="6.69904">
        <ele>448.11</ele>
        <time>2021-04-04T14:31:45Z</time>
      </trkpt>
      <trkpt lat="47.22423" lon="6.69933">
        <ele>446.67</ele>
        <time>2021-04-04T14:31:48Z</time>
      </trkpt>
      <trkpt lat="47.22425" lon="6.69952">
        <ele>447.63</ele>
        <time>2021-04-04T14:31:50Z</time>
      </trkpt>
      <trkpt lat="47.22427" lon="6.69962">
        <ele>447.63</ele>
        <time>2021-04-04T14:31:51Z</time>
      </trkpt>
      <trkpt lat="47.22429" lon="6.69971">
        <ele>447.15</ele>
        <time>2021-04-04T14:31:52Z</time>
      </trkpt>
      <trkpt lat="47.22432" lon="6.6998">
        <ele>447.15</ele>
        <time>2021-04-04T14:31:53Z</time>
      </trkpt>
      <trkpt lat="47.22437" lon="6.69988">
        <ele>447.15</ele>
        <time>2021-04-04T14:31:54Z</time>
      </trkpt>
      <trkpt lat="47.22442" lon="6.69994">
        <ele>447.63</ele>
        <time>2021-04-04T14:31:55Z</time>
      </trkpt>
      <trkpt lat="47.22448" lon="6.7">
        <ele>447.15</ele>
        <time>2021-04-04T14:31:56Z</time>
      </trkpt>
      <trkpt lat="47.22453" lon="6.70005">
        <ele>447.15</ele>
        <time>2021-04-04T14:31:57Z</time>
      </trkpt>
      <trkpt lat="47.22559" lon="6.70092">
        <ele>447.63</ele>
        <time>2021-04-04T14:32:15Z</time>
      </trkpt>
      <trkpt lat="47.22572" lon="6.70099">
        <ele>447.63</ele>
        <time>2021-04-04T14:32:17Z</time>
      </trkpt>
      <trkpt lat="47.22578" lon="6.70101">
        <ele>447.63</ele>
        <time>2021-04-04T14:32:18Z</time>
      </trkpt>
      <trkpt lat="47.22585" lon="6.70101">
        <ele>448.11</ele>
        <time>2021-04-04T14:32:19Z</time>
      </trkpt>
      <trkpt lat="47.22592" lon="6.70101">
        <ele>447.15</ele>
        <time>2021-04-04T14:32:20Z</time>
      </trkpt>
      <trkpt lat="47.22599" lon="6.701">
        <ele>447.63</ele>
        <time>2021-04-04T14:32:21Z</time>
      </trkpt>
      <trkpt lat="47.22606" lon="6.70098">
        <ele>448.11</ele>
        <time>2021-04-04T14:32:22Z</time>
      </trkpt>
      <trkpt lat="47.22613" lon="6.70096">
        <ele>448.11</ele>
        <time>2021-04-04T14:32:23Z</time>
      </trkpt>
      <trkpt lat="47.2262" lon="6.70093">
        <ele>448.59</ele>
        <time>2021-04-04T14:32:24Z</time>
      </trkpt>
      <trkpt lat="47.22626" lon="6.70089">
        <ele>448.11</ele>
        <time>2021-04-04T14:32:25Z</time>
      </trkpt>
      <trkpt lat="47.22632" lon="6.70084">
        <ele>447.63</ele>
        <time>2021-04-04T14:32:26Z</time>
      </trkpt>
      <trkpt lat="47.22638" lon="6.70078">
        <ele>447.15</ele>
        <time>2021-04-04T14:32:27Z</time>
      </trkpt>
      <trkpt lat="47.22643" lon="6.70072">
        <ele>446.67</ele>
        <time>2021-04-04T14:32:28Z</time>
      </trkpt>
      <trkpt lat="47.22659" lon="6.70051">
        <ele>447.15</ele>
        <time>2021-04-04T14:32:31Z</time>
      </trkpt>
      <trkpt lat="47.22663" lon="6.70043">
        <ele>447.63</ele>
        <time>2021-04-04T14:32:32Z</time>
      </trkpt>
      <trkpt lat="47.2269" lon="6.69974">
        <ele>444.27</ele>
        <time>2021-04-04T14:32:40Z</time>
      </trkpt>
      <trkpt lat="47.22694" lon="6.69966">
        <ele>444.75</ele>
        <time>2021-04-04T14:32:41Z</time>
      </trkpt>
      <trkpt lat="47.22719" lon="6.69931">
        <ele>442.82</ele>
        <time>2021-04-04T14:32:46Z</time>
      </trkpt>
      <trkpt lat="47.22725" lon="6.69925">
        <ele>442.34</ele>
        <time>2021-04-04T14:32:47Z</time>
      </trkpt>
      <trkpt lat="47.22732" lon="6.69921">
        <ele>442.34</ele>
        <time>2021-04-04T14:32:48Z</time>
      </trkpt>
      <trkpt lat="47.22739" lon="6.69917">
        <ele>442.34</ele>
        <time>2021-04-04T14:32:49Z</time>
      </trkpt>
      <trkpt lat="47.22746" lon="6.69915">
        <ele>442.34</ele>
        <time>2021-04-04T14:32:50Z</time>
      </trkpt>
      <trkpt lat="47.22754" lon="6.69914">
        <ele>442.82</ele>
        <time>2021-04-04T14:32:51Z</time>
      </trkpt>
      <trkpt lat="47.22761" lon="6.69914">
        <ele>442.82</ele>
        <time>2021-04-04T14:32:52Z</time>
      </trkpt>
      <trkpt lat="47.22853" lon="6.69934">
        <ele>442.82</ele>
        <time>2021-04-04T14:33:05Z</time>
      </trkpt>
      <trkpt lat="47.22859" lon="6.69935">
        <ele>442.34</ele>
        <time>2021-04-04T14:33:06Z</time>
      </trkpt>
      <trkpt lat="47.22896" lon="6.69932">
        <ele>441.86</ele>
        <time>2021-04-04T14:33:11Z</time>
      </trkpt>
      <trkpt lat="47.22996" lon="6.69958">
        <ele>440.42</ele>
        <time>2021-04-04T14:33:22Z</time>
      </trkpt>
      <trkpt lat="47.23019" lon="6.69972">
        <ele>439.94</ele>
        <time>2021-04-04T14:33:25Z</time>
      </trkpt>
      <trkpt lat="47.23024" lon="6.70007">
        <ele>440.9</ele>
        <time>2021-04-04T14:33:28Z</time>
      </trkpt>
      <trkpt lat="47.23028" lon="6.70017">
        <ele>440.42</ele>
        <time>2021-04-04T14:33:30Z</time>
      </trkpt>
      <trkpt lat="47.23035" lon="6.70022">
        <ele>439.46</ele>
        <time>2021-04-04T14:33:31Z</time>
      </trkpt>
      <trkpt lat="47.23041" lon="6.70021">
        <ele>439.94</ele>
        <time>2021-04-04T14:33:32Z</time>
      </trkpt>
      <trkpt lat="47.23047" lon="6.70017">
        <ele>439.94</ele>
        <time>2021-04-04T14:33:33Z</time>
      </trkpt>
      <trkpt lat="47.23053" lon="6.70014">
        <ele>439.94</ele>
        <time>2021-04-04T14:33:34Z</time>
      </trkpt>
      <trkpt lat="47.23166" lon="6.69962">
        <ele>438.98</ele>
        <time>2021-04-04T14:33:50Z</time>
      </trkpt>
      <trkpt lat="47.232" lon="6.69961">
        <ele>438.98</ele>
        <time>2021-04-04T14:33:54Z</time>
      </trkpt>
      <trkpt lat="47.23216" lon="6.69966">
        <ele>438.02</ele>
        <time>2021-04-04T14:33:56Z</time>
      </trkpt>
      <trkpt lat="47.23225" lon="6.69969">
        <ele>438.02</ele>
        <time>2021-04-04T14:33:57Z</time>
      </trkpt>
      <trkpt lat="47.23306" lon="6.69985">
        <ele>438.02</ele>
        <time>2021-04-04T14:34:08Z</time>
      </trkpt>
      <trkpt lat="47.23426" lon="6.6997">
        <ele>438.5</ele>
        <time>2021-04-04T14:34:24Z</time>
      </trkpt>
      <trkpt lat="47.23541" lon="6.6994">
        <ele>438.98</ele>
        <time>2021-04-04T14:34:41Z</time>
      </trkpt>
      <trkpt lat="47.23642" lon="6.69893">
        <ele>438.02</ele>
        <time>2021-04-04T14:34:56Z</time>
      </trkpt>
      <trkpt lat="47.23762" lon="6.69878">
        <ele>437.06</ele>
        <time>2021-04-04T14:35:12Z</time>
      </trkpt>
      <trkpt lat="47.23865" lon="6.69899">
        <ele>436.58</ele>
        <time>2021-04-04T14:35:27Z</time>
      </trkpt>
      <trkpt lat="47.23968" lon="6.6991">
        <ele>433.21</ele>
        <time>2021-04-04T14:35:42Z</time>
      </trkpt>
      <trkpt lat="47.23975" lon="6.6991">
        <ele>433.21</ele>
        <time>2021-04-04T14:35:43Z</time>
      </trkpt>
      <trkpt lat="47.24069" lon="6.69895">
        <ele>432.25</ele>
        <time>2021-04-04T14:35:58Z</time>
      </trkpt>
      <trkpt lat="47.24156" lon="6.69884">
        <ele>432.73</ele>
        <time>2021-04-04T14:36:12Z</time>
      </trkpt>
      <trkpt lat="47.24187" lon="6.69876">
        <ele>431.29</ele>
        <time>2021-04-04T14:36:17Z</time>
      </trkpt>
      <trkpt lat="47.242" lon="6.69867">
        <ele>429.85</ele>
        <time>2021-04-04T14:36:19Z</time>
      </trkpt>
      <trkpt lat="47.24246" lon="6.69845">
        <ele>431.29</ele>
        <time>2021-04-04T14:36:27Z</time>
      </trkpt>
      <trkpt lat="47.24331" lon="6.6984">
        <ele>432.73</ele>
        <time>2021-04-04T14:36:41Z</time>
      </trkpt>
      <trkpt lat="47.24436" lon="6.69867">
        <ele>435.61</ele>
        <time>2021-04-04T14:36:57Z</time>
      </trkpt>
      <trkpt lat="47.24528" lon="6.69869">
        <ele>435.13</ele>
        <time>2021-04-04T14:37:10Z</time>
      </trkpt>
      <trkpt lat="47.24629" lon="6.6988">
        <ele>434.65</ele>
        <time>2021-04-04T14:37:24Z</time>
      </trkpt>
      <trkpt lat="47.24662" lon="6.69903">
        <ele>435.13</ele>
        <time>2021-04-04T14:37:29Z</time>
      </trkpt>
      <trkpt lat="47.24734" lon="6.70016">
        <ele>434.65</ele>
        <time>2021-04-04T14:37:43Z</time>
      </trkpt>
      <trkpt lat="47.24748" lon="6.70135">
        <ele>434.65</ele>
        <time>2021-04-04T14:37:54Z</time>
      </trkpt>
      <trkpt lat="47.24738" lon="6.70341">
        <ele>434.65</ele>
        <time>2021-04-04T14:38:12Z</time>
      </trkpt>
      <trkpt lat="47.24751" lon="6.70458">
        <ele>433.69</ele>
        <time>2021-04-04T14:38:23Z</time>
      </trkpt>
      <trkpt lat="47.2476" lon="6.70477">
        <ele>433.69</ele>
        <time>2021-04-04T14:38:25Z</time>
      </trkpt>
      <trkpt lat="47.24765" lon="6.70484">
        <ele>433.69</ele>
        <time>2021-04-04T14:38:26Z</time>
      </trkpt>
      <trkpt lat="47.24771" lon="6.7049">
        <ele>433.69</ele>
        <time>2021-04-04T14:38:27Z</time>
      </trkpt>
      <trkpt lat="47.24777" lon="6.70496">
        <ele>433.69</ele>
        <time>2021-04-04T14:38:28Z</time>
      </trkpt>
      <trkpt lat="47.24784" lon="6.70501">
        <ele>433.21</ele>
        <time>2021-04-04T14:38:29Z</time>
      </trkpt>
      <trkpt lat="47.2479" lon="6.70505">
        <ele>433.69</ele>
        <time>2021-04-04T14:38:30Z</time>
      </trkpt>
      <trkpt lat="47.24797" lon="6.70507">
        <ele>433.69</ele>
        <time>2021-04-04T14:38:31Z</time>
      </trkpt>
      <trkpt lat="47.24804" lon="6.70508">
        <ele>433.21</ele>
        <time>2021-04-04T14:38:32Z</time>
      </trkpt>
      <trkpt lat="47.24812" lon="6.70508">
        <ele>433.69</ele>
        <time>2021-04-04T14:38:33Z</time>
      </trkpt>
      <trkpt lat="47.2482" lon="6.70506">
        <ele>433.21</ele>
        <time>2021-04-04T14:38:34Z</time>
      </trkpt>
      <trkpt lat="47.24835" lon="6.705">
        <ele>433.21</ele>
        <time>2021-04-04T14:38:36Z</time>
      </trkpt>
      <trkpt lat="47.24932" lon="6.70435">
        <ele>431.77</ele>
        <time>2021-04-04T14:38:50Z</time>
      </trkpt>
      <trkpt lat="47.25033" lon="6.70411">
        <ele>431.29</ele>
        <time>2021-04-04T14:39:04Z</time>
      </trkpt>
      <trkpt lat="47.25145" lon="6.70425">
        <ele>431.29</ele>
        <time>2021-04-04T14:39:20Z</time>
      </trkpt>
      <trkpt lat="47.2524" lon="6.70477">
        <ele>431.29</ele>
        <time>2021-04-04T14:39:35Z</time>
      </trkpt>
      <trkpt lat="47.25265" lon="6.70494">
        <ele>431.29</ele>
        <time>2021-04-04T14:39:39Z</time>
      </trkpt>
      <trkpt lat="47.2536" lon="6.70589">
        <ele>431.77</ele>
        <time>2021-04-04T14:39:55Z</time>
      </trkpt>
      <trkpt lat="47.25366" lon="6.70597">
        <ele>432.25</ele>
        <time>2021-04-04T14:39:56Z</time>
      </trkpt>
      <trkpt lat="47.2537" lon="6.70605">
        <ele>431.29</ele>
        <time>2021-04-04T14:39:57Z</time>
      </trkpt>
      <trkpt lat="47.25374" lon="6.70613">
        <ele>431.29</ele>
        <time>2021-04-04T14:39:58Z</time>
      </trkpt>
      <trkpt lat="47.25378" lon="6.70622">
        <ele>431.29</ele>
        <time>2021-04-04T14:39:59Z</time>
      </trkpt>
      <trkpt lat="47.25381" lon="6.70632">
        <ele>431.77</ele>
        <time>2021-04-04T14:40:00Z</time>
      </trkpt>
      <trkpt lat="47.25383" lon="6.70641">
        <ele>431.77</ele>
        <time>2021-04-04T14:40:01Z</time>
      </trkpt>
      <trkpt lat="47.25398" lon="6.70709">
        <ele>432.25</ele>
        <time>2021-04-04T14:40:08Z</time>
      </trkpt>
      <trkpt lat="47.2545" lon="6.7082">
        <ele>430.33</ele>
        <time>2021-04-04T14:40:22Z</time>
      </trkpt>
      <trkpt lat="47.25516" lon="6.70959">
        <ele>431.29</ele>
        <time>2021-04-04T14:40:39Z</time>
      </trkpt>
      <trkpt lat="47.25519" lon="6.7109">
        <ele>430.81</ele>
        <time>2021-04-04T14:40:52Z</time>
      </trkpt>
      <trkpt lat="47.25488" lon="6.71214">
        <ele>432.25</ele>
        <time>2021-04-04T14:41:05Z</time>
      </trkpt>
      <trkpt lat="47.2548" lon="6.71306">
        <ele>431.29</ele>
        <time>2021-04-04T14:41:15Z</time>
      </trkpt>
      <trkpt lat="47.25481" lon="6.71315">
        <ele>432.25</ele>
        <time>2021-04-04T14:41:16Z</time>
      </trkpt>
      <trkpt lat="47.25484" lon="6.71335">
        <ele>431.77</ele>
        <time>2021-04-04T14:41:18Z</time>
      </trkpt>
      <trkpt lat="47.25487" lon="6.71344">
        <ele>431.29</ele>
        <time>2021-04-04T14:41:19Z</time>
      </trkpt>
      <trkpt lat="47.25493" lon="6.71361">
        <ele>431.29</ele>
        <time>2021-04-04T14:41:21Z</time>
      </trkpt>
      <trkpt lat="47.25497" lon="6.71369">
        <ele>431.29</ele>
        <time>2021-04-04T14:41:22Z</time>
      </trkpt>
      <trkpt lat="47.25502" lon="6.71376">
        <ele>431.29</ele>
        <time>2021-04-04T14:41:23Z</time>
      </trkpt>
      <trkpt lat="47.25506" lon="6.71382">
        <ele>430.81</ele>
        <time>2021-04-04T14:41:24Z</time>
      </trkpt>
      <trkpt lat="47.25512" lon="6.71388">
        <ele>430.81</ele>
        <time>2021-04-04T14:41:25Z</time>
      </trkpt>
      <trkpt lat="47.25541" lon="6.71407">
        <ele>431.29</ele>
        <time>2021-04-04T14:41:30Z</time>
      </trkpt>
      <trkpt lat="47.25547" lon="6.71409">
        <ele>430.81</ele>
        <time>2021-04-04T14:41:31Z</time>
      </trkpt>
      <trkpt lat="47.25553" lon="6.7141">
        <ele>430.33</ele>
        <time>2021-04-04T14:41:32Z</time>
      </trkpt>
      <trkpt lat="47.25559" lon="6.7141">
        <ele>431.29</ele>
        <time>2021-04-04T14:41:33Z</time>
      </trkpt>
      <trkpt lat="47.25566" lon="6.7141">
        <ele>430.81</ele>
        <time>2021-04-04T14:41:34Z</time>
      </trkpt>
      <trkpt lat="47.25573" lon="6.7141">
        <ele>431.29</ele>
        <time>2021-04-04T14:41:35Z</time>
      </trkpt>
      <trkpt lat="47.25598" lon="6.71407">
        <ele>430.81</ele>
        <time>2021-04-04T14:41:39Z</time>
      </trkpt>
      <trkpt lat="47.257" lon="6.71386">
        <ele>431.29</ele>
        <time>2021-04-04T14:41:54Z</time>
      </trkpt>
      <trkpt lat="47.25787" lon="6.71386">
        <ele>430.33</ele>
        <time>2021-04-04T14:42:07Z</time>
      </trkpt>
      <trkpt lat="47.25793" lon="6.7139">
        <ele>430.33</ele>
        <time>2021-04-04T14:42:08Z</time>
      </trkpt>
      <trkpt lat="47.25863" lon="6.71468">
        <ele>431.29</ele>
        <time>2021-04-04T14:42:21Z</time>
      </trkpt>
      <trkpt lat="47.2592" lon="6.71588">
        <ele>430.33</ele>
        <time>2021-04-04T14:42:36Z</time>
      </trkpt>
      <trkpt lat="47.25946" lon="6.71693">
        <ele>431.29</ele>
        <time>2021-04-04T14:42:50Z</time>
      </trkpt>
      <trkpt lat="47.25971" lon="6.71818">
        <ele>431.29</ele>
        <time>2021-04-04T14:43:05Z</time>
      </trkpt>
      <trkpt lat="47.25979" lon="6.71847">
        <ele>431.29</ele>
        <time>2021-04-04T14:43:08Z</time>
      </trkpt>
      <trkpt lat="47.25983" lon="6.71856">
        <ele>430.81</ele>
        <time>2021-04-04T14:43:09Z</time>
      </trkpt>
      <trkpt lat="47.25987" lon="6.71864">
        <ele>431.29</ele>
        <time>2021-04-04T14:43:10Z</time>
      </trkpt>
      <trkpt lat="47.26" lon="6.71882">
        <ele>431.77</ele>
        <time>2021-04-04T14:43:13Z</time>
      </trkpt>
      <trkpt lat="47.26003" lon="6.71886">
        <ele>431.77</ele>
        <time>2021-04-04T14:43:14Z</time>
      </trkpt>
      <trkpt lat="47.26007" lon="6.71889">
        <ele>431.29</ele>
        <time>2021-04-04T14:43:15Z</time>
      </trkpt>
      <trkpt lat="47.26011" lon="6.71891">
        <ele>430.81</ele>
        <time>2021-04-04T14:43:16Z</time>
      </trkpt>
      <trkpt lat="47.26015" lon="6.71893">
        <ele>431.29</ele>
        <time>2021-04-04T14:43:17Z</time>
      </trkpt>
      <trkpt lat="47.26019" lon="6.71894">
        <ele>430.81</ele>
        <time>2021-04-04T14:43:18Z</time>
      </trkpt>
      <trkpt lat="47.26024" lon="6.71895">
        <ele>431.29</ele>
        <time>2021-04-04T14:43:19Z</time>
      </trkpt>
      <trkpt lat="47.2603" lon="6.71895">
        <ele>428.89</ele>
        <time>2021-04-04T14:43:20Z</time>
      </trkpt>
      <trkpt lat="47.26038" lon="6.7189">
        <ele>428.4</ele>
        <time>2021-04-04T14:43:21Z</time>
      </trkpt>
      <trkpt lat="47.2605" lon="6.7188">
        <ele>428.4</ele>
        <time>2021-04-04T14:43:22Z</time>
      </trkpt>
      <trkpt lat="47.26158" lon="6.71828">
        <ele>426</ele>
        <time>2021-04-04T14:43:35Z</time>
      </trkpt>
      <trkpt lat="47.26184" lon="6.71809">
        <ele>426</ele>
        <time>2021-04-04T14:43:39Z</time>
      </trkpt>
      <trkpt lat="47.26192" lon="6.71806">
        <ele>426.48</ele>
        <time>2021-04-04T14:43:40Z</time>
      </trkpt>
      <trkpt lat="47.26199" lon="6.71805">
        <ele>426.48</ele>
        <time>2021-04-04T14:43:41Z</time>
      </trkpt>
      <trkpt lat="47.26207" lon="6.71806">
        <ele>426.96</ele>
        <time>2021-04-04T14:43:42Z</time>
      </trkpt>
      <trkpt lat="47.26214" lon="6.71807">
        <ele>427.44</ele>
        <time>2021-04-04T14:43:43Z</time>
      </trkpt>
      <trkpt lat="47.26222" lon="6.71809">
        <ele>427.92</ele>
        <time>2021-04-04T14:43:44Z</time>
      </trkpt>
      <trkpt lat="47.26229" lon="6.71811">
        <ele>427.44</ele>
        <time>2021-04-04T14:43:45Z</time>
      </trkpt>
      <trkpt lat="47.26308" lon="6.71874">
        <ele>426.48</ele>
        <time>2021-04-04T14:43:57Z</time>
      </trkpt>
      <trkpt lat="47.26342" lon="6.71939">
        <ele>427.44</ele>
        <time>2021-04-04T14:44:05Z</time>
      </trkpt>
      <trkpt lat="47.26344" lon="6.71948">
        <ele>427.44</ele>
        <time>2021-04-04T14:44:06Z</time>
      </trkpt>
      <trkpt lat="47.26345" lon="6.71958">
        <ele>427.44</ele>
        <time>2021-04-04T14:44:07Z</time>
      </trkpt>
      <trkpt lat="47.26347" lon="6.72059">
        <ele>430.33</ele>
        <time>2021-04-04T14:44:20Z</time>
      </trkpt>
      <trkpt lat="47.26346" lon="6.72066">
        <ele>430.81</ele>
        <time>2021-04-04T14:44:21Z</time>
      </trkpt>
      <trkpt lat="47.26345" lon="6.72072">
        <ele>430.81</ele>
        <time>2021-04-04T14:44:22Z</time>
      </trkpt>
      <trkpt lat="47.26327" lon="6.72127">
        <ele>431.77</ele>
        <time>2021-04-04T14:44:36Z</time>
      </trkpt>
      <trkpt lat="47.26324" lon="6.72134">
        <ele>432.25</ele>
        <time>2021-04-04T14:45:02Z</time>
      </trkpt>
      <trkpt lat="47.2631" lon="6.72161">
        <ele>433.69</ele>
        <time>2021-04-04T14:45:09Z</time>
      </trkpt>
      <trkpt lat="47.26307" lon="6.72166">
        <ele>433.69</ele>
        <time>2021-04-04T14:45:10Z</time>
      </trkpt>
      <trkpt lat="47.26285" lon="6.7222">
        <ele>436.1</ele>
        <time>2021-04-04T14:45:19Z</time>
      </trkpt>
      <trkpt lat="47.26248" lon="6.72314">
        <ele>438.5</ele>
        <time>2021-04-04T14:45:34Z</time>
      </trkpt>
      <trkpt lat="47.26241" lon="6.72324">
        <ele>438.98</ele>
        <time>2021-04-04T14:45:36Z</time>
      </trkpt>
      <trkpt lat="47.26237" lon="6.72329">
        <ele>439.46</ele>
        <time>2021-04-04T14:45:37Z</time>
      </trkpt>
      <trkpt lat="47.26233" lon="6.72333">
        <ele>439.94</ele>
        <time>2021-04-04T14:45:38Z</time>
      </trkpt>
      <trkpt lat="47.2621" lon="6.72348">
        <ele>441.86</ele>
        <time>2021-04-04T14:45:44Z</time>
      </trkpt>
      <trkpt lat="47.26206" lon="6.72349">
        <ele>441.86</ele>
        <time>2021-04-04T14:45:45Z</time>
      </trkpt>
      <trkpt lat="47.26167" lon="6.72374">
        <ele>440.9</ele>
        <time>2021-04-04T14:45:59Z</time>
      </trkpt>
      <trkpt lat="47.2617" lon="6.72382">
        <ele>440.42</ele>
        <time>2021-04-04T14:46:28Z</time>
      </trkpt>
      <trkpt lat="47.26168" lon="6.7238">
        <ele>440.9</ele>
        <time>2021-04-04T14:46:54Z</time>
      </trkpt>
      <trkpt lat="47.26168" lon="6.7238">
        <ele>440.9</ele>
        <time>2021-04-04T14:46:55Z</time>
      </trkpt>
      <trkpt lat="47.26166" lon="6.72382">
        <ele>441.38</ele>
        <time>2021-04-04T14:46:56Z</time>
      </trkpt>
      <trkpt lat="47.26165" lon="6.72383">
        <ele>441.38</ele>
        <time>2021-04-04T14:46:57Z</time>
      </trkpt>
      <trkpt lat="47.26128" lon="6.72398">
        <ele>440.9</ele>
        <time>2021-04-04T14:47:06Z</time>
      </trkpt>
      <trkpt lat="47.26121" lon="6.72403">
        <ele>439.94</ele>
        <time>2021-04-04T14:47:07Z</time>
      </trkpt>
      <trkpt lat="47.26115" lon="6.72409">
        <ele>439.46</ele>
        <time>2021-04-04T14:47:08Z</time>
      </trkpt>
      <trkpt lat="47.2611" lon="6.72416">
        <ele>438.98</ele>
        <time>2021-04-04T14:47:09Z</time>
      </trkpt>
      <trkpt lat="47.26105" lon="6.72423">
        <ele>438.5</ele>
        <time>2021-04-04T14:47:10Z</time>
      </trkpt>
      <trkpt lat="47.261" lon="6.72432">
        <ele>438.02</ele>
        <time>2021-04-04T14:47:11Z</time>
      </trkpt>
      <trkpt lat="47.26097" lon="6.72442">
        <ele>437.54</ele>
        <time>2021-04-04T14:47:12Z</time>
      </trkpt>
      <trkpt lat="47.26095" lon="6.72453">
        <ele>437.06</ele>
        <time>2021-04-04T14:47:13Z</time>
      </trkpt>
      <trkpt lat="47.26093" lon="6.72463">
        <ele>436.58</ele>
        <time>2021-04-04T14:47:14Z</time>
      </trkpt>
      <trkpt lat="47.26095" lon="6.72543">
        <ele>434.17</ele>
        <time>2021-04-04T14:47:20Z</time>
      </trkpt>
      <trkpt lat="47.26094" lon="6.7256">
        <ele>433.69</ele>
        <time>2021-04-04T14:47:21Z</time>
      </trkpt>
      <trkpt lat="47.26094" lon="6.72576">
        <ele>433.21</ele>
        <time>2021-04-04T14:47:22Z</time>
      </trkpt>
      <trkpt lat="47.26095" lon="6.72594">
        <ele>432.73</ele>
        <time>2021-04-04T14:47:23Z</time>
      </trkpt>
      <trkpt lat="47.26098" lon="6.72611">
        <ele>432.25</ele>
        <time>2021-04-04T14:47:24Z</time>
      </trkpt>
      <trkpt lat="47.26102" lon="6.72628">
        <ele>431.29</ele>
        <time>2021-04-04T14:47:25Z</time>
      </trkpt>
      <trkpt lat="47.26105" lon="6.72643">
        <ele>430.81</ele>
        <time>2021-04-04T14:47:26Z</time>
      </trkpt>
      <trkpt lat="47.26108" lon="6.72658">
        <ele>429.37</ele>
        <time>2021-04-04T14:47:27Z</time>
      </trkpt>
      <trkpt lat="47.26114" lon="6.72707">
        <ele>427.44</ele>
        <time>2021-04-04T14:47:31Z</time>
      </trkpt>
      <trkpt lat="47.26116" lon="6.72726">
        <ele>427.44</ele>
        <time>2021-04-04T14:47:33Z</time>
      </trkpt>
      <trkpt lat="47.26123" lon="6.72813">
        <ele>425.52</ele>
        <time>2021-04-04T14:47:40Z</time>
      </trkpt>
      <trkpt lat="47.26124" lon="6.72857">
        <ele>424.56</ele>
        <time>2021-04-04T14:47:43Z</time>
      </trkpt>
      <trkpt lat="47.26123" lon="6.72872">
        <ele>424.56</ele>
        <time>2021-04-04T14:47:44Z</time>
      </trkpt>
      <trkpt lat="47.26116" lon="6.72932">
        <ele>422.64</ele>
        <time>2021-04-04T14:47:48Z</time>
      </trkpt>
      <trkpt lat="47.26089" lon="6.73031">
        <ele>421.68</ele>
        <time>2021-04-04T14:47:55Z</time>
      </trkpt>
      <trkpt lat="47.26082" lon="6.73041">
        <ele>421.68</ele>
        <time>2021-04-04T14:47:56Z</time>
      </trkpt>
      <trkpt lat="47.26017" lon="6.73173">
        <ele>420.71</ele>
        <time>2021-04-04T14:48:09Z</time>
      </trkpt>
      <trkpt lat="47.26011" lon="6.73257">
        <ele>420.23</ele>
        <time>2021-04-04T14:48:16Z</time>
      </trkpt>
      <trkpt lat="47.26012" lon="6.7327">
        <ele>420.71</ele>
        <time>2021-04-04T14:48:17Z</time>
      </trkpt>
      <trkpt lat="47.26014" lon="6.73282">
        <ele>420.71</ele>
        <time>2021-04-04T14:48:18Z</time>
      </trkpt>
      <trkpt lat="47.26017" lon="6.73294">
        <ele>420.23</ele>
        <time>2021-04-04T14:48:19Z</time>
      </trkpt>
      <trkpt lat="47.26019" lon="6.73306">
        <ele>420.71</ele>
        <time>2021-04-04T14:48:20Z</time>
      </trkpt>
      <trkpt lat="47.26078" lon="6.73459">
        <ele>421.19</ele>
        <time>2021-04-04T14:48:35Z</time>
      </trkpt>
      <trkpt lat="47.2609" lon="6.73474">
        <ele>420.71</ele>
        <time>2021-04-04T14:48:37Z</time>
      </trkpt>
      <trkpt lat="47.26166" lon="6.73525">
        <ele>419.27</ele>
        <time>2021-04-04T14:48:50Z</time>
      </trkpt>
      <trkpt lat="47.26188" lon="6.73532">
        <ele>418.79</ele>
        <time>2021-04-04T14:48:54Z</time>
      </trkpt>
      <trkpt lat="47.262" lon="6.73532">
        <ele>418.79</ele>
        <time>2021-04-04T14:48:56Z</time>
      </trkpt>
      <trkpt lat="47.26206" lon="6.7353">
        <ele>418.79</ele>
        <time>2021-04-04T14:48:57Z</time>
      </trkpt>
      <trkpt lat="47.26221" lon="6.7352">
        <ele>419.27</ele>
        <time>2021-04-04T14:48:59Z</time>
      </trkpt>
      <trkpt lat="47.2623" lon="6.73511">
        <ele>418.79</ele>
        <time>2021-04-04T14:49:00Z</time>
      </trkpt>
      <trkpt lat="47.26348" lon="6.73463">
        <ele>418.31</ele>
        <time>2021-04-04T14:49:14Z</time>
      </trkpt>
      <trkpt lat="47.26392" lon="6.73469">
        <ele>417.83</ele>
        <time>2021-04-04T14:49:19Z</time>
      </trkpt>
      <trkpt lat="47.26401" lon="6.73474">
        <ele>417.83</ele>
        <time>2021-04-04T14:49:20Z</time>
      </trkpt>
      <trkpt lat="47.26409" lon="6.73478">
        <ele>418.31</ele>
        <time>2021-04-04T14:49:21Z</time>
      </trkpt>
      <trkpt lat="47.26417" lon="6.73483">
        <ele>417.83</ele>
        <time>2021-04-04T14:49:22Z</time>
      </trkpt>
      <trkpt lat="47.26424" lon="6.73489">
        <ele>417.83</ele>
        <time>2021-04-04T14:49:23Z</time>
      </trkpt>
      <trkpt lat="47.26471" lon="6.73538">
        <ele>417.83</ele>
        <time>2021-04-04T14:49:30Z</time>
      </trkpt>
      <trkpt lat="47.26476" lon="6.73545">
        <ele>417.83</ele>
        <time>2021-04-04T14:49:31Z</time>
      </trkpt>
      <trkpt lat="47.26476" lon="6.73556">
        <ele>418.31</ele>
        <time>2021-04-04T14:49:32Z</time>
      </trkpt>
      <trkpt lat="47.26474" lon="6.7357">
        <ele>417.83</ele>
        <time>2021-04-04T14:49:33Z</time>
      </trkpt>
      <trkpt lat="47.26463" lon="6.73596">
        <ele>417.83</ele>
        <time>2021-04-04T14:49:34Z</time>
      </trkpt>
      <trkpt lat="47.26457" lon="6.73614">
        <ele>418.31</ele>
        <time>2021-04-04T14:49:35Z</time>
      </trkpt>
      <trkpt lat="47.26453" lon="6.73629">
        <ele>418.31</ele>
        <time>2021-04-04T14:49:36Z</time>
      </trkpt>
      <trkpt lat="47.2645" lon="6.73643">
        <ele>418.31</ele>
        <time>2021-04-04T14:49:37Z</time>
      </trkpt>
      <trkpt lat="47.2641" lon="6.73762">
        <ele>417.83</ele>
        <time>2021-04-04T14:49:48Z</time>
      </trkpt>
      <trkpt lat="47.26388" lon="6.73823">
        <ele>418.31</ele>
        <time>2021-04-04T14:49:54Z</time>
      </trkpt>
      <trkpt lat="47.26385" lon="6.73833">
        <ele>418.31</ele>
        <time>2021-04-04T14:49:55Z</time>
      </trkpt>
      <trkpt lat="47.26382" lon="6.73844">
        <ele>418.31</ele>
        <time>2021-04-04T14:49:56Z</time>
      </trkpt>
      <trkpt lat="47.26381" lon="6.73857">
        <ele>417.83</ele>
        <time>2021-04-04T14:49:57Z</time>
      </trkpt>
      <trkpt lat="47.26381" lon="6.73868">
        <ele>418.31</ele>
        <time>2021-04-04T14:49:58Z</time>
      </trkpt>
      <trkpt lat="47.26382" lon="6.73881">
        <ele>418.31</ele>
        <time>2021-04-04T14:49:59Z</time>
      </trkpt>
      <trkpt lat="47.26384" lon="6.73893">
        <ele>418.31</ele>
        <time>2021-04-04T14:50:00Z</time>
      </trkpt>
      <trkpt lat="47.26387" lon="6.73906">
        <ele>418.79</ele>
        <time>2021-04-04T14:50:01Z</time>
      </trkpt>
      <trkpt lat="47.2639" lon="6.73918">
        <ele>418.31</ele>
        <time>2021-04-04T14:50:02Z</time>
      </trkpt>
      <trkpt lat="47.26393" lon="6.7393">
        <ele>418.79</ele>
        <time>2021-04-04T14:50:03Z</time>
      </trkpt>
      <trkpt lat="47.26397" lon="6.73941">
        <ele>418.31</ele>
        <time>2021-04-04T14:50:04Z</time>
      </trkpt>
      <trkpt lat="47.26421" lon="6.73988">
        <ele>417.83</ele>
        <time>2021-04-04T14:50:09Z</time>
      </trkpt>
      <trkpt lat="47.26426" lon="6.73995">
        <ele>417.83</ele>
        <time>2021-04-04T14:50:10Z</time>
      </trkpt>
      <trkpt lat="47.26445" lon="6.74014">
        <ele>417.35</ele>
        <time>2021-04-04T14:50:13Z</time>
      </trkpt>
      <trkpt lat="47.26535" lon="6.74082">
        <ele>417.35</ele>
        <time>2021-04-04T14:50:26Z</time>
      </trkpt>
      <trkpt lat="47.26584" lon="6.74204">
        <ele>417.83</ele>
        <time>2021-04-04T14:50:39Z</time>
      </trkpt>
      <trkpt lat="47.26588" lon="6.74344">
        <ele>417.35</ele>
        <time>2021-04-04T14:50:52Z</time>
      </trkpt>
      <trkpt lat="47.26565" lon="6.74482">
        <ele>418.31</ele>
        <time>2021-04-04T14:51:06Z</time>
      </trkpt>
      <trkpt lat="47.26567" lon="6.74519">
        <ele>417.35</ele>
        <time>2021-04-04T14:51:10Z</time>
      </trkpt>
      <trkpt lat="47.26579" lon="6.74572">
        <ele>415.43</ele>
        <time>2021-04-04T14:51:15Z</time>
      </trkpt>
      <trkpt lat="47.26587" lon="6.74591">
        <ele>415.43</ele>
        <time>2021-04-04T14:51:17Z</time>
      </trkpt>
      <trkpt lat="47.26592" lon="6.74599">
        <ele>415.43</ele>
        <time>2021-04-04T14:51:18Z</time>
      </trkpt>
      <trkpt lat="47.26598" lon="6.74606">
        <ele>414.95</ele>
        <time>2021-04-04T14:51:19Z</time>
      </trkpt>
      <trkpt lat="47.26605" lon="6.74612">
        <ele>414.47</ele>
        <time>2021-04-04T14:51:20Z</time>
      </trkpt>
      <trkpt lat="47.26612" lon="6.74616">
        <ele>414.47</ele>
        <time>2021-04-04T14:51:21Z</time>
      </trkpt>
      <trkpt lat="47.26619" lon="6.7462">
        <ele>414.47</ele>
        <time>2021-04-04T14:51:22Z</time>
      </trkpt>
      <trkpt lat="47.26627" lon="6.74622">
        <ele>413.98</ele>
        <time>2021-04-04T14:51:23Z</time>
      </trkpt>
      <trkpt lat="47.26636" lon="6.74623">
        <ele>413.5</ele>
        <time>2021-04-04T14:51:24Z</time>
      </trkpt>
      <trkpt lat="47.26645" lon="6.74621">
        <ele>413.5</ele>
        <time>2021-04-04T14:51:25Z</time>
      </trkpt>
      <trkpt lat="47.26654" lon="6.7462">
        <ele>413.5</ele>
        <time>2021-04-04T14:51:26Z</time>
      </trkpt>
      <trkpt lat="47.26775" lon="6.74595">
        <ele>413.5</ele>
        <time>2021-04-04T14:51:41Z</time>
      </trkpt>
      <trkpt lat="47.26921" lon="6.74575">
        <ele>413.5</ele>
        <time>2021-04-04T14:51:59Z</time>
      </trkpt>
      <trkpt lat="47.26968" lon="6.74594">
        <ele>412.54</ele>
        <time>2021-04-04T14:52:05Z</time>
      </trkpt>
      <trkpt lat="47.27053" lon="6.74691">
        <ele>412.06</ele>
        <time>2021-04-04T14:52:19Z</time>
      </trkpt>
      <trkpt lat="47.2712" lon="6.74822">
        <ele>412.06</ele>
        <time>2021-04-04T14:52:34Z</time>
      </trkpt>
      <trkpt lat="47.27166" lon="6.74987">
        <ele>411.58</ele>
        <time>2021-04-04T14:52:51Z</time>
      </trkpt>
      <trkpt lat="47.27225" lon="6.75128">
        <ele>412.54</ele>
        <time>2021-04-04T14:53:07Z</time>
      </trkpt>
      <trkpt lat="47.27263" lon="6.75262">
        <ele>412.06</ele>
        <time>2021-04-04T14:53:21Z</time>
      </trkpt>
      <trkpt lat="47.27252" lon="6.75403">
        <ele>410.62</ele>
        <time>2021-04-04T14:53:34Z</time>
      </trkpt>
      <trkpt lat="47.27227" lon="6.75616">
        <ele>409.66</ele>
        <time>2021-04-04T14:53:54Z</time>
      </trkpt>
      <trkpt lat="47.27239" lon="6.7568">
        <ele>410.14</ele>
        <time>2021-04-04T14:54:00Z</time>
      </trkpt>
      <trkpt lat="47.27242" lon="6.75689">
        <ele>410.14</ele>
        <time>2021-04-04T14:54:01Z</time>
      </trkpt>
      <trkpt lat="47.27246" lon="6.75697">
        <ele>409.66</ele>
        <time>2021-04-04T14:54:02Z</time>
      </trkpt>
      <trkpt lat="47.27251" lon="6.75705">
        <ele>410.14</ele>
        <time>2021-04-04T14:54:03Z</time>
      </trkpt>
      <trkpt lat="47.27255" lon="6.75712">
        <ele>410.14</ele>
        <time>2021-04-04T14:54:04Z</time>
      </trkpt>
      <trkpt lat="47.27269" lon="6.75731">
        <ele>410.14</ele>
        <time>2021-04-04T14:54:07Z</time>
      </trkpt>
      <trkpt lat="47.27275" lon="6.75737">
        <ele>410.14</ele>
        <time>2021-04-04T14:54:08Z</time>
      </trkpt>
      <trkpt lat="47.27304" lon="6.75763">
        <ele>409.66</ele>
        <time>2021-04-04T14:54:13Z</time>
      </trkpt>
      <trkpt lat="47.27311" lon="6.75766">
        <ele>409.66</ele>
        <time>2021-04-04T14:54:14Z</time>
      </trkpt>
      <trkpt lat="47.27318" lon="6.75767">
        <ele>409.18</ele>
        <time>2021-04-04T14:54:15Z</time>
      </trkpt>
      <trkpt lat="47.27427" lon="6.75776">
        <ele>408.22</ele>
        <time>2021-04-04T14:54:30Z</time>
      </trkpt>
      <trkpt lat="47.27561" lon="6.75787">
        <ele>408.22</ele>
        <time>2021-04-04T14:54:47Z</time>
      </trkpt>
      <trkpt lat="47.27586" lon="6.75797">
        <ele>408.22</ele>
        <time>2021-04-04T14:54:50Z</time>
      </trkpt>
      <trkpt lat="47.27631" lon="6.75835">
        <ele>406.77</ele>
        <time>2021-04-04T14:54:56Z</time>
      </trkpt>
      <trkpt lat="47.27691" lon="6.7595">
        <ele>407.26</ele>
        <time>2021-04-04T14:55:08Z</time>
      </trkpt>
      <trkpt lat="47.27725" lon="6.76134">
        <ele>407.26</ele>
        <time>2021-04-04T14:55:25Z</time>
      </trkpt>
      <trkpt lat="47.27734" lon="6.76194">
        <ele>407.26</ele>
        <time>2021-04-04T14:55:31Z</time>
      </trkpt>
      <trkpt lat="47.27737" lon="6.76202">
        <ele>407.26</ele>
        <time>2021-04-04T14:55:32Z</time>
      </trkpt>
      <trkpt lat="47.27741" lon="6.76209">
        <ele>407.74</ele>
        <time>2021-04-04T14:55:33Z</time>
      </trkpt>
      <trkpt lat="47.27745" lon="6.76215">
        <ele>407.26</ele>
        <time>2021-04-04T14:55:34Z</time>
      </trkpt>
      <trkpt lat="47.2775" lon="6.76219">
        <ele>407.74</ele>
        <time>2021-04-04T14:55:35Z</time>
      </trkpt>
      <trkpt lat="47.27757" lon="6.76221">
        <ele>407.74</ele>
        <time>2021-04-04T14:55:36Z</time>
      </trkpt>
      <trkpt lat="47.27764" lon="6.76219">
        <ele>408.22</ele>
        <time>2021-04-04T14:55:37Z</time>
      </trkpt>
      <trkpt lat="47.27771" lon="6.76214">
        <ele>408.7</ele>
        <time>2021-04-04T14:55:38Z</time>
      </trkpt>
      <trkpt lat="47.27778" lon="6.76208">
        <ele>408.7</ele>
        <time>2021-04-04T14:55:39Z</time>
      </trkpt>
      <trkpt lat="47.27785" lon="6.762">
        <ele>408.7</ele>
        <time>2021-04-04T14:55:40Z</time>
      </trkpt>
      <trkpt lat="47.27791" lon="6.76193">
        <ele>408.7</ele>
        <time>2021-04-04T14:55:41Z</time>
      </trkpt>
      <trkpt lat="47.27894" lon="6.76079">
        <ele>405.33</ele>
        <time>2021-04-04T14:55:58Z</time>
      </trkpt>
      <trkpt lat="47.27938" lon="6.76052">
        <ele>404.37</ele>
        <time>2021-04-04T14:56:04Z</time>
      </trkpt>
      <trkpt lat="47.28066" lon="6.76016">
        <ele>403.89</ele>
        <time>2021-04-04T14:56:21Z</time>
      </trkpt>
      <trkpt lat="47.28182" lon="6.75999">
        <ele>403.89</ele>
        <time>2021-04-04T14:56:37Z</time>
      </trkpt>
      <trkpt lat="47.28189" lon="6.76">
        <ele>404.85</ele>
        <time>2021-04-04T14:56:38Z</time>
      </trkpt>
      <trkpt lat="47.28298" lon="6.76033">
        <ele>403.41</ele>
        <time>2021-04-04T14:56:53Z</time>
      </trkpt>
      <trkpt lat="47.28366" lon="6.76081">
        <ele>403.41</ele>
        <time>2021-04-04T14:57:03Z</time>
      </trkpt>
      <trkpt lat="47.28372" lon="6.76088">
        <ele>403.89</ele>
        <time>2021-04-04T14:57:04Z</time>
      </trkpt>
      <trkpt lat="47.2843" lon="6.76199">
        <ele>402.93</ele>
        <time>2021-04-04T14:57:16Z</time>
      </trkpt>
      <trkpt lat="47.28433" lon="6.7621">
        <ele>402.93</ele>
        <time>2021-04-04T14:57:17Z</time>
      </trkpt>
      <trkpt lat="47.28435" lon="6.76222">
        <ele>402.45</ele>
        <time>2021-04-04T14:57:18Z</time>
      </trkpt>
      <trkpt lat="47.28436" lon="6.76233">
        <ele>402.45</ele>
        <time>2021-04-04T14:57:19Z</time>
      </trkpt>
      <trkpt lat="47.28436" lon="6.76246">
        <ele>402.45</ele>
        <time>2021-04-04T14:57:20Z</time>
      </trkpt>
      <trkpt lat="47.28436" lon="6.76258">
        <ele>402.45</ele>
        <time>2021-04-04T14:57:21Z</time>
      </trkpt>
      <trkpt lat="47.28435" lon="6.7627">
        <ele>402.45</ele>
        <time>2021-04-04T14:57:22Z</time>
      </trkpt>
      <trkpt lat="47.28419" lon="6.76378">
        <ele>402.93</ele>
        <time>2021-04-04T14:57:31Z</time>
      </trkpt>
      <trkpt lat="47.28415" lon="6.76388">
        <ele>402.93</ele>
        <time>2021-04-04T14:57:32Z</time>
      </trkpt>
      <trkpt lat="47.28341" lon="6.76548">
        <ele>402.45</ele>
        <time>2021-04-04T14:57:49Z</time>
      </trkpt>
      <trkpt lat="47.2831" lon="6.76627">
        <ele>401.97</ele>
        <time>2021-04-04T14:57:57Z</time>
      </trkpt>
      <trkpt lat="47.2829" lon="6.76789">
        <ele>402.45</ele>
        <time>2021-04-04T14:58:12Z</time>
      </trkpt>
      <trkpt lat="47.28293" lon="6.7681">
        <ele>400.53</ele>
        <time>2021-04-04T14:58:14Z</time>
      </trkpt>
      <trkpt lat="47.28295" lon="6.76821">
        <ele>401.01</ele>
        <time>2021-04-04T14:58:15Z</time>
      </trkpt>
      <trkpt lat="47.28298" lon="6.7683">
        <ele>401.01</ele>
        <time>2021-04-04T14:58:16Z</time>
      </trkpt>
      <trkpt lat="47.28312" lon="6.76868">
        <ele>401.01</ele>
        <time>2021-04-04T14:58:20Z</time>
      </trkpt>
      <trkpt lat="47.28317" lon="6.76876">
        <ele>401.49</ele>
        <time>2021-04-04T14:58:21Z</time>
      </trkpt>
      <trkpt lat="47.28322" lon="6.76883">
        <ele>401.97</ele>
        <time>2021-04-04T14:58:22Z</time>
      </trkpt>
      <trkpt lat="47.28326" lon="6.7689">
        <ele>401.97</ele>
        <time>2021-04-04T14:58:23Z</time>
      </trkpt>
      <trkpt lat="47.28332" lon="6.76896">
        <ele>401.49</ele>
        <time>2021-04-04T14:58:24Z</time>
      </trkpt>
      <trkpt lat="47.28338" lon="6.76901">
        <ele>401.49</ele>
        <time>2021-04-04T14:58:25Z</time>
      </trkpt>
      <trkpt lat="47.28345" lon="6.76905">
        <ele>401.97</ele>
        <time>2021-04-04T14:58:26Z</time>
      </trkpt>
      <trkpt lat="47.28352" lon="6.76908">
        <ele>401.97</ele>
        <time>2021-04-04T14:58:27Z</time>
      </trkpt>
      <trkpt lat="47.2836" lon="6.7691">
        <ele>401.97</ele>
        <time>2021-04-04T14:58:28Z</time>
      </trkpt>
      <trkpt lat="47.28367" lon="6.76912">
        <ele>402.45</ele>
        <time>2021-04-04T14:58:29Z</time>
      </trkpt>
      <trkpt lat="47.28468" lon="6.76902">
        <ele>400.05</ele>
        <time>2021-04-04T14:58:42Z</time>
      </trkpt>
      <trkpt lat="47.28553" lon="6.76846">
        <ele>400.05</ele>
        <time>2021-04-04T14:58:53Z</time>
      </trkpt>
      <trkpt lat="47.28643" lon="6.76799">
        <ele>398.6</ele>
        <time>2021-04-04T14:59:05Z</time>
      </trkpt>
      <trkpt lat="47.28708" lon="6.76796">
        <ele>398.6</ele>
        <time>2021-04-04T14:59:13Z</time>
      </trkpt>
      <trkpt lat="47.28807" lon="6.76852">
        <ele>398.12</ele>
        <time>2021-04-04T14:59:26Z</time>
      </trkpt>
      <trkpt lat="47.28882" lon="6.76947">
        <ele>398.12</ele>
        <time>2021-04-04T14:59:39Z</time>
      </trkpt>
      <trkpt lat="47.28898" lon="6.76983">
        <ele>398.6</ele>
        <time>2021-04-04T14:59:43Z</time>
      </trkpt>
      <trkpt lat="47.28901" lon="6.76993">
        <ele>398.6</ele>
        <time>2021-04-04T14:59:44Z</time>
      </trkpt>
      <trkpt lat="47.28926" lon="6.77137">
        <ele>398.12</ele>
        <time>2021-04-04T14:59:57Z</time>
      </trkpt>
      <trkpt lat="47.28946" lon="6.773">
        <ele>398.6</ele>
        <time>2021-04-04T15:00:12Z</time>
      </trkpt>
      <trkpt lat="47.28968" lon="6.77495">
        <ele>398.6</ele>
        <time>2021-04-04T15:00:30Z</time>
      </trkpt>
      <trkpt lat="47.28999" lon="6.77608">
        <ele>397.64</ele>
        <time>2021-04-04T15:00:42Z</time>
      </trkpt>
      <trkpt lat="47.29075" lon="6.77744">
        <ele>396.2</ele>
        <time>2021-04-04T15:00:59Z</time>
      </trkpt>
      <trkpt lat="47.29124" lon="6.77883">
        <ele>395.24</ele>
        <time>2021-04-04T15:01:14Z</time>
      </trkpt>
      <trkpt lat="47.29177" lon="6.78021">
        <ele>395.72</ele>
        <time>2021-04-04T15:01:29Z</time>
      </trkpt>
      <trkpt lat="47.29222" lon="6.78176">
        <ele>395.72</ele>
        <time>2021-04-04T15:01:45Z</time>
      </trkpt>
      <trkpt lat="47.29247" lon="6.78369">
        <ele>396.68</ele>
        <time>2021-04-04T15:02:04Z</time>
      </trkpt>
      <trkpt lat="47.2928" lon="6.78557">
        <ele>397.16</ele>
        <time>2021-04-04T15:02:23Z</time>
      </trkpt>
      <trkpt lat="47.29299" lon="6.78609">
        <ele>396.2</ele>
        <time>2021-04-04T15:02:29Z</time>
      </trkpt>
      <trkpt lat="47.29304" lon="6.78616">
        <ele>396.68</ele>
        <time>2021-04-04T15:02:30Z</time>
      </trkpt>
      <trkpt lat="47.29309" lon="6.78622">
        <ele>396.2</ele>
        <time>2021-04-04T15:02:31Z</time>
      </trkpt>
      <trkpt lat="47.29315" lon="6.78628">
        <ele>396.68</ele>
        <time>2021-04-04T15:02:32Z</time>
      </trkpt>
      <trkpt lat="47.29321" lon="6.78632">
        <ele>396.68</ele>
        <time>2021-04-04T15:02:33Z</time>
      </trkpt>
      <trkpt lat="47.29328" lon="6.78636">
        <ele>397.16</ele>
        <time>2021-04-04T15:02:34Z</time>
      </trkpt>
      <trkpt lat="47.29335" lon="6.7864">
        <ele>396.68</ele>
        <time>2021-04-04T15:02:35Z</time>
      </trkpt>
      <trkpt lat="47.29418" lon="6.78654">
        <ele>394.28</ele>
        <time>2021-04-04T15:02:47Z</time>
      </trkpt>
      <trkpt lat="47.29546" lon="6.78699">
        <ele>393.32</ele>
        <time>2021-04-04T15:03:05Z</time>
      </trkpt>
      <trkpt lat="47.29621" lon="6.78788">
        <ele>392.84</ele>
        <time>2021-04-04T15:03:18Z</time>
      </trkpt>
      <trkpt lat="47.29662" lon="6.78923">
        <ele>391.87</ele>
        <time>2021-04-04T15:03:31Z</time>
      </trkpt>
      <trkpt lat="47.2971" lon="6.79057">
        <ele>391.87</ele>
        <time>2021-04-04T15:03:45Z</time>
      </trkpt>
      <trkpt lat="47.29714" lon="6.79062">
        <ele>392.36</ele>
        <time>2021-04-04T15:03:46Z</time>
      </trkpt>
      <trkpt lat="47.29786" lon="6.7911">
        <ele>392.36</ele>
        <time>2021-04-04T15:03:57Z</time>
      </trkpt>
      <trkpt lat="47.29794" lon="6.7911">
        <ele>391.87</ele>
        <time>2021-04-04T15:03:58Z</time>
      </trkpt>
      <trkpt lat="47.29802" lon="6.79109">
        <ele>391.87</ele>
        <time>2021-04-04T15:03:59Z</time>
      </trkpt>
      <trkpt lat="47.29885" lon="6.79072">
        <ele>392.36</ele>
        <time>2021-04-04T15:04:11Z</time>
      </trkpt>
      <trkpt lat="47.30022" lon="6.79001">
        <ele>389.95</ele>
        <time>2021-04-04T15:04:31Z</time>
      </trkpt>
      <trkpt lat="47.30129" lon="6.79007">
        <ele>389.47</ele>
        <time>2021-04-04T15:04:46Z</time>
      </trkpt>
      <trkpt lat="47.30218" lon="6.79083">
        <ele>388.99</ele>
        <time>2021-04-04T15:05:01Z</time>
      </trkpt>
      <trkpt lat="47.30328" lon="6.79201">
        <ele>388.99</ele>
        <time>2021-04-04T15:05:20Z</time>
      </trkpt>
      <trkpt lat="47.30415" lon="6.79294">
        <ele>388.99</ele>
        <time>2021-04-04T15:05:35Z</time>
      </trkpt>
      <trkpt lat="47.30532" lon="6.79386">
        <ele>388.99</ele>
        <time>2021-04-04T15:05:53Z</time>
      </trkpt>
      <trkpt lat="47.30639" lon="6.79418">
        <ele>388.51</ele>
        <time>2021-04-04T15:06:08Z</time>
      </trkpt>
      <trkpt lat="47.30754" lon="6.79473">
        <ele>387.07</ele>
        <time>2021-04-04T15:06:25Z</time>
      </trkpt>
      <trkpt lat="47.30784" lon="6.79503">
        <ele>387.07</ele>
        <time>2021-04-04T15:06:30Z</time>
      </trkpt>
      <trkpt lat="47.30789" lon="6.7951">
        <ele>386.59</ele>
        <time>2021-04-04T15:06:31Z</time>
      </trkpt>
      <trkpt lat="47.30792" lon="6.79516">
        <ele>386.59</ele>
        <time>2021-04-04T15:06:32Z</time>
      </trkpt>
      <trkpt lat="47.30797" lon="6.79524">
        <ele>386.11</ele>
        <time>2021-04-04T15:06:33Z</time>
      </trkpt>
      <trkpt lat="47.308" lon="6.79534">
        <ele>386.11</ele>
        <time>2021-04-04T15:06:34Z</time>
      </trkpt>
      <trkpt lat="47.3085" lon="6.79688">
        <ele>386.11</ele>
        <time>2021-04-04T15:06:50Z</time>
      </trkpt>
      <trkpt lat="47.30854" lon="6.79796">
        <ele>386.11</ele>
        <time>2021-04-04T15:07:00Z</time>
      </trkpt>
      <trkpt lat="47.30822" lon="6.7998">
        <ele>385.15</ele>
        <time>2021-04-04T15:07:18Z</time>
      </trkpt>
      <trkpt lat="47.30824" lon="6.80146">
        <ele>384.18</ele>
        <time>2021-04-04T15:07:34Z</time>
      </trkpt>
      <trkpt lat="47.30866" lon="6.80267">
        <ele>384.18</ele>
        <time>2021-04-04T15:07:47Z</time>
      </trkpt>
      <trkpt lat="47.30933" lon="6.80334">
        <ele>384.18</ele>
        <time>2021-04-04T15:07:59Z</time>
      </trkpt>
      <trkpt lat="47.31007" lon="6.80349">
        <ele>383.22</ele>
        <time>2021-04-04T15:08:09Z</time>
      </trkpt>
      <trkpt lat="47.31044" lon="6.8036">
        <ele>383.22</ele>
        <time>2021-04-04T15:08:14Z</time>
      </trkpt>
      <trkpt lat="47.31051" lon="6.80363">
        <ele>382.74</ele>
        <time>2021-04-04T15:08:15Z</time>
      </trkpt>
      <trkpt lat="47.31118" lon="6.80446">
        <ele>382.26</ele>
        <time>2021-04-04T15:08:27Z</time>
      </trkpt>
      <trkpt lat="47.31169" lon="6.80607">
        <ele>383.22</ele>
        <time>2021-04-04T15:08:43Z</time>
      </trkpt>
      <trkpt lat="47.31179" lon="6.80686">
        <ele>381.78</ele>
        <time>2021-04-04T15:08:50Z</time>
      </trkpt>
      <trkpt lat="47.31165" lon="6.80829">
        <ele>382.26</ele>
        <time>2021-04-04T15:09:03Z</time>
      </trkpt>
      <trkpt lat="47.31165" lon="6.80893">
        <ele>380.82</ele>
        <time>2021-04-04T15:09:09Z</time>
      </trkpt>
      <trkpt lat="47.31167" lon="6.80903">
        <ele>380.82</ele>
        <time>2021-04-04T15:09:10Z</time>
      </trkpt>
      <trkpt lat="47.3117" lon="6.80915">
        <ele>380.82</ele>
        <time>2021-04-04T15:09:11Z</time>
      </trkpt>
      <trkpt lat="47.31201" lon="6.80984">
        <ele>379.38</ele>
        <time>2021-04-04T15:09:18Z</time>
      </trkpt>
      <trkpt lat="47.31208" lon="6.80989">
        <ele>379.38</ele>
        <time>2021-04-04T15:09:19Z</time>
      </trkpt>
      <trkpt lat="47.31297" lon="6.81041">
        <ele>377.45</ele>
        <time>2021-04-04T15:09:31Z</time>
      </trkpt>
      <trkpt lat="47.31329" lon="6.81043">
        <ele>377.45</ele>
        <time>2021-04-04T15:09:36Z</time>
      </trkpt>
      <trkpt lat="47.31338" lon="6.8104">
        <ele>377.45</ele>
        <time>2021-04-04T15:09:37Z</time>
      </trkpt>
      <trkpt lat="47.31472" lon="6.80999">
        <ele>378.9</ele>
        <time>2021-04-04T15:09:53Z</time>
      </trkpt>
      <trkpt lat="47.31596" lon="6.80995">
        <ele>378.42</ele>
        <time>2021-04-04T15:10:10Z</time>
      </trkpt>
      <trkpt lat="47.3168" lon="6.81011">
        <ele>376.49</ele>
        <time>2021-04-04T15:10:22Z</time>
      </trkpt>
      <trkpt lat="47.3172" lon="6.8103">
        <ele>376.49</ele>
        <time>2021-04-04T15:10:28Z</time>
      </trkpt>
      <trkpt lat="47.31724" lon="6.81036">
        <ele>376.97</ele>
        <time>2021-04-04T15:10:29Z</time>
      </trkpt>
      <trkpt lat="47.31727" lon="6.81043">
        <ele>376.97</ele>
        <time>2021-04-04T15:10:30Z</time>
      </trkpt>
      <trkpt lat="47.3173" lon="6.81052">
        <ele>377.45</ele>
        <time>2021-04-04T15:10:31Z</time>
      </trkpt>
      <trkpt lat="47.3173" lon="6.8106">
        <ele>377.45</ele>
        <time>2021-04-04T15:10:32Z</time>
      </trkpt>
      <trkpt lat="47.3173" lon="6.81067">
        <ele>377.94</ele>
        <time>2021-04-04T15:10:33Z</time>
      </trkpt>
      <trkpt lat="47.31729" lon="6.81075">
        <ele>377.94</ele>
        <time>2021-04-04T15:10:34Z</time>
      </trkpt>
      <trkpt lat="47.31728" lon="6.81082">
        <ele>378.42</ele>
        <time>2021-04-04T15:10:35Z</time>
      </trkpt>
      <trkpt lat="47.31717" lon="6.81153">
        <ele>380.82</ele>
        <time>2021-04-04T15:10:48Z</time>
      </trkpt>
      <trkpt lat="47.31717" lon="6.81155">
        <ele>380.82</ele>
        <time>2021-04-04T15:10:49Z</time>
      </trkpt>
      <trkpt lat="47.31719" lon="6.81156">
        <ele>380.82</ele>
        <time>2021-04-04T15:10:50Z</time>
      </trkpt>
      <trkpt lat="47.3173" lon="6.81169">
        <ele>380.82</ele>
        <time>2021-04-04T15:10:55Z</time>
      </trkpt>
      <trkpt lat="47.31735" lon="6.8117">
        <ele>381.3</ele>
        <time>2021-04-04T15:10:56Z</time>
      </trkpt>
      <trkpt lat="47.31766" lon="6.81174">
        <ele>380.82</ele>
        <time>2021-04-04T15:11:01Z</time>
      </trkpt>
      <trkpt lat="47.31791" lon="6.81203">
        <ele>380.34</ele>
        <time>2021-04-04T15:11:08Z</time>
      </trkpt>
      <trkpt lat="47.31794" lon="6.81203">
        <ele>379.86</ele>
        <time>2021-04-04T15:11:09Z</time>
      </trkpt>
      <trkpt lat="47.31799" lon="6.81202">
        <ele>379.86</ele>
        <time>2021-04-04T15:11:10Z</time>
      </trkpt>
      <trkpt lat="47.31809" lon="6.81197">
        <ele>379.86</ele>
        <time>2021-04-04T15:11:12Z</time>
      </trkpt>
      <trkpt lat="47.31812" lon="6.81195">
        <ele>379.38</ele>
        <time>2021-04-04T15:11:13Z</time>
      </trkpt>
      <trkpt lat="47.31814" lon="6.81192">
        <ele>379.38</ele>
        <time>2021-04-04T15:11:14Z</time>
      </trkpt>
      <trkpt lat="47.31814" lon="6.81191">
        <ele>379.38</ele>
        <time>2021-04-04T15:11:15Z</time>
      </trkpt>
      <trkpt lat="47.31814" lon="6.81191">
        <ele>379.38</ele>
        <time>2021-04-04T15:11:16Z</time>
      </trkpt>
      <trkpt lat="47.31817" lon="6.81198">
        <ele>379.38</ele>
        <time>2021-04-04T15:11:29Z</time>
      </trkpt>
      <trkpt lat="47.31818" lon="6.81201">
        <ele>379.38</ele>
        <time>2021-04-04T15:11:31Z</time>
      </trkpt>
      <trkpt lat="47.31821" lon="6.81216">
        <ele>379.86</ele>
        <time>2021-04-04T15:11:37Z</time>
      </trkpt>
      <trkpt lat="47.3182" lon="6.81219">
        <ele>380.34</ele>
        <time>2021-04-04T15:11:39Z</time>
      </trkpt>
      <trkpt lat="47.31819" lon="6.81225">
        <ele>379.38</ele>
        <time>2021-04-04T15:11:40Z</time>
      </trkpt>
      <trkpt lat="47.31818" lon="6.81227">
        <ele>379.38</ele>
        <time>2021-04-04T15:11:41Z</time>
      </trkpt>
      <trkpt lat="47.31818" lon="6.8123">
        <ele>379.38</ele>
        <time>2021-04-04T15:11:42Z</time>
      </trkpt>
      <trkpt lat="47.31818" lon="6.81232">
        <ele>379.38</ele>
        <time>2021-04-04T15:11:43Z</time>
      </trkpt>
      <trkpt lat="47.31818" lon="6.81239">
        <ele>379.38</ele>
        <time>2021-04-04T15:11:46Z</time>
      </trkpt>
      <trkpt lat="47.31819" lon="6.81242">
        <ele>379.38</ele>
        <time>2021-04-04T15:11:47Z</time>
      </trkpt>
      <trkpt lat="47.3182" lon="6.81245">
        <ele>379.38</ele>
        <time>2021-04-04T15:11:48Z</time>
      </trkpt>
      <trkpt lat="47.31822" lon="6.81248">
        <ele>379.86</ele>
        <time>2021-04-04T15:11:49Z</time>
      </trkpt>
      <trkpt lat="47.31824" lon="6.8125">
        <ele>379.38</ele>
        <time>2021-04-04T15:11:50Z</time>
      </trkpt>
      <trkpt lat="47.31826" lon="6.81252">
        <ele>379.38</ele>
        <time>2021-04-04T15:11:51Z</time>
      </trkpt>
      <trkpt lat="47.31829" lon="6.81254">
        <ele>379.38</ele>
        <time>2021-04-04T15:11:52Z</time>
      </trkpt>
      <trkpt lat="47.31879" lon="6.8129">
        <ele>377.94</ele>
        <time>2021-04-04T15:12:04Z</time>
      </trkpt>
      <trkpt lat="47.31912" lon="6.81334">
        <ele>377.45</ele>
        <time>2021-04-04T15:12:11Z</time>
      </trkpt>
      <trkpt lat="47.31914" lon="6.81342">
        <ele>377.94</ele>
        <time>2021-04-04T15:12:12Z</time>
      </trkpt>
      <trkpt lat="47.31913" lon="6.81347">
        <ele>377.45</ele>
        <time>2021-04-04T15:12:13Z</time>
      </trkpt>
      <trkpt lat="47.31912" lon="6.81354">
        <ele>376.97</ele>
        <time>2021-04-04T15:12:14Z</time>
      </trkpt>
      <trkpt lat="47.31911" lon="6.81361">
        <ele>376.97</ele>
        <time>2021-04-04T15:12:15Z</time>
      </trkpt>
      <trkpt lat="47.31902" lon="6.81391">
        <ele>374.57</ele>
        <time>2021-04-04T15:12:20Z</time>
      </trkpt>
      <trkpt lat="47.31899" lon="6.81395">
        <ele>374.09</ele>
        <time>2021-04-04T15:12:21Z</time>
      </trkpt>
      <trkpt lat="47.31896" lon="6.81396">
        <ele>373.61</ele>
        <time>2021-04-04T15:12:22Z</time>
      </trkpt>
      <trkpt lat="47.31888" lon="6.81383">
        <ele>373.61</ele>
        <time>2021-04-04T15:12:26Z</time>
      </trkpt>
      <trkpt lat="47.31878" lon="6.81372">
        <ele>373.61</ele>
        <time>2021-04-04T15:12:40Z</time>
      </trkpt>
      <trkpt lat="47.31878" lon="6.81374">
        <ele>373.13</ele>
        <time>2021-04-04T15:12:56Z</time>
      </trkpt>
      <trkpt lat="47.3188" lon="6.81382">
        <ele>373.61</ele>
        <time>2021-04-04T15:13:00Z</time>
      </trkpt>
      <trkpt lat="47.31893" lon="6.81418">
        <ele>373.61</ele>
        <time>2021-04-04T15:13:11Z</time>
      </trkpt>
      <trkpt lat="47.3188" lon="6.81484">
        <ele>374.09</ele>
        <time>2021-04-04T15:13:27Z</time>
      </trkpt>
      <trkpt lat="47.3187" lon="6.8149">
        <ele>373.61</ele>
        <time>2021-04-04T15:13:36Z</time>
      </trkpt>
      <trkpt lat="47.31869" lon="6.81488">
        <ele>373.61</ele>
        <time>2021-04-04T15:13:52Z</time>
      </trkpt>
      <trkpt lat="47.31862" lon="6.81476">
        <ele>373.61</ele>
        <time>2021-04-04T15:14:08Z</time>
      </trkpt>
      <trkpt lat="47.31865" lon="6.81479">
        <ele>373.61</ele>
        <time>2021-04-04T15:14:46Z</time>
      </trkpt>
      <trkpt lat="47.31865" lon="6.81475">
        <ele>373.61</ele>
        <time>2021-04-04T15:15:22Z</time>
      </trkpt>
      <trkpt lat="47.31866" lon="6.81467">
        <ele>373.61</ele>
        <time>2021-04-04T15:16:02Z</time>
      </trkpt>
      <trkpt lat="47.31862" lon="6.81472">
        <ele>373.13</ele>
        <time>2021-04-04T15:16:44Z</time>
      </trkpt>
      <trkpt lat="47.31862" lon="6.81475">
        <ele>373.61</ele>
        <time>2021-04-04T15:17:32Z</time>
      </trkpt>
      <trkpt lat="47.3186" lon="6.81473">
        <ele>373.13</ele>
        <time>2021-04-04T15:18:06Z</time>
      </trkpt>
      <trkpt lat="47.31863" lon="6.8147">
        <ele>373.61</ele>
        <time>2021-04-04T15:18:11Z</time>
      </trkpt>
      <trkpt lat="47.31871" lon="6.8147">
        <ele>373.13</ele>
        <time>2021-04-04T15:18:24Z</time>
      </trkpt>
      <trkpt lat="47.31874" lon="6.81478">
        <ele>373.61</ele>
        <time>2021-04-04T15:18:27Z</time>
      </trkpt>
      <trkpt lat="47.31874" lon="6.81482">
        <ele>373.61</ele>
        <time>2021-04-04T15:18:28Z</time>
      </trkpt>
      <trkpt lat="47.31874" lon="6.81486">
        <ele>373.61</ele>
        <time>2021-04-04T15:18:29Z</time>
      </trkpt>
      <trkpt lat="47.31873" lon="6.8149">
        <ele>373.61</ele>
        <time>2021-04-04T15:18:30Z</time>
      </trkpt>
      <trkpt lat="47.31873" lon="6.81496">
        <ele>373.61</ele>
        <time>2021-04-04T15:18:31Z</time>
      </trkpt>
      <trkpt lat="47.31877" lon="6.81567">
        <ele>374.09</ele>
        <time>2021-04-04T15:18:43Z</time>
      </trkpt>
      <trkpt lat="47.31879" lon="6.81571">
        <ele>374.09</ele>
        <time>2021-04-04T15:18:44Z</time>
      </trkpt>
      <trkpt lat="47.31882" lon="6.81573">
        <ele>374.09</ele>
        <time>2021-04-04T15:18:45Z</time>
      </trkpt>
      <trkpt lat="47.31885" lon="6.8157">
        <ele>374.57</ele>
        <time>2021-04-04T15:18:46Z</time>
      </trkpt>
      <trkpt lat="47.31889" lon="6.81566">
        <ele>375.05</ele>
        <time>2021-04-04T15:18:47Z</time>
      </trkpt>
      <trkpt lat="47.31891" lon="6.81562">
        <ele>375.05</ele>
        <time>2021-04-04T15:18:48Z</time>
      </trkpt>
      <trkpt lat="47.31892" lon="6.81556">
        <ele>376.01</ele>
        <time>2021-04-04T15:18:49Z</time>
      </trkpt>
      <trkpt lat="47.31895" lon="6.8155">
        <ele>376.01</ele>
        <time>2021-04-04T15:18:50Z</time>
      </trkpt>
      <trkpt lat="47.31897" lon="6.81546">
        <ele>376.49</ele>
        <time>2021-04-04T15:18:51Z</time>
      </trkpt>
      <trkpt lat="47.31899" lon="6.81541">
        <ele>376.97</ele>
        <time>2021-04-04T15:18:52Z</time>
      </trkpt>
      <trkpt lat="47.3191" lon="6.81524">
        <ele>378.42</ele>
        <time>2021-04-04T15:18:57Z</time>
      </trkpt>
      <trkpt lat="47.31912" lon="6.81519">
        <ele>378.42</ele>
        <time>2021-04-04T15:18:58Z</time>
      </trkpt>
      <trkpt lat="47.31922" lon="6.81424">
        <ele>377.45</ele>
        <time>2021-04-04T15:19:12Z</time>
      </trkpt>
      <trkpt lat="47.31929" lon="6.81377">
        <ele>377.45</ele>
        <time>2021-04-04T15:19:19Z</time>
      </trkpt>
      <trkpt lat="47.31931" lon="6.81371">
        <ele>377.45</ele>
        <time>2021-04-04T15:19:20Z</time>
      </trkpt>
      <trkpt lat="47.31936" lon="6.81361">
        <ele>377.94</ele>
        <time>2021-04-04T15:19:22Z</time>
      </trkpt>
      <trkpt lat="47.3194" lon="6.81359">
        <ele>377.94</ele>
        <time>2021-04-04T15:19:23Z</time>
      </trkpt>
      <trkpt lat="47.31944" lon="6.81363">
        <ele>378.42</ele>
        <time>2021-04-04T15:19:24Z</time>
      </trkpt>
      <trkpt lat="47.31947" lon="6.81369">
        <ele>378.42</ele>
        <time>2021-04-04T15:19:25Z</time>
      </trkpt>
      <trkpt lat="47.31949" lon="6.81374">
        <ele>378.42</ele>
        <time>2021-04-04T15:19:26Z</time>
      </trkpt>
      <trkpt lat="47.31977" lon="6.81428">
        <ele>381.3</ele>
        <time>2021-04-04T15:19:36Z</time>
      </trkpt>
      <trkpt lat="47.31992" lon="6.81467">
        <ele>382.74</ele>
        <time>2021-04-04T15:19:43Z</time>
      </trkpt>
      <trkpt lat="47.31994" lon="6.81473">
        <ele>382.74</ele>
        <time>2021-04-04T15:19:44Z</time>
      </trkpt>
      <trkpt lat="47.31994" lon="6.8148">
        <ele>383.22</ele>
        <time>2021-04-04T15:19:45Z</time>
      </trkpt>
      <trkpt lat="47.31995" lon="6.81486">
        <ele>383.7</ele>
        <time>2021-04-04T15:19:46Z</time>
      </trkpt>
      <trkpt lat="47.31995" lon="6.81493">
        <ele>383.22</ele>
        <time>2021-04-04T15:19:47Z</time>
      </trkpt>
      <trkpt lat="47.31994" lon="6.81499">
        <ele>383.7</ele>
        <time>2021-04-04T15:19:48Z</time>
      </trkpt>
      <trkpt lat="47.31993" lon="6.81505">
        <ele>384.18</ele>
        <time>2021-04-04T15:19:49Z</time>
      </trkpt>
      <trkpt lat="47.31991" lon="6.81511">
        <ele>384.66</ele>
        <time>2021-04-04T15:19:50Z</time>
      </trkpt>
      <trkpt lat="47.31989" lon="6.81516">
        <ele>384.66</ele>
        <time>2021-04-04T15:19:51Z</time>
      </trkpt>
      <trkpt lat="47.31986" lon="6.81521">
        <ele>384.66</ele>
        <time>2021-04-04T15:19:52Z</time>
      </trkpt>
      <trkpt lat="47.31984" lon="6.81526">
        <ele>384.18</ele>
        <time>2021-04-04T15:19:53Z</time>
      </trkpt>
      <trkpt lat="47.31943" lon="6.81616">
        <ele>384.18</ele>
        <time>2021-04-04T15:20:08Z</time>
      </trkpt>
      <trkpt lat="47.31942" lon="6.81622">
        <ele>384.18</ele>
        <time>2021-04-04T15:20:09Z</time>
      </trkpt>
      <trkpt lat="47.31942" lon="6.81629">
        <ele>384.66</ele>
        <time>2021-04-04T15:20:10Z</time>
      </trkpt>
      <trkpt lat="47.31942" lon="6.81635">
        <ele>385.15</ele>
        <time>2021-04-04T15:20:11Z</time>
      </trkpt>
      <trkpt lat="47.31943" lon="6.81641">
        <ele>384.66</ele>
        <time>2021-04-04T15:20:12Z</time>
      </trkpt>
      <trkpt lat="47.31944" lon="6.81648">
        <ele>385.15</ele>
        <time>2021-04-04T15:20:13Z</time>
      </trkpt>
      <trkpt lat="47.31947" lon="6.81653">
        <ele>385.15</ele>
        <time>2021-04-04T15:20:14Z</time>
      </trkpt>
      <trkpt lat="47.3195" lon="6.81659">
        <ele>385.15</ele>
        <time>2021-04-04T15:20:15Z</time>
      </trkpt>
      <trkpt lat="47.31953" lon="6.81663">
        <ele>385.15</ele>
        <time>2021-04-04T15:20:16Z</time>
      </trkpt>
      <trkpt lat="47.31957" lon="6.81667">
        <ele>385.15</ele>
        <time>2021-04-04T15:20:17Z</time>
      </trkpt>
      <trkpt lat="47.31962" lon="6.81669">
        <ele>385.15</ele>
        <time>2021-04-04T15:20:18Z</time>
      </trkpt>
      <trkpt lat="47.31967" lon="6.8167">
        <ele>385.15</ele>
        <time>2021-04-04T15:20:19Z</time>
      </trkpt>
      <trkpt lat="47.31972" lon="6.8167">
        <ele>384.66</ele>
        <time>2021-04-04T15:20:20Z</time>
      </trkpt>
      <trkpt lat="47.31977" lon="6.81669">
        <ele>385.15</ele>
        <time>2021-04-04T15:20:21Z</time>
      </trkpt>
      <trkpt lat="47.31981" lon="6.81667">
        <ele>385.63</ele>
        <time>2021-04-04T15:20:22Z</time>
      </trkpt>
      <trkpt lat="47.31985" lon="6.81665">
        <ele>385.15</ele>
        <time>2021-04-04T15:20:23Z</time>
      </trkpt>
      <trkpt lat="47.31988" lon="6.81661">
        <ele>385.15</ele>
        <time>2021-04-04T15:20:24Z</time>
      </trkpt>
      <trkpt lat="47.31991" lon="6.81657">
        <ele>385.15</ele>
        <time>2021-04-04T15:20:25Z</time>
      </trkpt>
      <trkpt lat="47.31993" lon="6.81653">
        <ele>385.63</ele>
        <time>2021-04-04T15:20:26Z</time>
      </trkpt>
      <trkpt lat="47.32001" lon="6.81627">
        <ele>384.66</ele>
        <time>2021-04-04T15:20:32Z</time>
      </trkpt>
      <trkpt lat="47.31999" lon="6.81624">
        <ele>385.15</ele>
        <time>2021-04-04T15:20:33Z</time>
      </trkpt>
      <trkpt lat="47.31996" lon="6.81621">
        <ele>385.15</ele>
        <time>2021-04-04T15:20:34Z</time>
      </trkpt>
      <trkpt lat="47.31994" lon="6.81619">
        <ele>385.63</ele>
        <time>2021-04-04T15:20:35Z</time>
      </trkpt>
      <trkpt lat="47.31988" lon="6.81613">
        <ele>384.66</ele>
        <time>2021-04-04T15:20:39Z</time>
      </trkpt>
      <trkpt lat="47.31982" lon="6.81616">
        <ele>384.18</ele>
        <time>2021-04-04T15:20:45Z</time>
      </trkpt>
      <trkpt lat="47.31993" lon="6.81617">
        <ele>385.15</ele>
        <time>2021-04-04T15:20:51Z</time>
      </trkpt>
      <trkpt lat="47.32" lon="6.81639">
        <ele>384.66</ele>
        <time>2021-04-04T15:20:56Z</time>
      </trkpt>
      <trkpt lat="47.32003" lon="6.81641">
        <ele>385.15</ele>
        <time>2021-04-04T15:20:57Z</time>
      </trkpt>
      <trkpt lat="47.32005" lon="6.81642">
        <ele>385.15</ele>
        <time>2021-04-04T15:20:58Z</time>
      </trkpt>
      <trkpt lat="47.32007" lon="6.81642">
        <ele>385.15</ele>
        <time>2021-04-04T15:20:59Z</time>
      </trkpt>
      <trkpt lat="47.32009" lon="6.8164">
        <ele>385.15</ele>
        <time>2021-04-04T15:21:00Z</time>
      </trkpt>
      <trkpt lat="47.32011" lon="6.81637">
        <ele>385.63</ele>
        <time>2021-04-04T15:21:01Z</time>
      </trkpt>
      <trkpt lat="47.32015" lon="6.81633">
        <ele>385.15</ele>
        <time>2021-04-04T15:21:02Z</time>
      </trkpt>
      <trkpt lat="47.32062" lon="6.81584">
        <ele>386.11</ele>
        <time>2021-04-04T15:21:14Z</time>
      </trkpt>
      <trkpt lat="47.32101" lon="6.81551">
        <ele>386.59</ele>
        <time>2021-04-04T15:21:23Z</time>
      </trkpt>
      <trkpt lat="47.32106" lon="6.81551">
        <ele>386.59</ele>
        <time>2021-04-04T15:21:24Z</time>
      </trkpt>
      <trkpt lat="47.32111" lon="6.81553">
        <ele>386.59</ele>
        <time>2021-04-04T15:21:25Z</time>
      </trkpt>
      <trkpt lat="47.32116" lon="6.81558">
        <ele>387.07</ele>
        <time>2021-04-04T15:21:26Z</time>
      </trkpt>
      <trkpt lat="47.32119" lon="6.81564">
        <ele>387.07</ele>
        <time>2021-04-04T15:21:27Z</time>
      </trkpt>
      <trkpt lat="47.32122" lon="6.81571">
        <ele>387.07</ele>
        <time>2021-04-04T15:21:28Z</time>
      </trkpt>
      <trkpt lat="47.32125" lon="6.81578">
        <ele>387.07</ele>
        <time>2021-04-04T15:21:29Z</time>
      </trkpt>
      <trkpt lat="47.32126" lon="6.81586">
        <ele>387.55</ele>
        <time>2021-04-04T15:21:30Z</time>
      </trkpt>
      <trkpt lat="47.32127" lon="6.81594">
        <ele>387.55</ele>
        <time>2021-04-04T15:21:31Z</time>
      </trkpt>
      <trkpt lat="47.32128" lon="6.81602">
        <ele>387.07</ele>
        <time>2021-04-04T15:21:32Z</time>
      </trkpt>
      <trkpt lat="47.32129" lon="6.81744">
        <ele>386.11</ele>
        <time>2021-04-04T15:21:48Z</time>
      </trkpt>
      <trkpt lat="47.32168" lon="6.81904">
        <ele>386.11</ele>
        <time>2021-04-04T15:22:07Z</time>
      </trkpt>
      <trkpt lat="47.32177" lon="6.81925">
        <ele>386.11</ele>
        <time>2021-04-04T15:22:10Z</time>
      </trkpt>
      <trkpt lat="47.3218" lon="6.81933">
        <ele>386.11</ele>
        <time>2021-04-04T15:22:11Z</time>
      </trkpt>
      <trkpt lat="47.32184" lon="6.81939">
        <ele>386.11</ele>
        <time>2021-04-04T15:22:12Z</time>
      </trkpt>
      <trkpt lat="47.32188" lon="6.81945">
        <ele>386.11</ele>
        <time>2021-04-04T15:22:13Z</time>
      </trkpt>
      <trkpt lat="47.32193" lon="6.8195">
        <ele>386.11</ele>
        <time>2021-04-04T15:22:14Z</time>
      </trkpt>
      <trkpt lat="47.32234" lon="6.82036">
        <ele>387.07</ele>
        <time>2021-04-04T15:22:26Z</time>
      </trkpt>
      <trkpt lat="47.32258" lon="6.82098">
        <ele>390.43</ele>
        <time>2021-04-04T15:22:35Z</time>
      </trkpt>
      <trkpt lat="47.32265" lon="6.82139">
        <ele>388.99</ele>
        <time>2021-04-04T15:22:46Z</time>
      </trkpt>
      <trkpt lat="47.32268" lon="6.82182">
        <ele>388.51</ele>
        <time>2021-04-04T15:22:58Z</time>
      </trkpt>
      <trkpt lat="47.32277" lon="6.82245">
        <ele>386.11</ele>
        <time>2021-04-04T15:23:07Z</time>
      </trkpt>
      <trkpt lat="47.32279" lon="6.82254">
        <ele>385.63</ele>
        <time>2021-04-04T15:23:08Z</time>
      </trkpt>
      <trkpt lat="47.3228" lon="6.82263">
        <ele>385.15</ele>
        <time>2021-04-04T15:23:09Z</time>
      </trkpt>
      <trkpt lat="47.3228" lon="6.8227">
        <ele>384.66</ele>
        <time>2021-04-04T15:23:10Z</time>
      </trkpt>
      <trkpt lat="47.32279" lon="6.8228">
        <ele>383.22</ele>
        <time>2021-04-04T15:23:12Z</time>
      </trkpt>
      <trkpt lat="47.32275" lon="6.82277">
        <ele>383.22</ele>
        <time>2021-04-04T15:23:13Z</time>
      </trkpt>
      <trkpt lat="47.32273" lon="6.82271">
        <ele>383.7</ele>
        <time>2021-04-04T15:23:14Z</time>
      </trkpt>
      <trkpt lat="47.32243" lon="6.82179">
        <ele>385.63</ele>
        <time>2021-04-04T15:23:27Z</time>
      </trkpt>
      <trkpt lat="47.32234" lon="6.8216">
        <ele>385.63</ele>
        <time>2021-04-04T15:23:34Z</time>
      </trkpt>
      <trkpt lat="47.32233" lon="6.82159">
        <ele>385.15</ele>
        <time>2021-04-04T15:23:35Z</time>
      </trkpt>
      <trkpt lat="47.32233" lon="6.82157">
        <ele>385.15</ele>
        <time>2021-04-04T15:23:36Z</time>
      </trkpt>
      <trkpt lat="47.3223" lon="6.8215">
        <ele>385.15</ele>
        <time>2021-04-04T15:23:49Z</time>
      </trkpt>
      <trkpt lat="47.3223" lon="6.82145">
        <ele>385.63</ele>
        <time>2021-04-04T15:24:08Z</time>
      </trkpt>
      <trkpt lat="47.32236" lon="6.8215">
        <ele>385.15</ele>
        <time>2021-04-04T15:24:17Z</time>
      </trkpt>
      <trkpt lat="47.32245" lon="6.82159">
        <ele>385.15</ele>
        <time>2021-04-04T15:24:22Z</time>
      </trkpt>
      <trkpt lat="47.32248" lon="6.82163">
        <ele>385.63</ele>
        <time>2021-04-04T15:24:23Z</time>
      </trkpt>
      <trkpt lat="47.3225" lon="6.82168">
        <ele>385.15</ele>
        <time>2021-04-04T15:24:24Z</time>
      </trkpt>
      <trkpt lat="47.32275" lon="6.82265">
        <ele>384.18</ele>
        <time>2021-04-04T15:24:37Z</time>
      </trkpt>
      <trkpt lat="47.3228" lon="6.82281">
        <ele>383.7</ele>
        <time>2021-04-04T15:24:39Z</time>
      </trkpt>
      <trkpt lat="47.32282" lon="6.82284">
        <ele>383.7</ele>
        <time>2021-04-04T15:24:40Z</time>
      </trkpt>
      <trkpt lat="47.32285" lon="6.82284">
        <ele>384.18</ele>
        <time>2021-04-04T15:24:41Z</time>
      </trkpt>
      <trkpt lat="47.32288" lon="6.82281">
        <ele>384.18</ele>
        <time>2021-04-04T15:24:42Z</time>
      </trkpt>
      <trkpt lat="47.32289" lon="6.82278">
        <ele>384.66</ele>
        <time>2021-04-04T15:24:43Z</time>
      </trkpt>
      <trkpt lat="47.3229" lon="6.82273">
        <ele>385.15</ele>
        <time>2021-04-04T15:24:44Z</time>
      </trkpt>
      <trkpt lat="47.32282" lon="6.82236">
        <ele>387.07</ele>
        <time>2021-04-04T15:24:51Z</time>
      </trkpt>
      <trkpt lat="47.32273" lon="6.82198">
        <ele>388.03</ele>
        <time>2021-04-04T15:24:57Z</time>
      </trkpt>
      <trkpt lat="47.32272" lon="6.82191">
        <ele>388.51</ele>
        <time>2021-04-04T15:24:58Z</time>
      </trkpt>
      <trkpt lat="47.3227" lon="6.82183">
        <ele>388.51</ele>
        <time>2021-04-04T15:24:59Z</time>
      </trkpt>
      <trkpt lat="47.32256" lon="6.82106">
        <ele>389.95</ele>
        <time>2021-04-04T15:25:08Z</time>
      </trkpt>
      <trkpt lat="47.32253" lon="6.821">
        <ele>389.95</ele>
        <time>2021-04-04T15:25:09Z</time>
      </trkpt>
      <trkpt lat="47.32251" lon="6.82093">
        <ele>389.95</ele>
        <time>2021-04-04T15:25:10Z</time>
      </trkpt>
      <trkpt lat="47.32215" lon="6.81998">
        <ele>387.07</ele>
        <time>2021-04-04T15:25:21Z</time>
      </trkpt>
      <trkpt lat="47.32201" lon="6.81962">
        <ele>386.11</ele>
        <time>2021-04-04T15:25:25Z</time>
      </trkpt>
      <trkpt lat="47.32197" lon="6.81955">
        <ele>386.11</ele>
        <time>2021-04-04T15:25:26Z</time>
      </trkpt>
      <trkpt lat="47.32192" lon="6.81948">
        <ele>386.11</ele>
        <time>2021-04-04T15:25:27Z</time>
      </trkpt>
      <trkpt lat="47.32186" lon="6.81942">
        <ele>385.63</ele>
        <time>2021-04-04T15:25:28Z</time>
      </trkpt>
      <trkpt lat="47.32181" lon="6.81934">
        <ele>386.11</ele>
        <time>2021-04-04T15:25:29Z</time>
      </trkpt>
      <trkpt lat="47.32177" lon="6.81926">
        <ele>386.11</ele>
        <time>2021-04-04T15:25:30Z</time>
      </trkpt>
      <trkpt lat="47.32173" lon="6.81918">
        <ele>386.11</ele>
        <time>2021-04-04T15:25:31Z</time>
      </trkpt>
      <trkpt lat="47.32169" lon="6.81909">
        <ele>386.11</ele>
        <time>2021-04-04T15:25:32Z</time>
      </trkpt>
      <trkpt lat="47.32136" lon="6.8179">
        <ele>385.63</ele>
        <time>2021-04-04T15:25:45Z</time>
      </trkpt>
      <trkpt lat="47.32123" lon="6.81666">
        <ele>386.11</ele>
        <time>2021-04-04T15:25:59Z</time>
      </trkpt>
      <trkpt lat="47.32122" lon="6.81588">
        <ele>387.07</ele>
        <time>2021-04-04T15:26:08Z</time>
      </trkpt>
      <trkpt lat="47.3212" lon="6.81581">
        <ele>387.07</ele>
        <time>2021-04-04T15:26:09Z</time>
      </trkpt>
      <trkpt lat="47.32118" lon="6.81575">
        <ele>386.59</ele>
        <time>2021-04-04T15:26:10Z</time>
      </trkpt>
      <trkpt lat="47.32115" lon="6.81569">
        <ele>387.07</ele>
        <time>2021-04-04T15:26:11Z</time>
      </trkpt>
      <trkpt lat="47.32113" lon="6.81564">
        <ele>387.07</ele>
        <time>2021-04-04T15:26:12Z</time>
      </trkpt>
      <trkpt lat="47.3211" lon="6.81559">
        <ele>387.07</ele>
        <time>2021-04-04T15:26:13Z</time>
      </trkpt>
      <trkpt lat="47.32109" lon="6.81552">
        <ele>387.07</ele>
        <time>2021-04-04T15:26:14Z</time>
      </trkpt>
      <trkpt lat="47.32111" lon="6.81546">
        <ele>386.59</ele>
        <time>2021-04-04T15:26:15Z</time>
      </trkpt>
      <trkpt lat="47.32114" lon="6.81541">
        <ele>387.07</ele>
        <time>2021-04-04T15:26:16Z</time>
      </trkpt>
      <trkpt lat="47.32118" lon="6.81537">
        <ele>387.07</ele>
        <time>2021-04-04T15:26:17Z</time>
      </trkpt>
      <trkpt lat="47.32123" lon="6.81533">
        <ele>387.07</ele>
        <time>2021-04-04T15:26:18Z</time>
      </trkpt>
      <trkpt lat="47.32174" lon="6.81482">
        <ele>388.51</ele>
        <time>2021-04-04T15:26:30Z</time>
      </trkpt>
      <trkpt lat="47.3218" lon="6.81476">
        <ele>388.99</ele>
        <time>2021-04-04T15:26:40Z</time>
      </trkpt>
      <trkpt lat="47.32179" lon="6.81476">
        <ele>388.99</ele>
        <time>2021-04-04T15:27:02Z</time>
      </trkpt>
      <trkpt lat="47.32182" lon="6.81471">
        <ele>388.99</ele>
        <time>2021-04-04T15:27:08Z</time>
      </trkpt>
      <trkpt lat="47.32183" lon="6.81468">
        <ele>388.99</ele>
        <time>2021-04-04T15:27:09Z</time>
      </trkpt>
      <trkpt lat="47.32185" lon="6.81465">
        <ele>389.47</ele>
        <time>2021-04-04T15:27:10Z</time>
      </trkpt>
      <trkpt lat="47.32216" lon="6.81422">
        <ele>392.36</ele>
        <time>2021-04-04T15:27:22Z</time>
      </trkpt>
      <trkpt lat="47.32252" lon="6.81391">
        <ele>395.24</ele>
        <time>2021-04-04T15:27:33Z</time>
      </trkpt>
      <trkpt lat="47.32294" lon="6.81376">
        <ele>398.6</ele>
        <time>2021-04-04T15:27:45Z</time>
      </trkpt>
      <trkpt lat="47.32331" lon="6.81383">
        <ele>401.49</ele>
        <time>2021-04-04T15:27:57Z</time>
      </trkpt>
      <trkpt lat="47.32378" lon="6.81399">
        <ele>404.85</ele>
        <time>2021-04-04T15:28:11Z</time>
      </trkpt>
      <trkpt lat="47.32426" lon="6.81402">
        <ele>408.22</ele>
        <time>2021-04-04T15:28:26Z</time>
      </trkpt>
      <trkpt lat="47.32467" lon="6.81409">
        <ele>411.1</ele>
        <time>2021-04-04T15:28:40Z</time>
      </trkpt>
      <trkpt lat="47.32508" lon="6.81419">
        <ele>414.47</ele>
        <time>2021-04-04T15:28:55Z</time>
      </trkpt>
      <trkpt lat="47.32541" lon="6.81391">
        <ele>417.35</ele>
        <time>2021-04-04T15:29:10Z</time>
      </trkpt>
      <trkpt lat="47.32581" lon="6.81344">
        <ele>420.23</ele>
        <time>2021-04-04T15:29:28Z</time>
      </trkpt>
      <trkpt lat="47.32634" lon="6.81313">
        <ele>423.6</ele>
        <time>2021-04-04T15:29:45Z</time>
      </trkpt>
      <trkpt lat="47.32693" lon="6.81289">
        <ele>426.96</ele>
        <time>2021-04-04T15:30:04Z</time>
      </trkpt>
      <trkpt lat="47.32708" lon="6.81322">
        <ele>429.37</ele>
        <time>2021-04-04T15:30:13Z</time>
      </trkpt>
      <trkpt lat="47.32684" lon="6.8136">
        <ele>432.25</ele>
        <time>2021-04-04T15:30:25Z</time>
      </trkpt>
      <trkpt lat="47.3265" lon="6.81403">
        <ele>435.13</ele>
        <time>2021-04-04T15:30:40Z</time>
      </trkpt>
      <trkpt lat="47.3263" lon="6.81457">
        <ele>437.06</ele>
        <time>2021-04-04T15:30:57Z</time>
      </trkpt>
      <trkpt lat="47.32626" lon="6.81476">
        <ele>438.02</ele>
        <time>2021-04-04T15:31:09Z</time>
      </trkpt>
      <trkpt lat="47.32617" lon="6.81519">
        <ele>439.94</ele>
        <time>2021-04-04T15:31:21Z</time>
      </trkpt>
      <trkpt lat="47.32615" lon="6.81519">
        <ele>439.94</ele>
        <time>2021-04-04T15:31:22Z</time>
      </trkpt>
      <trkpt lat="47.32613" lon="6.81519">
        <ele>438.98</ele>
        <time>2021-04-04T15:31:23Z</time>
      </trkpt>
      <trkpt lat="47.3261" lon="6.81518">
        <ele>438.98</ele>
        <time>2021-04-04T15:31:24Z</time>
      </trkpt>
      <trkpt lat="47.32609" lon="6.81517">
        <ele>438.98</ele>
        <time>2021-04-04T15:31:25Z</time>
      </trkpt>
      <trkpt lat="47.32602" lon="6.81514">
        <ele>438.02</ele>
        <time>2021-04-04T15:31:37Z</time>
      </trkpt>
      <trkpt lat="47.326" lon="6.81508">
        <ele>438.02</ele>
        <time>2021-04-04T15:32:19Z</time>
      </trkpt>
      <trkpt lat="47.32598" lon="6.81506">
        <ele>438.5</ele>
        <time>2021-04-04T15:32:57Z</time>
      </trkpt>
      <trkpt lat="47.32598" lon="6.81509">
        <ele>438.98</ele>
        <time>2021-04-04T15:33:37Z</time>
      </trkpt>
      <trkpt lat="47.326" lon="6.81512">
        <ele>439.46</ele>
        <time>2021-04-04T15:33:59Z</time>
      </trkpt>
      <trkpt lat="47.32602" lon="6.81513">
        <ele>439.94</ele>
        <time>2021-04-04T15:34:00Z</time>
      </trkpt>
      <trkpt lat="47.32604" lon="6.81512">
        <ele>439.46</ele>
        <time>2021-04-04T15:34:01Z</time>
      </trkpt>
      <trkpt lat="47.32606" lon="6.81512">
        <ele>439.94</ele>
        <time>2021-04-04T15:34:02Z</time>
      </trkpt>
      <trkpt lat="47.32608" lon="6.8151">
        <ele>440.9</ele>
        <time>2021-04-04T15:34:03Z</time>
      </trkpt>
      <trkpt lat="47.32612" lon="6.81511">
        <ele>441.38</ele>
        <time>2021-04-04T15:34:05Z</time>
      </trkpt>
      <trkpt lat="47.32613" lon="6.81515">
        <ele>441.38</ele>
        <time>2021-04-04T15:34:06Z</time>
      </trkpt>
      <trkpt lat="47.32612" lon="6.81518">
        <ele>441.86</ele>
        <time>2021-04-04T15:34:07Z</time>
      </trkpt>
      <trkpt lat="47.32611" lon="6.81522">
        <ele>441.86</ele>
        <time>2021-04-04T15:34:08Z</time>
      </trkpt>
      <trkpt lat="47.32609" lon="6.81525">
        <ele>442.34</ele>
        <time>2021-04-04T15:34:09Z</time>
      </trkpt>
      <trkpt lat="47.32607" lon="6.81529">
        <ele>442.34</ele>
        <time>2021-04-04T15:34:10Z</time>
      </trkpt>
      <trkpt lat="47.32568" lon="6.81584">
        <ele>445.71</ele>
        <time>2021-04-04T15:34:26Z</time>
      </trkpt>
      <trkpt lat="47.32522" lon="6.81595">
        <ele>449.07</ele>
        <time>2021-04-04T15:34:41Z</time>
      </trkpt>
      <trkpt lat="47.32475" lon="6.81598">
        <ele>451.96</ele>
        <time>2021-04-04T15:34:55Z</time>
      </trkpt>
      <trkpt lat="47.32424" lon="6.81601">
        <ele>454.84</ele>
        <time>2021-04-04T15:35:10Z</time>
      </trkpt>
      <trkpt lat="47.32382" lon="6.81629">
        <ele>458.21</ele>
        <time>2021-04-04T15:35:25Z</time>
      </trkpt>
      <trkpt lat="47.32338" lon="6.81662">
        <ele>461.09</ele>
        <time>2021-04-04T15:35:41Z</time>
      </trkpt>
      <trkpt lat="47.32299" lon="6.81693">
        <ele>464.45</ele>
        <time>2021-04-04T15:35:55Z</time>
      </trkpt>
      <trkpt lat="47.32293" lon="6.81748">
        <ele>466.86</ele>
        <time>2021-04-04T15:36:08Z</time>
      </trkpt>
      <trkpt lat="47.32325" lon="6.81805">
        <ele>469.74</ele>
        <time>2021-04-04T15:36:24Z</time>
      </trkpt>
      <trkpt lat="47.32357" lon="6.81854">
        <ele>473.11</ele>
        <time>2021-04-04T15:36:39Z</time>
      </trkpt>
      <trkpt lat="47.32388" lon="6.81904">
        <ele>476.47</ele>
        <time>2021-04-04T15:36:54Z</time>
      </trkpt>
      <trkpt lat="47.32422" lon="6.81955">
        <ele>479.35</ele>
        <time>2021-04-04T15:37:09Z</time>
      </trkpt>
      <trkpt lat="47.32452" lon="6.8201">
        <ele>482.72</ele>
        <time>2021-04-04T15:37:23Z</time>
      </trkpt>
      <trkpt lat="47.32488" lon="6.82069">
        <ele>486.08</ele>
        <time>2021-04-04T15:37:39Z</time>
      </trkpt>
      <trkpt lat="47.32514" lon="6.82125">
        <ele>489.45</ele>
        <time>2021-04-04T15:37:53Z</time>
      </trkpt>
      <trkpt lat="47.32532" lon="6.822">
        <ele>492.33</ele>
        <time>2021-04-04T15:38:09Z</time>
      </trkpt>
      <trkpt lat="47.32546" lon="6.82261">
        <ele>495.7</ele>
        <time>2021-04-04T15:38:22Z</time>
      </trkpt>
      <trkpt lat="47.32562" lon="6.82331">
        <ele>498.58</ele>
        <time>2021-04-04T15:38:37Z</time>
      </trkpt>
      <trkpt lat="47.3257" lon="6.8241">
        <ele>501.95</ele>
        <time>2021-04-04T15:38:53Z</time>
      </trkpt>
      <trkpt lat="47.32565" lon="6.82477">
        <ele>504.83</ele>
        <time>2021-04-04T15:39:06Z</time>
      </trkpt>
      <trkpt lat="47.32579" lon="6.8254">
        <ele>508.19</ele>
        <time>2021-04-04T15:39:21Z</time>
      </trkpt>
      <trkpt lat="47.32604" lon="6.82592">
        <ele>511.08</ele>
        <time>2021-04-04T15:39:36Z</time>
      </trkpt>
      <trkpt lat="47.32654" lon="6.82632">
        <ele>514.44</ele>
        <time>2021-04-04T15:39:53Z</time>
      </trkpt>
      <trkpt lat="47.32702" lon="6.82685">
        <ele>517.33</ele>
        <time>2021-04-04T15:40:11Z</time>
      </trkpt>
      <trkpt lat="47.32726" lon="6.82744">
        <ele>520.21</ele>
        <time>2021-04-04T15:40:25Z</time>
      </trkpt>
      <trkpt lat="47.32748" lon="6.82833">
        <ele>521.65</ele>
        <time>2021-04-04T15:40:42Z</time>
      </trkpt>
      <trkpt lat="47.32796" lon="6.82934">
        <ele>525.02</ele>
        <time>2021-04-04T15:41:03Z</time>
      </trkpt>
      <trkpt lat="47.32843" lon="6.83011">
        <ele>527.9</ele>
        <time>2021-04-04T15:41:21Z</time>
      </trkpt>
      <trkpt lat="47.32897" lon="6.83074">
        <ele>531.27</ele>
        <time>2021-04-04T15:41:38Z</time>
      </trkpt>
      <trkpt lat="47.32915" lon="6.83141">
        <ele>533.67</ele>
        <time>2021-04-04T15:41:51Z</time>
      </trkpt>
      <trkpt lat="47.32931" lon="6.83212">
        <ele>537.03</ele>
        <time>2021-04-04T15:42:05Z</time>
      </trkpt>
      <trkpt lat="47.32953" lon="6.83284">
        <ele>539.44</ele>
        <time>2021-04-04T15:42:21Z</time>
      </trkpt>
      <trkpt lat="47.32975" lon="6.83362">
        <ele>542.32</ele>
        <time>2021-04-04T15:42:37Z</time>
      </trkpt>
      <trkpt lat="47.32994" lon="6.83389">
        <ele>545.2</ele>
        <time>2021-04-04T15:42:49Z</time>
      </trkpt>
      <trkpt lat="47.33007" lon="6.83363">
        <ele>547.13</ele>
        <time>2021-04-04T15:43:00Z</time>
      </trkpt>
      <trkpt lat="47.32995" lon="6.83303">
        <ele>549.53</ele>
        <time>2021-04-04T15:43:15Z</time>
      </trkpt>
      <trkpt lat="47.3299" lon="6.83238">
        <ele>552.41</ele>
        <time>2021-04-04T15:43:27Z</time>
      </trkpt>
      <trkpt lat="47.32986" lon="6.83172">
        <ele>555.3</ele>
        <time>2021-04-04T15:43:43Z</time>
      </trkpt>
      <trkpt lat="47.32974" lon="6.8312">
        <ele>557.7</ele>
        <time>2021-04-04T15:43:57Z</time>
      </trkpt>
      <trkpt lat="47.3297" lon="6.83049">
        <ele>560.59</ele>
        <time>2021-04-04T15:44:12Z</time>
      </trkpt>
      <trkpt lat="47.32955" lon="6.82997">
        <ele>563.47</ele>
        <time>2021-04-04T15:44:25Z</time>
      </trkpt>
      <trkpt lat="47.32949" lon="6.82928">
        <ele>566.35</ele>
        <time>2021-04-04T15:44:40Z</time>
      </trkpt>
      <trkpt lat="47.32951" lon="6.82865">
        <ele>569.72</ele>
        <time>2021-04-04T15:44:55Z</time>
      </trkpt>
      <trkpt lat="47.32943" lon="6.82811">
        <ele>572.12</ele>
        <time>2021-04-04T15:45:08Z</time>
      </trkpt>
      <trkpt lat="47.32925" lon="6.82745">
        <ele>575.49</ele>
        <time>2021-04-04T15:45:25Z</time>
      </trkpt>
      <trkpt lat="47.32917" lon="6.8268">
        <ele>578.37</ele>
        <time>2021-04-04T15:45:40Z</time>
      </trkpt>
      <trkpt lat="47.32911" lon="6.82634">
        <ele>580.77</ele>
        <time>2021-04-04T15:45:53Z</time>
      </trkpt>
      <trkpt lat="47.32907" lon="6.82577">
        <ele>583.66</ele>
        <time>2021-04-04T15:46:07Z</time>
      </trkpt>
      <trkpt lat="47.32899" lon="6.82511">
        <ele>586.06</ele>
        <time>2021-04-04T15:46:21Z</time>
      </trkpt>
      <trkpt lat="47.32891" lon="6.82453">
        <ele>589.43</ele>
        <time>2021-04-04T15:46:36Z</time>
      </trkpt>
      <trkpt lat="47.32876" lon="6.82405">
        <ele>592.31</ele>
        <time>2021-04-04T15:46:50Z</time>
      </trkpt>
      <trkpt lat="47.32862" lon="6.82354">
        <ele>594.23</ele>
        <time>2021-04-04T15:47:02Z</time>
      </trkpt>
      <trkpt lat="47.32858" lon="6.82296">
        <ele>597.6</ele>
        <time>2021-04-04T15:47:15Z</time>
      </trkpt>
      <trkpt lat="47.32851" lon="6.82231">
        <ele>600.48</ele>
        <time>2021-04-04T15:47:29Z</time>
      </trkpt>
      <trkpt lat="47.32867" lon="6.82169">
        <ele>603.85</ele>
        <time>2021-04-04T15:47:44Z</time>
      </trkpt>
      <trkpt lat="47.32898" lon="6.82137">
        <ele>606.73</ele>
        <time>2021-04-04T15:47:57Z</time>
      </trkpt>
      <trkpt lat="47.32934" lon="6.82116">
        <ele>609.61</ele>
        <time>2021-04-04T15:48:11Z</time>
      </trkpt>
      <trkpt lat="47.32974" lon="6.82074">
        <ele>612.5</ele>
        <time>2021-04-04T15:48:26Z</time>
      </trkpt>
      <trkpt lat="47.33004" lon="6.82034">
        <ele>615.38</ele>
        <time>2021-04-04T15:48:40Z</time>
      </trkpt>
      <trkpt lat="47.33029" lon="6.81988">
        <ele>618.26</ele>
        <time>2021-04-04T15:48:55Z</time>
      </trkpt>
      <trkpt lat="47.33053" lon="6.81947">
        <ele>621.15</ele>
        <time>2021-04-04T15:49:08Z</time>
      </trkpt>
      <trkpt lat="47.3309" lon="6.81936">
        <ele>624.51</ele>
        <time>2021-04-04T15:49:21Z</time>
      </trkpt>
      <trkpt lat="47.33124" lon="6.81936">
        <ele>626.92</ele>
        <time>2021-04-04T15:49:36Z</time>
      </trkpt>
      <trkpt lat="47.33162" lon="6.81915">
        <ele>629.8</ele>
        <time>2021-04-04T15:49:51Z</time>
      </trkpt>
      <trkpt lat="47.33194" lon="6.81903">
        <ele>632.68</ele>
        <time>2021-04-04T15:50:03Z</time>
      </trkpt>
      <trkpt lat="47.33236" lon="6.81883">
        <ele>636.05</ele>
        <time>2021-04-04T15:50:18Z</time>
      </trkpt>
      <trkpt lat="47.33274" lon="6.81873">
        <ele>638.93</ele>
        <time>2021-04-04T15:50:31Z</time>
      </trkpt>
      <trkpt lat="47.33322" lon="6.81863">
        <ele>641.34</ele>
        <time>2021-04-04T15:50:47Z</time>
      </trkpt>
      <trkpt lat="47.33368" lon="6.81853">
        <ele>644.22</ele>
        <time>2021-04-04T15:51:02Z</time>
      </trkpt>
      <trkpt lat="47.33432" lon="6.81855">
        <ele>647.59</ele>
        <time>2021-04-04T15:51:22Z</time>
      </trkpt>
      <trkpt lat="47.33481" lon="6.81866">
        <ele>649.51</ele>
        <time>2021-04-04T15:51:36Z</time>
      </trkpt>
      <trkpt lat="47.33536" lon="6.81872">
        <ele>652.39</ele>
        <time>2021-04-04T15:51:52Z</time>
      </trkpt>
      <trkpt lat="47.3359" lon="6.8188">
        <ele>655.28</ele>
        <time>2021-04-04T15:52:08Z</time>
      </trkpt>
      <trkpt lat="47.33644" lon="6.81904">
        <ele>658.16</ele>
        <time>2021-04-04T15:52:23Z</time>
      </trkpt>
      <trkpt lat="47.33704" lon="6.81953">
        <ele>661.04</ele>
        <time>2021-04-04T15:52:43Z</time>
      </trkpt>
      <trkpt lat="47.33752" lon="6.82009">
        <ele>663.93</ele>
        <time>2021-04-04T15:53:01Z</time>
      </trkpt>
      <trkpt lat="47.33805" lon="6.82066">
        <ele>667.29</ele>
        <time>2021-04-04T15:53:21Z</time>
      </trkpt>
      <trkpt lat="47.33864" lon="6.82086">
        <ele>670.18</ele>
        <time>2021-04-04T15:53:39Z</time>
      </trkpt>
      <trkpt lat="47.33923" lon="6.82059">
        <ele>673.54</ele>
        <time>2021-04-04T15:53:57Z</time>
      </trkpt>
      <trkpt lat="47.3396" lon="6.82043">
        <ele>674.02</ele>
        <time>2021-04-04T15:54:07Z</time>
      </trkpt>
      <trkpt lat="47.33969" lon="6.82049">
        <ele>674.02</ele>
        <time>2021-04-04T15:54:09Z</time>
      </trkpt>
      <trkpt lat="47.3402" lon="6.82087">
        <ele>672.1</ele>
        <time>2021-04-04T15:54:19Z</time>
      </trkpt>
      <trkpt lat="47.34024" lon="6.82093">
        <ele>672.1</ele>
        <time>2021-04-04T15:54:20Z</time>
      </trkpt>
      <trkpt lat="47.34083" lon="6.82163">
        <ele>673.06</ele>
        <time>2021-04-04T15:54:35Z</time>
      </trkpt>
      <trkpt lat="47.34154" lon="6.82236">
        <ele>674.02</ele>
        <time>2021-04-04T15:54:53Z</time>
      </trkpt>
      <trkpt lat="47.34219" lon="6.82323">
        <ele>674.98</ele>
        <time>2021-04-04T15:55:11Z</time>
      </trkpt>
      <trkpt lat="47.34272" lon="6.82417">
        <ele>677.87</ele>
        <time>2021-04-04T15:55:30Z</time>
      </trkpt>
      <trkpt lat="47.3428" lon="6.8243">
        <ele>677.87</ele>
        <time>2021-04-04T15:55:33Z</time>
      </trkpt>
      <trkpt lat="47.34301" lon="6.82457">
        <ele>677.87</ele>
        <time>2021-04-04T15:55:40Z</time>
      </trkpt>
      <trkpt lat="47.34372" lon="6.82519">
        <ele>678.83</ele>
        <time>2021-04-04T15:55:58Z</time>
      </trkpt>
      <trkpt lat="47.34411" lon="6.82556">
        <ele>679.31</ele>
        <time>2021-04-04T15:56:08Z</time>
      </trkpt>
      <trkpt lat="47.34492" lon="6.82602">
        <ele>682.67</ele>
        <time>2021-04-04T15:56:28Z</time>
      </trkpt>
      <trkpt lat="47.34528" lon="6.82628">
        <ele>685.56</ele>
        <time>2021-04-04T15:56:39Z</time>
      </trkpt>
      <trkpt lat="47.34582" lon="6.82683">
        <ele>687.96</ele>
        <time>2021-04-04T15:56:56Z</time>
      </trkpt>
      <trkpt lat="47.34626" lon="6.82734">
        <ele>690.36</ele>
        <time>2021-04-04T15:57:11Z</time>
      </trkpt>
      <trkpt lat="47.34658" lon="6.82763">
        <ele>691.81</ele>
        <time>2021-04-04T15:57:22Z</time>
      </trkpt>
      <trkpt lat="47.34658" lon="6.82759">
        <ele>691.33</ele>
        <time>2021-04-04T15:57:23Z</time>
      </trkpt>
      <trkpt lat="47.34658" lon="6.82755">
        <ele>691.33</ele>
        <time>2021-04-04T15:57:24Z</time>
      </trkpt>
      <trkpt lat="47.34658" lon="6.82749">
        <ele>691.81</ele>
        <time>2021-04-04T15:57:25Z</time>
      </trkpt>
      <trkpt lat="47.34659" lon="6.82744">
        <ele>691.33</ele>
        <time>2021-04-04T15:57:26Z</time>
      </trkpt>
      <trkpt lat="47.34662" lon="6.82722">
        <ele>691.33</ele>
        <time>2021-04-04T15:57:30Z</time>
      </trkpt>
      <trkpt lat="47.34664" lon="6.82716">
        <ele>691.33</ele>
        <time>2021-04-04T15:57:31Z</time>
      </trkpt>
      <trkpt lat="47.34666" lon="6.82711">
        <ele>691.33</ele>
        <time>2021-04-04T15:57:32Z</time>
      </trkpt>
      <trkpt lat="47.34669" lon="6.82705">
        <ele>691.33</ele>
        <time>2021-04-04T15:57:33Z</time>
      </trkpt>
      <trkpt lat="47.34672" lon="6.827">
        <ele>691.81</ele>
        <time>2021-04-04T15:57:34Z</time>
      </trkpt>
      <trkpt lat="47.34675" lon="6.82697">
        <ele>691.81</ele>
        <time>2021-04-04T15:57:35Z</time>
      </trkpt>
      <trkpt lat="47.3468" lon="6.82696">
        <ele>691.81</ele>
        <time>2021-04-04T15:57:36Z</time>
      </trkpt>
      <trkpt lat="47.34686" lon="6.82697">
        <ele>691.81</ele>
        <time>2021-04-04T15:57:37Z</time>
      </trkpt>
      <trkpt lat="47.34691" lon="6.82699">
        <ele>692.29</ele>
        <time>2021-04-04T15:57:38Z</time>
      </trkpt>
      <trkpt lat="47.34704" lon="6.82704">
        <ele>692.29</ele>
        <time>2021-04-04T15:57:41Z</time>
      </trkpt>
      <trkpt lat="47.34768" lon="6.82739">
        <ele>695.65</ele>
        <time>2021-04-04T15:57:57Z</time>
      </trkpt>
      <trkpt lat="47.34819" lon="6.82767">
        <ele>698.53</ele>
        <time>2021-04-04T15:58:11Z</time>
      </trkpt>
      <trkpt lat="47.34867" lon="6.82795">
        <ele>700.94</ele>
        <time>2021-04-04T15:58:25Z</time>
      </trkpt>
      <trkpt lat="47.34908" lon="6.8282">
        <ele>704.3</ele>
        <time>2021-04-04T15:58:39Z</time>
      </trkpt>
      <trkpt lat="47.34944" lon="6.82841">
        <ele>707.19</ele>
        <time>2021-04-04T15:58:53Z</time>
      </trkpt>
      <trkpt lat="47.34985" lon="6.82864">
        <ele>710.07</ele>
        <time>2021-04-04T15:59:09Z</time>
      </trkpt>
      <trkpt lat="47.35028" lon="6.82891">
        <ele>713.44</ele>
        <time>2021-04-04T15:59:25Z</time>
      </trkpt>
      <trkpt lat="47.35069" lon="6.82908">
        <ele>716.32</ele>
        <time>2021-04-04T15:59:41Z</time>
      </trkpt>
      <trkpt lat="47.35106" lon="6.82909">
        <ele>719.2</ele>
        <time>2021-04-04T15:59:56Z</time>
      </trkpt>
      <trkpt lat="47.35141" lon="6.82902">
        <ele>722.09</ele>
        <time>2021-04-04T16:00:12Z</time>
      </trkpt>
      <trkpt lat="47.35179" lon="6.82887">
        <ele>725.45</ele>
        <time>2021-04-04T16:00:27Z</time>
      </trkpt>
      <trkpt lat="47.35224" lon="6.82868">
        <ele>728.34</ele>
        <time>2021-04-04T16:00:43Z</time>
      </trkpt>
      <trkpt lat="47.35272" lon="6.82871">
        <ele>731.22</ele>
        <time>2021-04-04T16:00:58Z</time>
      </trkpt>
      <trkpt lat="47.35313" lon="6.82885">
        <ele>734.58</ele>
        <time>2021-04-04T16:01:12Z</time>
      </trkpt>
      <trkpt lat="47.35346" lon="6.82916">
        <ele>736.99</ele>
        <time>2021-04-04T16:01:26Z</time>
      </trkpt>
      <trkpt lat="47.35347" lon="6.82923">
        <ele>737.47</ele>
        <time>2021-04-04T16:01:28Z</time>
      </trkpt>
      <trkpt lat="47.35345" lon="6.82925">
        <ele>737.47</ele>
        <time>2021-04-04T16:01:29Z</time>
      </trkpt>
      <trkpt lat="47.35343" lon="6.82927">
        <ele>737.95</ele>
        <time>2021-04-04T16:01:30Z</time>
      </trkpt>
      <trkpt lat="47.35341" lon="6.82929">
        <ele>737.95</ele>
        <time>2021-04-04T16:01:31Z</time>
      </trkpt>
      <trkpt lat="47.35338" lon="6.82931">
        <ele>737.95</ele>
        <time>2021-04-04T16:01:32Z</time>
      </trkpt>
      <trkpt lat="47.35303" lon="6.82944">
        <ele>740.35</ele>
        <time>2021-04-04T16:01:46Z</time>
      </trkpt>
      <trkpt lat="47.35253" lon="6.82952">
        <ele>742.76</ele>
        <time>2021-04-04T16:02:03Z</time>
      </trkpt>
      <trkpt lat="47.35249" lon="6.82968">
        <ele>743.72</ele>
        <time>2021-04-04T16:02:09Z</time>
      </trkpt>
      <trkpt lat="47.35251" lon="6.8297">
        <ele>743.72</ele>
        <time>2021-04-04T16:02:10Z</time>
      </trkpt>
      <trkpt lat="47.35254" lon="6.82971">
        <ele>744.2</ele>
        <time>2021-04-04T16:02:11Z</time>
      </trkpt>
      <trkpt lat="47.35256" lon="6.82973">
        <ele>744.2</ele>
        <time>2021-04-04T16:02:12Z</time>
      </trkpt>
      <trkpt lat="47.35259" lon="6.82974">
        <ele>744.68</ele>
        <time>2021-04-04T16:02:13Z</time>
      </trkpt>
      <trkpt lat="47.35261" lon="6.82975">
        <ele>744.68</ele>
        <time>2021-04-04T16:02:14Z</time>
      </trkpt>
      <trkpt lat="47.35263" lon="6.82976">
        <ele>744.68</ele>
        <time>2021-04-04T16:02:15Z</time>
      </trkpt>
      <trkpt lat="47.35266" lon="6.82977">
        <ele>745.16</ele>
        <time>2021-04-04T16:02:16Z</time>
      </trkpt>
      <trkpt lat="47.35305" lon="6.82979">
        <ele>748.04</ele>
        <time>2021-04-04T16:02:29Z</time>
      </trkpt>
      <trkpt lat="47.35352" lon="6.82987">
        <ele>750.45</ele>
        <time>2021-04-04T16:02:44Z</time>
      </trkpt>
      <trkpt lat="47.3539" lon="6.82995">
        <ele>753.33</ele>
        <time>2021-04-04T16:02:58Z</time>
      </trkpt>
      <trkpt lat="47.3543" lon="6.83008">
        <ele>756.21</ele>
        <time>2021-04-04T16:03:13Z</time>
      </trkpt>
      <trkpt lat="47.35467" lon="6.83051">
        <ele>759.58</ele>
        <time>2021-04-04T16:03:27Z</time>
      </trkpt>
      <trkpt lat="47.35507" lon="6.83095">
        <ele>761.98</ele>
        <time>2021-04-04T16:03:43Z</time>
      </trkpt>
      <trkpt lat="47.3554" lon="6.83089">
        <ele>763.9</ele>
        <time>2021-04-04T16:03:55Z</time>
      </trkpt>
      <trkpt lat="47.35562" lon="6.83027">
        <ele>766.31</ele>
        <time>2021-04-04T16:04:09Z</time>
      </trkpt>
      <trkpt lat="47.35575" lon="6.82968">
        <ele>769.19</ele>
        <time>2021-04-04T16:04:23Z</time>
      </trkpt>
      <trkpt lat="47.35588" lon="6.82912">
        <ele>772.56</ele>
        <time>2021-04-04T16:04:36Z</time>
      </trkpt>
      <trkpt lat="47.35601" lon="6.82845">
        <ele>775.44</ele>
        <time>2021-04-04T16:04:51Z</time>
      </trkpt>
      <trkpt lat="47.3561" lon="6.82772">
        <ele>777.84</ele>
        <time>2021-04-04T16:05:07Z</time>
      </trkpt>
      <trkpt lat="47.3562" lon="6.82694">
        <ele>780.25</ele>
        <time>2021-04-04T16:05:22Z</time>
      </trkpt>
      <trkpt lat="47.35633" lon="6.82625">
        <ele>783.13</ele>
        <time>2021-04-04T16:05:36Z</time>
      </trkpt>
      <trkpt lat="47.35655" lon="6.82556">
        <ele>786.02</ele>
        <time>2021-04-04T16:05:51Z</time>
      </trkpt>
      <trkpt lat="47.35672" lon="6.82483">
        <ele>787.46</ele>
        <time>2021-04-04T16:06:05Z</time>
      </trkpt>
      <trkpt lat="47.35698" lon="6.82374">
        <ele>786.98</ele>
        <time>2021-04-04T16:06:20Z</time>
      </trkpt>
      <trkpt lat="47.35727" lon="6.8229">
        <ele>787.94</ele>
        <time>2021-04-04T16:06:33Z</time>
      </trkpt>
      <trkpt lat="47.35759" lon="6.82191">
        <ele>789.38</ele>
        <time>2021-04-04T16:06:48Z</time>
      </trkpt>
      <trkpt lat="47.35794" lon="6.82079">
        <ele>791.3</ele>
        <time>2021-04-04T16:07:04Z</time>
      </trkpt>
      <trkpt lat="47.3581" lon="6.81983">
        <ele>792.74</ele>
        <time>2021-04-04T16:07:17Z</time>
      </trkpt>
      <trkpt lat="47.35813" lon="6.81906">
        <ele>793.22</ele>
        <time>2021-04-04T16:07:27Z</time>
      </trkpt>
      <trkpt lat="47.35828" lon="6.81851">
        <ele>793.71</ele>
        <time>2021-04-04T16:07:35Z</time>
      </trkpt>
      <trkpt lat="47.35831" lon="6.81845">
        <ele>794.19</ele>
        <time>2021-04-04T16:07:36Z</time>
      </trkpt>
      <trkpt lat="47.35838" lon="6.81835">
        <ele>794.19</ele>
        <time>2021-04-04T16:07:38Z</time>
      </trkpt>
      <trkpt lat="47.35841" lon="6.8183">
        <ele>794.19</ele>
        <time>2021-04-04T16:07:39Z</time>
      </trkpt>
      <trkpt lat="47.35845" lon="6.81825">
        <ele>793.71</ele>
        <time>2021-04-04T16:07:40Z</time>
      </trkpt>
      <trkpt lat="47.3585" lon="6.8182">
        <ele>794.19</ele>
        <time>2021-04-04T16:07:41Z</time>
      </trkpt>
      <trkpt lat="47.35855" lon="6.81815">
        <ele>793.71</ele>
        <time>2021-04-04T16:07:42Z</time>
      </trkpt>
      <trkpt lat="47.35942" lon="6.81769">
        <ele>792.26</ele>
        <time>2021-04-04T16:07:55Z</time>
      </trkpt>
      <trkpt lat="47.36014" lon="6.81744">
        <ele>790.82</ele>
        <time>2021-04-04T16:08:05Z</time>
      </trkpt>
      <trkpt lat="47.36021" lon="6.81745">
        <ele>790.82</ele>
        <time>2021-04-04T16:08:06Z</time>
      </trkpt>
      <trkpt lat="47.36027" lon="6.8175">
        <ele>791.3</ele>
        <time>2021-04-04T16:08:07Z</time>
      </trkpt>
      <trkpt lat="47.36032" lon="6.81758">
        <ele>791.3</ele>
        <time>2021-04-04T16:08:08Z</time>
      </trkpt>
      <trkpt lat="47.36036" lon="6.81766">
        <ele>791.3</ele>
        <time>2021-04-04T16:08:09Z</time>
      </trkpt>
      <trkpt lat="47.3604" lon="6.81773">
        <ele>791.3</ele>
        <time>2021-04-04T16:08:10Z</time>
      </trkpt>
      <trkpt lat="47.36104" lon="6.81893">
        <ele>793.22</ele>
        <time>2021-04-04T16:08:26Z</time>
      </trkpt>
      <trkpt lat="47.36163" lon="6.81983">
        <ele>795.15</ele>
        <time>2021-04-04T16:08:39Z</time>
      </trkpt>
      <trkpt lat="47.36172" lon="6.82003">
        <ele>795.63</ele>
        <time>2021-04-04T16:08:47Z</time>
      </trkpt>
      <trkpt lat="47.36169" lon="6.82">
        <ele>795.63</ele>
        <time>2021-04-04T16:09:11Z</time>
      </trkpt>
      <trkpt lat="47.36174" lon="6.81997">
        <ele>795.63</ele>
        <time>2021-04-04T16:09:48Z</time>
      </trkpt>
      <trkpt lat="47.36174" lon="6.82003">
        <ele>795.63</ele>
        <time>2021-04-04T16:10:23Z</time>
      </trkpt>
      <trkpt lat="47.36167" lon="6.81991">
        <ele>795.63</ele>
        <time>2021-04-04T16:10:56Z</time>
      </trkpt>
      <trkpt lat="47.36168" lon="6.82001">
        <ele>796.11</ele>
        <time>2021-04-04T16:11:38Z</time>
      </trkpt>
      <trkpt lat="47.36165" lon="6.82006">
        <ele>796.11</ele>
        <time>2021-04-04T16:12:02Z</time>
      </trkpt>
      <trkpt lat="47.36168" lon="6.82005">
        <ele>796.11</ele>
        <time>2021-04-04T16:12:34Z</time>
      </trkpt>
      <trkpt lat="47.36175" lon="6.82003">
        <ele>796.11</ele>
        <time>2021-04-04T16:12:58Z</time>
      </trkpt>
      <trkpt lat="47.36176" lon="6.81999">
        <ele>796.11</ele>
        <time>2021-04-04T16:13:10Z</time>
      </trkpt>
      <trkpt lat="47.36176" lon="6.81999">
        <ele>796.11</ele>
        <time>2021-04-04T16:13:30Z</time>
      </trkpt>
      <trkpt lat="47.36177" lon="6.81999">
        <ele>796.11</ele>
        <time>2021-04-04T16:13:31Z</time>
      </trkpt>
      <trkpt lat="47.36179" lon="6.81999">
        <ele>796.11</ele>
        <time>2021-04-04T16:13:32Z</time>
      </trkpt>
      <trkpt lat="47.36181" lon="6.82001">
        <ele>796.59</ele>
        <time>2021-04-04T16:13:33Z</time>
      </trkpt>
      <trkpt lat="47.36183" lon="6.82004">
        <ele>796.59</ele>
        <time>2021-04-04T16:13:34Z</time>
      </trkpt>
      <trkpt lat="47.36185" lon="6.82007">
        <ele>797.07</ele>
        <time>2021-04-04T16:13:35Z</time>
      </trkpt>
      <trkpt lat="47.36187" lon="6.8201">
        <ele>797.07</ele>
        <time>2021-04-04T16:13:36Z</time>
      </trkpt>
      <trkpt lat="47.36215" lon="6.8203">
        <ele>799.95</ele>
        <time>2021-04-04T16:13:45Z</time>
      </trkpt>
      <trkpt lat="47.3622" lon="6.82034">
        <ele>799.95</ele>
        <time>2021-04-04T16:13:46Z</time>
      </trkpt>
      <trkpt lat="47.36223" lon="6.82039">
        <ele>800.44</ele>
        <time>2021-04-04T16:13:47Z</time>
      </trkpt>
      <trkpt lat="47.36227" lon="6.82043">
        <ele>800.44</ele>
        <time>2021-04-04T16:13:48Z</time>
      </trkpt>
      <trkpt lat="47.3623" lon="6.82049">
        <ele>800.92</ele>
        <time>2021-04-04T16:13:49Z</time>
      </trkpt>
      <trkpt lat="47.36233" lon="6.82054">
        <ele>800.92</ele>
        <time>2021-04-04T16:13:50Z</time>
      </trkpt>
      <trkpt lat="47.36234" lon="6.8206">
        <ele>801.4</ele>
        <time>2021-04-04T16:13:51Z</time>
      </trkpt>
      <trkpt lat="47.36235" lon="6.82065">
        <ele>801.4</ele>
        <time>2021-04-04T16:13:52Z</time>
      </trkpt>
      <trkpt lat="47.3624" lon="6.82128">
        <ele>801.88</ele>
        <time>2021-04-04T16:14:04Z</time>
      </trkpt>
      <trkpt lat="47.36241" lon="6.82144">
        <ele>801.4</ele>
        <time>2021-04-04T16:14:06Z</time>
      </trkpt>
      <trkpt lat="47.36241" lon="6.82153">
        <ele>801.4</ele>
        <time>2021-04-04T16:14:07Z</time>
      </trkpt>
      <trkpt lat="47.36241" lon="6.82179">
        <ele>800.92</ele>
        <time>2021-04-04T16:14:10Z</time>
      </trkpt>
      <trkpt lat="47.36242" lon="6.82187">
        <ele>800.92</ele>
        <time>2021-04-04T16:14:11Z</time>
      </trkpt>
      <trkpt lat="47.36245" lon="6.82195">
        <ele>800.44</ele>
        <time>2021-04-04T16:14:12Z</time>
      </trkpt>
      <trkpt lat="47.3625" lon="6.822">
        <ele>799.47</ele>
        <time>2021-04-04T16:14:13Z</time>
      </trkpt>
      <trkpt lat="47.36257" lon="6.82199">
        <ele>798.99</ele>
        <time>2021-04-04T16:14:14Z</time>
      </trkpt>
      <trkpt lat="47.36264" lon="6.82193">
        <ele>798.51</ele>
        <time>2021-04-04T16:14:15Z</time>
      </trkpt>
      <trkpt lat="47.36271" lon="6.82184">
        <ele>797.55</ele>
        <time>2021-04-04T16:14:16Z</time>
      </trkpt>
      <trkpt lat="47.36276" lon="6.82173">
        <ele>797.07</ele>
        <time>2021-04-04T16:14:17Z</time>
      </trkpt>
      <trkpt lat="47.3628" lon="6.8216">
        <ele>796.11</ele>
        <time>2021-04-04T16:14:18Z</time>
      </trkpt>
      <trkpt lat="47.36284" lon="6.82146">
        <ele>796.11</ele>
        <time>2021-04-04T16:14:19Z</time>
      </trkpt>
      <trkpt lat="47.363" lon="6.82086">
        <ele>792.26</ele>
        <time>2021-04-04T16:14:23Z</time>
      </trkpt>
      <trkpt lat="47.36314" lon="6.82019">
        <ele>788.42</ele>
        <time>2021-04-04T16:14:27Z</time>
      </trkpt>
      <trkpt lat="47.36321" lon="6.8195">
        <ele>784.57</ele>
        <time>2021-04-04T16:14:31Z</time>
      </trkpt>
      <trkpt lat="47.36328" lon="6.81918">
        <ele>783.13</ele>
        <time>2021-04-04T16:14:33Z</time>
      </trkpt>
      <trkpt lat="47.36333" lon="6.81902">
        <ele>781.69</ele>
        <time>2021-04-04T16:14:34Z</time>
      </trkpt>
      <trkpt lat="47.36349" lon="6.81859">
        <ele>778.81</ele>
        <time>2021-04-04T16:14:37Z</time>
      </trkpt>
      <trkpt lat="47.36374" lon="6.818">
        <ele>774.96</ele>
        <time>2021-04-04T16:14:41Z</time>
      </trkpt>
      <trkpt lat="47.36397" lon="6.81739">
        <ele>771.6</ele>
        <time>2021-04-04T16:14:45Z</time>
      </trkpt>
      <trkpt lat="47.36402" lon="6.81723">
        <ele>771.6</ele>
        <time>2021-04-04T16:14:46Z</time>
      </trkpt>
      <trkpt lat="47.36422" lon="6.81656">
        <ele>767.27</ele>
        <time>2021-04-04T16:14:50Z</time>
      </trkpt>
      <trkpt lat="47.36444" lon="6.81588">
        <ele>763.9</ele>
        <time>2021-04-04T16:14:54Z</time>
      </trkpt>
      <trkpt lat="47.36463" lon="6.81539">
        <ele>760.54</ele>
        <time>2021-04-04T16:14:57Z</time>
      </trkpt>
      <trkpt lat="47.36491" lon="6.81473">
        <ele>756.69</ele>
        <time>2021-04-04T16:15:01Z</time>
      </trkpt>
      <trkpt lat="47.36508" lon="6.81426">
        <ele>753.33</ele>
        <time>2021-04-04T16:15:04Z</time>
      </trkpt>
      <trkpt lat="47.3653" lon="6.81359">
        <ele>749.97</ele>
        <time>2021-04-04T16:15:08Z</time>
      </trkpt>
      <trkpt lat="47.36555" lon="6.81291">
        <ele>745.64</ele>
        <time>2021-04-04T16:15:12Z</time>
      </trkpt>
      <trkpt lat="47.36575" lon="6.8124">
        <ele>742.76</ele>
        <time>2021-04-04T16:15:15Z</time>
      </trkpt>
      <trkpt lat="47.36582" lon="6.81223">
        <ele>742.28</ele>
        <time>2021-04-04T16:15:16Z</time>
      </trkpt>
      <trkpt lat="47.36587" lon="6.81205">
        <ele>740.83</ele>
        <time>2021-04-04T16:15:17Z</time>
      </trkpt>
      <trkpt lat="47.36592" lon="6.81186">
        <ele>740.35</ele>
        <time>2021-04-04T16:15:18Z</time>
      </trkpt>
      <trkpt lat="47.36604" lon="6.81128">
        <ele>736.51</ele>
        <time>2021-04-04T16:15:21Z</time>
      </trkpt>
      <trkpt lat="47.36616" lon="6.81068">
        <ele>733.62</ele>
        <time>2021-04-04T16:15:24Z</time>
      </trkpt>
      <trkpt lat="47.36629" lon="6.8101">
        <ele>730.26</ele>
        <time>2021-04-04T16:15:27Z</time>
      </trkpt>
      <trkpt lat="47.36649" lon="6.80936">
        <ele>726.41</ele>
        <time>2021-04-04T16:15:31Z</time>
      </trkpt>
      <trkpt lat="47.36661" lon="6.80892">
        <ele>722.57</ele>
        <time>2021-04-04T16:15:34Z</time>
      </trkpt>
      <trkpt lat="47.36665" lon="6.80883">
        <ele>721.61</ele>
        <time>2021-04-04T16:15:35Z</time>
      </trkpt>
      <trkpt lat="47.3667" lon="6.80879">
        <ele>720.65</ele>
        <time>2021-04-04T16:15:36Z</time>
      </trkpt>
      <trkpt lat="47.36676" lon="6.80881">
        <ele>720.16</ele>
        <time>2021-04-04T16:15:37Z</time>
      </trkpt>
      <trkpt lat="47.36682" lon="6.80888">
        <ele>719.2</ele>
        <time>2021-04-04T16:15:38Z</time>
      </trkpt>
      <trkpt lat="47.36686" lon="6.80901">
        <ele>718.24</ele>
        <time>2021-04-04T16:15:39Z</time>
      </trkpt>
      <trkpt lat="47.36689" lon="6.80914">
        <ele>718.24</ele>
        <time>2021-04-04T16:15:40Z</time>
      </trkpt>
      <trkpt lat="47.3669" lon="6.80928">
        <ele>717.76</ele>
        <time>2021-04-04T16:15:41Z</time>
      </trkpt>
      <trkpt lat="47.36697" lon="6.81014">
        <ele>714.4</ele>
        <time>2021-04-04T16:15:47Z</time>
      </trkpt>
      <trkpt lat="47.36712" lon="6.81094">
        <ele>711.03</ele>
        <time>2021-04-04T16:15:52Z</time>
      </trkpt>
      <trkpt lat="47.36726" lon="6.8116">
        <ele>707.67</ele>
        <time>2021-04-04T16:15:56Z</time>
      </trkpt>
      <trkpt lat="47.36743" lon="6.81229">
        <ele>703.82</ele>
        <time>2021-04-04T16:16:00Z</time>
      </trkpt>
      <trkpt lat="47.36759" lon="6.81302">
        <ele>700.46</ele>
        <time>2021-04-04T16:16:04Z</time>
      </trkpt>
      <trkpt lat="47.36769" lon="6.81359">
        <ele>697.09</ele>
        <time>2021-04-04T16:16:07Z</time>
      </trkpt>
      <trkpt lat="47.36785" lon="6.81436">
        <ele>692.77</ele>
        <time>2021-04-04T16:16:11Z</time>
      </trkpt>
      <trkpt lat="47.36803" lon="6.81513">
        <ele>688.44</ele>
        <time>2021-04-04T16:16:15Z</time>
      </trkpt>
      <trkpt lat="47.36816" lon="6.8157">
        <ele>685.56</ele>
        <time>2021-04-04T16:16:18Z</time>
      </trkpt>
      <trkpt lat="47.36829" lon="6.81624">
        <ele>681.71</ele>
        <time>2021-04-04T16:16:21Z</time>
      </trkpt>
      <trkpt lat="47.36844" lon="6.81693">
        <ele>677.87</ele>
        <time>2021-04-04T16:16:25Z</time>
      </trkpt>
      <trkpt lat="47.36846" lon="6.81711">
        <ele>676.91</ele>
        <time>2021-04-04T16:16:26Z</time>
      </trkpt>
      <trkpt lat="47.36847" lon="6.8173">
        <ele>676.42</ele>
        <time>2021-04-04T16:16:27Z</time>
      </trkpt>
      <trkpt lat="47.36848" lon="6.81749">
        <ele>674.98</ele>
        <time>2021-04-04T16:16:28Z</time>
      </trkpt>
      <trkpt lat="47.36847" lon="6.81768">
        <ele>674.5</ele>
        <time>2021-04-04T16:16:29Z</time>
      </trkpt>
      <trkpt lat="47.36845" lon="6.81845">
        <ele>671.62</ele>
        <time>2021-04-04T16:16:33Z</time>
      </trkpt>
      <trkpt lat="47.36848" lon="6.81902">
        <ele>667.77</ele>
        <time>2021-04-04T16:16:36Z</time>
      </trkpt>
      <trkpt lat="47.36855" lon="6.8194">
        <ele>665.85</ele>
        <time>2021-04-04T16:16:38Z</time>
      </trkpt>
      <trkpt lat="47.36868" lon="6.81997">
        <ele>662.49</ele>
        <time>2021-04-04T16:16:41Z</time>
      </trkpt>
      <trkpt lat="47.36888" lon="6.82074">
        <ele>658.64</ele>
        <time>2021-04-04T16:16:45Z</time>
      </trkpt>
      <trkpt lat="47.36904" lon="6.82131">
        <ele>655.28</ele>
        <time>2021-04-04T16:16:48Z</time>
      </trkpt>
      <trkpt lat="47.36914" lon="6.8217">
        <ele>652.87</ele>
        <time>2021-04-04T16:16:50Z</time>
      </trkpt>
      <trkpt lat="47.36916" lon="6.82189">
        <ele>651.43</ele>
        <time>2021-04-04T16:16:51Z</time>
      </trkpt>
      <trkpt lat="47.36916" lon="6.82208">
        <ele>650.47</ele>
        <time>2021-04-04T16:16:52Z</time>
      </trkpt>
      <trkpt lat="47.36914" lon="6.82226">
        <ele>649.03</ele>
        <time>2021-04-04T16:16:53Z</time>
      </trkpt>
      <trkpt lat="47.36912" lon="6.82243">
        <ele>647.59</ele>
        <time>2021-04-04T16:16:54Z</time>
      </trkpt>
      <trkpt lat="47.36912" lon="6.8226">
        <ele>646.62</ele>
        <time>2021-04-04T16:16:55Z</time>
      </trkpt>
      <trkpt lat="47.36915" lon="6.82277">
        <ele>645.66</ele>
        <time>2021-04-04T16:16:56Z</time>
      </trkpt>
      <trkpt lat="47.36919" lon="6.82293">
        <ele>644.7</ele>
        <time>2021-04-04T16:16:57Z</time>
      </trkpt>
      <trkpt lat="47.36926" lon="6.82308">
        <ele>643.74</ele>
        <time>2021-04-04T16:16:58Z</time>
      </trkpt>
      <trkpt lat="47.36934" lon="6.82321">
        <ele>643.26</ele>
        <time>2021-04-04T16:16:59Z</time>
      </trkpt>
      <trkpt lat="47.36943" lon="6.82334">
        <ele>641.82</ele>
        <time>2021-04-04T16:17:00Z</time>
      </trkpt>
      <trkpt lat="47.36981" lon="6.82389">
        <ele>638.45</ele>
        <time>2021-04-04T16:17:04Z</time>
      </trkpt>
      <trkpt lat="47.36989" lon="6.82405">
        <ele>637.49</ele>
        <time>2021-04-04T16:17:05Z</time>
      </trkpt>
      <trkpt lat="47.37017" lon="6.82472">
        <ele>633.65</ele>
        <time>2021-04-04T16:17:09Z</time>
      </trkpt>
      <trkpt lat="47.37046" lon="6.82538">
        <ele>629.8</ele>
        <time>2021-04-04T16:17:13Z</time>
      </trkpt>
      <trkpt lat="47.37069" lon="6.82588">
        <ele>626.44</ele>
        <time>2021-04-04T16:17:16Z</time>
      </trkpt>
      <trkpt lat="47.3709" lon="6.8264">
        <ele>623.55</ele>
        <time>2021-04-04T16:17:19Z</time>
      </trkpt>
      <trkpt lat="47.37114" lon="6.82694">
        <ele>619.71</ele>
        <time>2021-04-04T16:17:22Z</time>
      </trkpt>
      <trkpt lat="47.37149" lon="6.82764">
        <ele>615.86</ele>
        <time>2021-04-04T16:17:26Z</time>
      </trkpt>
      <trkpt lat="47.3717" lon="6.8282">
        <ele>612.02</ele>
        <time>2021-04-04T16:17:29Z</time>
      </trkpt>
      <trkpt lat="47.3719" lon="6.82877">
        <ele>608.65</ele>
        <time>2021-04-04T16:17:32Z</time>
      </trkpt>
      <trkpt lat="47.37199" lon="6.82895">
        <ele>607.69</ele>
        <time>2021-04-04T16:17:33Z</time>
      </trkpt>
      <trkpt lat="47.37229" lon="6.82943">
        <ele>604.33</ele>
        <time>2021-04-04T16:17:36Z</time>
      </trkpt>
      <trkpt lat="47.37253" lon="6.82998">
        <ele>600.96</ele>
        <time>2021-04-04T16:17:39Z</time>
      </trkpt>
      <trkpt lat="47.37273" lon="6.83055">
        <ele>597.12</ele>
        <time>2021-04-04T16:17:42Z</time>
      </trkpt>
      <trkpt lat="47.37281" lon="6.83073">
        <ele>596.15</ele>
        <time>2021-04-04T16:17:43Z</time>
      </trkpt>
      <trkpt lat="47.3729" lon="6.83089">
        <ele>595.19</ele>
        <time>2021-04-04T16:17:44Z</time>
      </trkpt>
      <trkpt lat="47.37321" lon="6.83136">
        <ele>591.35</ele>
        <time>2021-04-04T16:17:47Z</time>
      </trkpt>
      <trkpt lat="47.3735" lon="6.83184">
        <ele>588.46</ele>
        <time>2021-04-04T16:17:50Z</time>
      </trkpt>
      <trkpt lat="47.37358" lon="6.83201">
        <ele>587.5</ele>
        <time>2021-04-04T16:17:51Z</time>
      </trkpt>
      <trkpt lat="47.37362" lon="6.8322">
        <ele>586.54</ele>
        <time>2021-04-04T16:17:52Z</time>
      </trkpt>
      <trkpt lat="47.37364" lon="6.83239">
        <ele>584.62</ele>
        <time>2021-04-04T16:17:53Z</time>
      </trkpt>
      <trkpt lat="47.37364" lon="6.83259">
        <ele>583.66</ele>
        <time>2021-04-04T16:17:54Z</time>
      </trkpt>
      <trkpt lat="47.37362" lon="6.83278">
        <ele>582.7</ele>
        <time>2021-04-04T16:17:55Z</time>
      </trkpt>
      <trkpt lat="47.37359" lon="6.83298">
        <ele>581.73</ele>
        <time>2021-04-04T16:17:56Z</time>
      </trkpt>
      <trkpt lat="47.37352" lon="6.83356">
        <ele>578.37</ele>
        <time>2021-04-04T16:17:59Z</time>
      </trkpt>
      <trkpt lat="47.37351" lon="6.83446">
        <ele>575.97</ele>
        <time>2021-04-04T16:18:04Z</time>
      </trkpt>
      <trkpt lat="47.37355" lon="6.83462">
        <ele>575.49</ele>
        <time>2021-04-04T16:18:05Z</time>
      </trkpt>
      <trkpt lat="47.37362" lon="6.83476">
        <ele>575.01</ele>
        <time>2021-04-04T16:18:06Z</time>
      </trkpt>
      <trkpt lat="47.3737" lon="6.83489">
        <ele>575.49</ele>
        <time>2021-04-04T16:18:07Z</time>
      </trkpt>
      <trkpt lat="47.37379" lon="6.83501">
        <ele>575.49</ele>
        <time>2021-04-04T16:18:08Z</time>
      </trkpt>
      <trkpt lat="47.37386" lon="6.83513">
        <ele>575.01</ele>
        <time>2021-04-04T16:18:09Z</time>
      </trkpt>
      <trkpt lat="47.37392" lon="6.83528">
        <ele>575.01</ele>
        <time>2021-04-04T16:18:10Z</time>
      </trkpt>
      <trkpt lat="47.37396" lon="6.83542">
        <ele>574.53</ele>
        <time>2021-04-04T16:18:11Z</time>
      </trkpt>
      <trkpt lat="47.37409" lon="6.83583">
        <ele>574.04</ele>
        <time>2021-04-04T16:18:14Z</time>
      </trkpt>
      <trkpt lat="47.37471" lon="6.83683">
        <ele>571.64</ele>
        <time>2021-04-04T16:18:24Z</time>
      </trkpt>
      <trkpt lat="47.37481" lon="6.83701">
        <ele>570.68</ele>
        <time>2021-04-04T16:18:26Z</time>
      </trkpt>
      <trkpt lat="47.37488" lon="6.8372">
        <ele>570.68</ele>
        <time>2021-04-04T16:18:28Z</time>
      </trkpt>
      <trkpt lat="47.37512" lon="6.83803">
        <ele>568.76</ele>
        <time>2021-04-04T16:18:36Z</time>
      </trkpt>
      <trkpt lat="47.37519" lon="6.83836">
        <ele>567.32</ele>
        <time>2021-04-04T16:18:39Z</time>
      </trkpt>
      <trkpt lat="47.37523" lon="6.83853">
        <ele>566.35</ele>
        <time>2021-04-04T16:18:41Z</time>
      </trkpt>
      <trkpt lat="47.37535" lon="6.83917">
        <ele>563.95</ele>
        <time>2021-04-04T16:18:50Z</time>
      </trkpt>
      <trkpt lat="47.37538" lon="6.83919">
        <ele>563.95</ele>
        <time>2021-04-04T16:18:51Z</time>
      </trkpt>
      <trkpt lat="47.3754" lon="6.8392">
        <ele>563.47</ele>
        <time>2021-04-04T16:18:52Z</time>
      </trkpt>
      <trkpt lat="47.37544" lon="6.8392">
        <ele>563.95</ele>
        <time>2021-04-04T16:19:04Z</time>
      </trkpt>
      <trkpt lat="47.37542" lon="6.83917">
        <ele>563.95</ele>
        <time>2021-04-04T16:19:23Z</time>
      </trkpt>
      <trkpt lat="47.37545" lon="6.83921">
        <ele>564.43</ele>
        <time>2021-04-04T16:19:36Z</time>
      </trkpt>
      <trkpt lat="47.37545" lon="6.8392">
        <ele>564.43</ele>
        <time>2021-04-04T16:20:04Z</time>
      </trkpt>
      <trkpt lat="47.37546" lon="6.83918">
        <ele>564.91</ele>
        <time>2021-04-04T16:20:25Z</time>
      </trkpt>
    </trkseg>
  </trk>
</gpx>